[[{"header":{"parameterUnit":"m.s-1","parameterCategory":1,"la1":30.6,"la2":29.2853,"lo1":-89.7004,"lo2":-87.6739,"dy":0.0162,"dx":0.0183,"nx":112,"ny":82,"refTime":"2023-06-03T12:00:00:Z","depth":0,"parameterNumber":2,"parameterNumberName":"U-component_of_WINDS"},"data":[0.0,0.0,0.0,0.0,0.0,0.0,0.0,0.0,0.0,0.0,0.0,0.0,0.0,0.0,0.0,0.0,0.0,0.0,0.0,0.0,0.0,0.0,0.0,0.0,0.0,0.0,0.0,0.0,0.0,0.0,0.0,0.0,0.0,0.0,0.0,0.0,0.0,0.0,0.0,0.0,0.0,0.0,0.0,0.0,0.0,0.0,0.0,0.0,0.0,0.0,0.0,0.0,0.0,0.0,0.0,0.0,0.0,0.0,0.0,0.0,0.0,0.0,0.0,0.0,0.0,0.0,0.0,0.0,0.0,0.0,0.0,0.0,0.0,0.0,0.0,0.0,0.0,0.0,0.0,0.0,0.0,0.0,0.0,0.0,0.0,0.0,0.0,0.0,0.0,0.0,-3.5523,-3.6692,-3.7891,-3.8872,-3.9514,-3.8736,-3.7364,-3.5349,0.0,0.0,0.0,0.0,0.0,0.0,0.0,0.0,0.0,0.0,0.0,0.0,0.0,0.0,0.0,0.0,0.0,0.0,0.0,0.0,0.0,0.0,0.0,0.0,0.0,0.0,0.0,0.0,0.0,0.0,0.0,0.0,0.0,0.0,0.0,0.0,0.0,0.0,0.0,0.0,0.0,0.0,0.0,0.0,0.0,0.0,0.0,0.0,0.0,0.0,0.0,0.0,0.0,0.0,0.0,0.0,0.0,0.0,0.0,0.0,0.0,0.0,0.0,0.0,0.0,0.0,0.0,0.0,0.0,0.0,0.0,0.0,0.0,0.0,0.0,0.0,0.0,0.0,0.0,0.0,0.0,0.0,0.0,0.0,0.0,0.0,0.0,0.0,0.0,0.0,0.0,0.0,0.0,0.0,0.0,0.0,0.0,0.0,0.0,0.0,0.0,0.0,0.0,0.0,-3.5537,-3.7954,-3.8744,-3.931,-3.9888,-3.8603,-3.7345,-3.6337,0.0,0.0,0.0,0.0,0.0,0.0,0.0,0.0,0.0,0.0,0.0,0.0,0.0,0.0,0.0,0.0,0.0,0.0,0.0,0.0,0.0,0.0,0.0,0.0,0.0,0.0,0.0,0.0,0.0,0.0,0.0,0.0,0.0,0.0,0.0,0.0,0.0,0.0,0.0,0.0,0.0,0.0,0.0,0.0,0.0,0.0,0.0,0.0,0.0,0.0,0.0,0.0,0.0,0.0,0.0,0.0,0.0,0.0,0.0,0.0,0.0,0.0,0.0,0.0,0.0,0.0,0.0,0.0,0.0,0.0,0.0,0.0,0.0,0.0,0.0,0.0,0.0,0.0,0.0,0.0,0.0,0.0,0.0,0.0,0.0,0.0,0.0,0.0,0.0,0.0,0.0,0.0,0.0,0.0,0.0,0.0,0.0,0.0,0.0,0.0,0.0,0.0,0.0,-3.4836,-3.6029,-3.7525,-3.8305,-3.8757,-3.8907,-3.7857,-3.6845,-3.6147,-3.4855,0.0,0.0,0.0,0.0,0.0,0.0,0.0,0.0,0.0,0.0,0.0,0.0,0.0,0.0,0.0,0.0,0.0,0.0,0.0,0.0,0.0,0.0,0.0,0.0,0.0,0.0,0.0,0.0,0.0,0.0,0.0,0.0,0.0,0.0,0.0,0.0,0.0,0.0,0.0,0.0,0.0,0.0,0.0,0.0,0.0,0.0,0.0,0.0,0.0,0.0,0.0,0.0,0.0,0.0,0.0,0.0,0.0,0.0,0.0,0.0,0.0,0.0,0.0,0.0,0.0,0.0,0.0,0.0,0.0,0.0,0.0,0.0,0.0,0.0,0.0,0.0,0.0,0.0,0.0,0.0,0.0,0.0,0.0,0.0,0.0,0.0,0.0,0.0,0.0,0.0,0.0,0.0,0.0,0.0,0.0,0.0,0.0,0.0,0.0,0.0,0.0,0.0,-3.575,-3.6589,-3.6947,-3.7682,-3.8093,-3.7928,-3.7005,-3.6228,-3.5746,-3.4191,0.0,0.0,0.0,0.0,0.0,0.0,0.0,0.0,0.0,0.0,0.0,0.0,0.0,0.0,0.0,0.0,0.0,0.0,0.0,0.0,0.0,0.0,0.0,0.0,0.0,0.0,0.0,0.0,0.0,0.0,0.0,0.0,0.0,0.0,0.0,0.0,0.0,0.0,0.0,0.0,0.0,0.0,0.0,0.0,0.0,0.0,0.0,0.0,0.0,0.0,0.0,0.0,0.0,0.0,0.0,0.0,0.0,0.0,0.0,0.0,0.0,0.0,0.0,0.0,0.0,0.0,0.0,0.0,0.0,0.0,0.0,0.0,0.0,0.0,0.0,0.0,0.0,0.0,0.0,0.0,0.0,0.0,0.0,0.0,0.0,0.0,0.0,0.0,0.0,0.0,0.0,0.0,0.0,0.0,0.0,0.0,0.0,0.0,0.0,0.0,0.0,0.0,-3.5747,-3.6947,-3.6993,-3.7449,-3.7756,-3.7707,-3.643,-3.5582,-3.5537,-3.3664,0.0,0.0,0.0,0.0,0.0,0.0,0.0,0.0,0.0,0.0,0.0,0.0,0.0,0.0,0.0,0.0,0.0,0.0,0.0,0.0,0.0,0.0,0.0,0.0,0.0,0.0,0.0,0.0,0.0,0.0,0.0,0.0,0.0,0.0,0.0,0.0,0.0,0.0,0.0,0.0,0.0,0.0,0.0,0.0,0.0,0.0,0.0,0.0,0.0,0.0,0.0,0.0,0.0,0.0,0.0,0.0,0.0,0.0,0.0,0.0,0.0,0.0,0.0,0.0,0.0,0.0,0.0,0.0,0.0,0.0,0.0,0.0,0.0,0.0,0.0,0.0,0.0,0.0,0.0,0.0,0.0,0.0,0.0,0.0,0.0,0.0,0.0,0.0,0.0,0.0,0.0,0.0,0.0,0.0,0.0,0.0,0.0,0.0,0.0,0.0,0.0,0.0,-3.4784,-3.5691,0.0,-3.6288,-3.6423,-3.6337,-3.5821,-3.5325,-3.4891,0.0,0.0,0.0,0.0,0.0,0.0,0.0,0.0,0.0,0.0,0.0,0.0,0.0,0.0,0.0,0.0,0.0,0.0,0.0,0.0,0.0,0.0,0.0,0.0,0.0,0.0,0.0,0.0,0.0,0.0,0.0,0.0,0.0,0.0,0.0,0.0,0.0,0.0,0.0,0.0,0.0,0.0,0.0,0.0,0.0,0.0,0.0,0.0,0.0,0.0,0.0,0.0,0.0,0.0,0.0,0.0,0.0,0.0,0.0,0.0,0.0,0.0,0.0,0.0,0.0,0.0,0.0,0.0,0.0,0.0,0.0,0.0,0.0,0.0,0.0,0.0,0.0,0.0,0.0,0.0,0.0,0.0,0.0,0.0,0.0,0.0,0.0,0.0,0.0,0.0,0.0,0.0,0.0,0.0,0.0,0.0,0.0,0.0,0.0,0.0,0.0,0.0,-3.344,-3.4389,-3.5142,0.0,-3.5572,-3.5589,-3.5504,-3.5295,-3.4891,-3.4234,0.0,0.0,0.0,0.0,0.0,0.0,0.0,0.0,0.0,0.0,0.0,0.0,0.0,0.0,0.0,0.0,0.0,0.0,0.0,0.0,0.0,0.0,0.0,0.0,0.0,0.0,0.0,0.0,0.0,0.0,0.0,0.0,0.0,0.0,0.0,0.0,0.0,0.0,0.0,0.0,0.0,0.0,0.0,0.0,0.0,0.0,0.0,0.0,0.0,0.0,0.0,0.0,0.0,0.0,0.0,0.0,0.0,0.0,0.0,0.0,0.0,0.0,0.0,0.0,0.0,0.0,0.0,0.0,0.0,0.0,0.0,0.0,0.0,0.0,0.0,0.0,0.0,0.0,0.0,0.0,0.0,0.0,0.0,0.0,0.0,0.0,0.0,0.0,0.0,0.0,0.0,0.0,0.0,0.0,0.0,0.0,0.0,0.0,0.0,0.0,0.0,0.0,-3.353,-3.4779,-3.5638,-3.5504,-3.5504,-3.5504,-3.5504,-3.4876,-3.4234,0.0,0.0,0.0,0.0,0.0,0.0,0.0,0.0,0.0,0.0,0.0,0.0,0.0,0.0,0.0,0.0,0.0,0.0,0.0,0.0,0.0,0.0,0.0,0.0,0.0,0.0,0.0,0.0,0.0,0.0,0.0,0.0,0.0,0.0,0.0,0.0,0.0,0.0,0.0,0.0,0.0,0.0,0.0,0.0,0.0,0.0,0.0,0.0,0.0,0.0,0.0,0.0,0.0,0.0,0.0,0.0,0.0,0.0,0.0,0.0,0.0,0.0,0.0,0.0,0.0,0.0,0.0,0.0,0.0,0.0,0.0,0.0,0.0,0.0,0.0,0.0,0.0,0.0,0.0,0.0,0.0,0.0,0.0,0.0,0.0,0.0,0.0,0.0,0.0,0.0,0.0,0.0,0.0,0.0,0.0,0.0,0.0,0.0,0.0,0.0,0.0,0.0,0.0,-3.3499,-3.4698,-3.5554,-3.5504,-3.5504,-3.5504,-3.5504,-3.5325,-3.4711,-3.3559,0.0,0.0,0.0,0.0,0.0,0.0,0.0,0.0,0.0,0.0,0.0,0.0,0.0,0.0,0.0,0.0,0.0,0.0,0.0,0.0,0.0,0.0,0.0,0.0,0.0,0.0,0.0,0.0,0.0,0.0,0.0,0.0,0.0,0.0,0.0,0.0,0.0,0.0,0.0,0.0,0.0,0.0,0.0,0.0,0.0,0.0,0.0,0.0,0.0,0.0,0.0,0.0,0.0,0.0,0.0,0.0,0.0,0.0,0.0,0.0,0.0,0.0,0.0,0.0,0.0,0.0,0.0,0.0,0.0,0.0,0.0,0.0,0.0,0.0,0.0,0.0,0.0,0.0,0.0,0.0,0.0,0.0,0.0,0.0,0.0,0.0,0.0,0.0,0.0,0.0,0.0,0.0,0.0,0.0,0.0,0.0,0.0,0.0,0.0,0.0,0.0,0.0,-3.3499,-3.4681,-3.5504,-3.5504,-3.5504,-3.5504,-3.5504,-3.5504,-3.4936,-3.3574,0.0,0.0,0.0,0.0,0.0,0.0,0.0,0.0,0.0,0.0,0.0,0.0,0.0,0.0,0.0,0.0,0.0,0.0,0.0,0.0,0.0,0.0,0.0,0.0,0.0,0.0,0.0,0.0,0.0,0.0,0.0,0.0,0.0,0.0,0.0,0.0,0.0,0.0,0.0,0.0,0.0,0.0,0.0,0.0,0.0,0.0,0.0,0.0,0.0,0.0,0.0,0.0,0.0,0.0,0.0,0.0,0.0,0.0,0.0,0.0,0.0,0.0,0.0,0.0,0.0,0.0,0.0,0.0,0.0,0.0,0.0,0.0,0.0,0.0,0.0,0.0,0.0,0.0,0.0,0.0,0.0,0.0,0.0,0.0,0.0,0.0,0.0,0.0,0.0,0.0,0.0,0.0,0.0,0.0,0.0,0.0,0.0,0.0,0.0,0.0,0.0,0.0,-3.3499,-3.4681,-3.5504,-3.5504,-3.5504,-3.5504,-3.5504,-3.5504,-3.4936,-3.3574,0.0,0.0,0.0,0.0,0.0,0.0,0.0,0.0,0.0,0.0,0.0,0.0,0.0,0.0,0.0,0.0,0.0,0.0,0.0,0.0,0.0,0.0,0.0,0.0,0.0,0.0,0.0,0.0,0.0,0.0,0.0,0.0,0.0,0.0,0.0,0.0,0.0,0.0,0.0,0.0,0.0,0.0,0.0,0.0,0.0,0.0,0.0,0.0,0.0,0.0,0.0,0.0,0.0,0.0,0.0,0.0,0.0,0.0,0.0,0.0,-3.5654,0.0,0.0,0.0,0.0,0.0,0.0,0.0,0.0,0.0,0.0,0.0,0.0,0.0,0.0,0.0,0.0,0.0,0.0,0.0,0.0,0.0,0.0,0.0,0.0,0.0,0.0,0.0,0.0,0.0,0.0,0.0,0.0,0.0,0.0,0.0,0.0,0.0,0.0,0.0,0.0,0.0,-3.3499,-3.4681,-3.5504,-3.5504,-3.5504,-3.5504,-3.5504,-3.5504,-3.4936,-3.3574,-3.3499,0.0,0.0,0.0,0.0,0.0,0.0,0.0,0.0,0.0,0.0,0.0,0.0,0.0,0.0,0.0,0.0,0.0,0.0,0.0,0.0,0.0,0.0,0.0,0.0,0.0,0.0,0.0,0.0,0.0,0.0,0.0,0.0,0.0,0.0,0.0,0.0,0.0,0.0,0.0,0.0,0.0,0.0,0.0,0.0,0.0,0.0,0.0,0.0,0.0,0.0,0.0,0.0,0.0,0.0,0.0,0.0,0.0,0.0,0.0,0.0,-3.6451,0.0,0.0,0.0,0.0,0.0,0.0,0.0,0.0,0.0,0.0,0.0,0.0,0.0,0.0,0.0,0.0,0.0,0.0,0.0,0.0,0.0,0.0,0.0,0.0,0.0,0.0,0.0,0.0,0.0,0.0,0.0,0.0,0.0,0.0,0.0,0.0,0.0,0.0,0.0,0.0,-3.3499,-3.4681,-3.5504,-3.5504,-3.5504,-3.5504,-3.5504,-3.5504,-3.4936,-3.3574,-3.3499,0.0,0.0,0.0,0.0,0.0,0.0,0.0,0.0,0.0,0.0,0.0,0.0,0.0,0.0,0.0,0.0,0.0,0.0,0.0,0.0,0.0,0.0,0.0,0.0,0.0,0.0,0.0,0.0,0.0,0.0,0.0,0.0,0.0,0.0,0.0,0.0,0.0,0.0,0.0,0.0,0.0,0.0,0.0,0.0,0.0,0.0,0.0,0.0,0.0,0.0,0.0,0.0,0.0,0.0,-3.9026,-3.8858,-3.963,-3.9854,-3.9538,-3.7976,-3.7097,-3.6715,0.0,0.0,0.0,0.0,0.0,0.0,0.0,0.0,0.0,0.0,0.0,0.0,0.0,0.0,0.0,0.0,0.0,0.0,0.0,0.0,0.0,0.0,0.0,0.0,0.0,-3.6512,-3.6539,0.0,0.0,0.0,0.0,0.0,0.0,0.0,0.0,0.0,0.0,0.0,0.0,-3.3499,-3.4681,-3.5504,-3.5504,-3.5504,-3.5504,-3.5504,-3.5504,-3.4981,-3.3739,-3.3664,-3.308,0.0,0.0,0.0,0.0,0.0,0.0,0.0,0.0,0.0,0.0,0.0,0.0,0.0,0.0,0.0,0.0,0.0,0.0,0.0,0.0,0.0,0.0,0.0,0.0,0.0,0.0,0.0,0.0,0.0,0.0,0.0,0.0,-3.4197,-3.4086,0.0,0.0,0.0,0.0,0.0,0.0,0.0,0.0,0.0,0.0,0.0,0.0,0.0,0.0,-4.06,-4.0677,-4.07,-4.07,-4.0758,-4.111,-4.1698,-4.0781,-4.0524,-4.078,-3.947,0.0,-3.8814,-3.7746,0.0,0.0,0.0,0.0,0.0,0.0,0.0,0.0,0.0,0.0,0.0,0.0,0.0,0.0,0.0,0.0,0.0,0.0,0.0,0.0,0.0,0.0,-3.7391,-3.5987,-3.6257,-3.6578,0.0,-3.5316,-3.5335,-3.5539,0.0,0.0,0.0,0.0,0.0,0.0,0.0,0.0,-3.3499,-3.4681,-3.5504,-3.5504,-3.5504,-3.5504,-3.5504,-3.5504,-3.5175,-3.4429,-3.4384,-3.3754,-3.2407,-3.2437,0.0,0.0,0.0,0.0,0.0,0.0,0.0,0.0,0.0,0.0,0.0,0.0,0.0,0.0,0.0,0.0,0.0,0.0,0.0,0.0,0.0,0.0,0.0,0.0,0.0,0.0,0.0,0.0,0.0,-3.4697,-3.4723,-3.4167,-3.4537,-3.4611,0.0,0.0,0.0,0.0,0.0,0.0,0.0,0.0,0.0,-4.0506,-4.0671,-4.1056,-4.1772,-4.2213,-4.2451,-4.2451,-4.263,-4.2776,-4.2876,-4.2751,-4.268,-4.2591,-4.2017,-4.1788,-4.1625,-3.9057,-3.7938,-3.7729,0.0,0.0,0.0,0.0,0.0,-3.6383,-3.7229,0.0,0.0,0.0,0.0,0.0,0.0,0.0,0.0,0.0,0.0,0.0,0.0,0.0,0.0,-3.7669,-3.8091,-3.8572,-3.8193,-3.7701,-3.7037,0.0,-3.5259,-3.4578,-3.3963,0.0,0.0,0.0,0.0,-3.444,-3.41,-3.4891,-3.5504,-3.5504,-3.5504,-3.5504,-3.5504,-3.5504,-3.5205,-3.4548,-3.4503,-3.4084,-3.3095,-3.3425,-3.3275,0.0,0.0,0.0,0.0,0.0,0.0,0.0,0.0,0.0,0.0,0.0,0.0,0.0,0.0,0.0,0.0,0.0,0.0,0.0,0.0,0.0,0.0,0.0,0.0,0.0,0.0,0.0,0.0,-3.4767,-3.4983,-3.4507,-3.5026,-3.5223,0.0,0.0,0.0,0.0,0.0,0.0,-3.9234,-3.9898,-4.0763,-4.1976,-4.2616,-4.302,-4.3222,-4.3809,-4.4103,-4.4121,-4.4363,-4.4361,-4.4112,-4.4396,-4.4351,-4.4085,-4.3792,-4.3633,-4.3417,-4.0302,-3.9009,-3.8826,-3.7204,-3.6848,0.0,-3.6571,-3.6638,-3.7252,-3.8328,-3.8362,-3.7939,-3.8125,0.0,-3.7246,-3.6654,0.0,0.0,0.0,0.0,-3.7083,-3.7083,0.0,-3.8937,-3.8751,-3.9276,-3.9774,-3.9588,-3.9106,-3.8308,0.0,-3.6282,-3.5887,-3.5272,0.0,0.0,0.0,0.0,-3.5504,-3.5049,-3.5453,-3.581,-3.5748,-3.5587,-3.5504,-3.5504,-3.5504,-3.5295,-3.4771,-3.4773,-3.4474,-3.3769,-3.4249,-3.4039,-3.3036,0.0,0.0,0.0,0.0,0.0,0.0,0.0,0.0,0.0,0.0,0.0,0.0,0.0,0.0,0.0,0.0,0.0,0.0,0.0,0.0,0.0,0.0,0.0,0.0,0.0,0.0,0.0,0.0,0.0,-3.533,-3.546,0.0,0.0,0.0,0.0,-3.7502,-3.7489,-3.8496,-4.093,-4.1052,-4.2104,-4.4434,-4.4544,-4.4947,-4.57,-4.5755,-4.5773,-4.5773,-4.581,-4.5971,-4.6207,-4.5032,-4.4644,-4.4863,-4.3739,-4.3239,-4.3093,-4.1447,-4.0696,-4.0422,-3.8738,-3.8076,-3.801,-3.7851,-3.7821,-3.7872,-3.7939,-3.7939,-3.8024,-3.8717,-3.8903,-3.887,-3.8836,-3.8345,0.0,0.0,-3.7797,-3.7838,-3.7838,-3.8413,-3.8819,-3.8125,-3.8514,-3.8853,-3.8159,-3.799,-3.8118,0.0,-3.8149,-3.7368,-3.6629,0.0,-3.6082,-3.5395,-3.5913,-3.6327,-3.6298,-3.6488,-3.6569,-3.6383,-3.5861,-3.5504,-3.5504,-3.5504,-3.5489,-3.5459,-3.5444,-3.5145,-3.4488,-3.4488,-3.4474,-3.4414,-3.3799,0.0,0.0,0.0,0.0,0.0,0.0,0.0,0.0,0.0,0.0,0.0,0.0,0.0,0.0,0.0,0.0,0.0,0.0,0.0,0.0,0.0,0.0,0.0,0.0,0.0,0.0,0.0,0.0,-3.7015,-3.8,0.0,-3.8238,-3.8651,-3.9038,-3.9239,-4.0111,-4.1248,-4.2612,-4.3147,-4.4066,-4.5424,-4.5957,-4.6379,-4.6654,-4.7186,-4.7292,-4.6981,-4.6695,-4.6608,-4.6703,-4.5944,-4.5652,-4.5747,-4.5331,-4.4927,-4.4509,-4.3,-4.2061,-4.1367,-3.9789,-3.9065,-3.8935,-3.8887,-3.8761,-3.8667,-3.914,-3.9005,-3.8565,-3.8362,-3.8294,-3.8294,-3.8294,-3.8108,-3.7905,-3.7905,-3.8244,-3.8616,-3.8616,-3.9165,-3.9656,-3.9377,-3.9537,-3.9656,-3.9385,-3.9334,-3.9369,-3.9547,-3.8496,-3.7603,-3.7806,-3.7679,-3.7345,-3.6765,-3.6891,-3.6934,-3.661,-3.6197,-3.5906,-3.5829,-3.5619,-3.5504,-3.5504,-3.5504,-3.5504,-3.5504,-3.5504,-3.5385,-3.5145,-3.513,-3.4936,-3.4518,-3.4279,-3.4159,0.0,0.0,0.0,0.0,0.0,0.0,0.0,0.0,0.0,0.0,0.0,0.0,0.0,0.0,0.0,0.0,0.0,0.0,0.0,0.0,0.0,0.0,0.0,0.0,0.0,0.0,-3.7986,-3.8265,-3.977,-4.068,-4.0383,-4.1048,-4.1615,-4.1829,-4.2721,-4.3708,-4.4759,-4.5258,-4.5865,-4.6691,-4.7223,-4.7498,-4.7498,-4.8031,-4.8152,-4.7836,-4.7356,-4.7049,-4.6886,-4.6411,-4.6087,-4.593,-4.593,-4.5727,-4.5276,-4.3828,-4.2896,-4.2258,-4.0651,-3.9924,-3.9775,-3.9727,-3.9557,-3.9453,-3.9943,-3.9791,-3.9276,-3.8802,-3.8633,-3.8633,-3.8633,-3.8633,-3.8633,-3.8633,-3.8988,-3.9385,-3.9385,-3.974,-4.0096,-4.0096,-4.0096,-4.0096,-4.0096,-4.0096,-4.0062,-3.9875,-3.8967,-3.837,-3.8772,-3.8698,-3.8372,-3.7787,-3.7706,-3.7565,-3.7201,-3.6411,-3.5906,-3.5906,-3.5666,-3.5504,-3.5504,-3.5504,-3.5504,-3.5504,-3.5504,-3.5504,-3.5504,-3.5504,-3.5295,-3.4863,-3.4623,-3.4623,-3.4816,0.0,0.0,0.0,0.0,0.0,0.0,0.0,0.0,0.0,0.0,0.0,0.0,0.0,0.0,0.0,0.0,0.0,0.0,0.0,0.0,0.0,0.0,0.0,-3.577,-3.7052,-3.8358,-3.9194,-4.0754,-4.2054,-4.2835,-4.3571,-4.4387,-4.5268,-4.5132,-4.573,-4.735,-4.7243,-4.7498,-4.8324,-4.8324,-4.8306,-4.8306,-4.8306,-4.8287,-4.8267,-4.7816,-4.7356,-4.6908,-4.6442,-4.5903,-4.5415,-4.5381,-4.5354,-4.5207,-4.3776,-4.3155,-4.3017,-4.1353,-4.0624,-4.0468,-4.0337,-4.0213,-4.0096,-4.0096,-4.0096,-4.0096,-4.0096,-4.0096,-4.0096,-4.0096,-4.0096,-4.0096,-4.0096,-4.0096,-4.0096,-4.0096,-4.0096,-4.0096,-4.0096,-4.0096,-4.0096,-4.0096,-4.0096,-4.002,-3.9755,-3.9703,-3.9668,-3.9528,-3.9395,-3.9077,-3.8407,-3.8278,0.0,-3.7984,-3.7201,-3.6677,-3.6677,-3.5953,-3.5504,-3.5504,-3.5504,-3.5504,-3.5504,-3.5504,-3.5504,-3.5504,-3.5504,-3.5504,-3.5504,-3.4846,-3.4846,-3.5504,0.0,0.0,0.0,0.0,0.0,0.0,0.0,0.0,0.0,0.0,0.0,0.0,0.0,0.0,0.0,0.0,0.0,0.0,0.0,0.0,0.0,0.0,-3.9319,-3.9078,-4.0438,-4.198,-4.341,-4.4506,-4.5231,-4.5454,-4.618,-4.6481,-4.606,-4.6996,-4.7757,-4.8182,-4.8051,-4.8361,-4.9225,-4.8636,-4.8306,-4.8306,-4.8306,-4.8132,-4.7795,-4.7653,-4.7527,-4.7381,-4.6676,-4.6079,-4.5587,-4.5004,-4.4394,-4.3741,-4.2741,-4.2327,-4.2216,-4.1123,-4.0624,-4.0468,-4.0337,-4.0213,-4.0096,-4.0096,-4.0096,-4.0096,-4.0096,-4.0096,-4.0096,-4.0096,-4.0096,-4.0096,-4.0096,-4.0096,-4.0096,-4.0096,-4.0096,-4.0096,-4.0096,-4.0096,-4.0096,-4.0096,-4.0096,-4.002,-3.9755,-3.9703,-3.9625,-3.9379,-3.9325,-3.9077,-3.8407,0.0,0.0,-3.7093,-3.6333,-3.581,-3.581,-3.5649,-3.5504,-3.5504,-3.5504,-3.5504,-3.5504,-3.5504,-3.5504,-3.5504,-3.5504,-3.5504,-3.5504,-3.5325,-3.531,0.0,0.0,0.0,0.0,0.0,0.0,0.0,0.0,0.0,0.0,0.0,0.0,0.0,0.0,0.0,0.0,0.0,0.0,0.0,0.0,0.0,0.0,-4.0085,-4.1646,-4.2352,-4.3262,-4.4209,-4.5175,-4.6308,-4.7144,-4.746,-4.824,-4.8631,-4.8449,-4.8898,-4.9159,-4.9123,-4.866,-4.862,-4.9136,-4.8582,-4.8306,-4.8306,-4.8306,-4.8172,-4.7877,-4.7695,-4.7611,-4.7572,-4.6715,-4.6167,0.0,-4.5164,-4.4425,-4.3603,-4.2827,-4.2309,0.0,0.0,0.0,0.0,0.0,-4.0213,-4.0096,-4.0096,-4.0096,-4.0096,-4.0096,-4.0096,-4.0096,-4.0096,-4.0096,-4.0096,-4.0096,-4.0096,-4.0096,-4.0096,-4.0096,-4.0096,-4.0096,-4.0096,-4.0096,-4.0096,-4.0096,-4.0037,-3.9833,0.0,0.0,-3.9494,-3.9379,-3.9077,-3.8463,-3.7975,-3.7422,0.0,-3.6461,-3.6226,-3.6002,-3.5908,-3.5765,-3.5537,-3.5504,0.0,0.0,0.0,-3.5504,-3.5504,-3.5504,0.0,0.0,0.0,-3.5504,0.0,0.0,0.0,0.0,-3.4517,-3.4188,0.0,0.0,0.0,0.0,0.0,0.0,0.0,0.0,0.0,0.0,0.0,0.0,0.0,0.0,0.0,0.0,-4.1571,-4.3633,-4.5212,-4.5584,-4.5732,-4.5825,-4.7107,-4.8259,-4.8983,-4.9782,-5.0488,-5.1063,-5.0416,-5.0028,-5.012,0.0,0.0,0.0,0.0,-4.8306,-4.8306,-4.8306,-4.8306,-4.8287,-4.7877,-4.7674,-4.7653,-4.671,-4.6222,-4.6119,-4.5552,-4.4872,-4.4121,-4.3465,-4.2723,-4.1947,-4.1164,-4.0793,-4.0624,-4.0379,-4.0213,0.0,0.0,0.0,0.0,-4.0096,-4.0096,-4.0096,-4.0096,-4.0096,-4.0096,-4.0096,-4.0096,-4.0096,-4.0096,-4.0096,-4.0096,-4.0096,-4.0096,-4.0096,-4.0096,-4.0096,-4.0062,-3.9926,-3.9901,-3.9875,-3.9729,-3.9511,-3.9131,-3.8557,-3.8298,0.0,-3.6963,-3.7152,-3.7238,-3.6816,0.0,0.0,-3.5651,-3.5537,-3.5504,-3.5504,-3.5504,-3.5504,-3.5504,-3.5504,-3.5504,-3.5504,-3.5504,-3.5504,-3.5504,-3.5504,-3.5504,-3.5504,-3.5504,-3.5175,0.0,0.0,0.0,0.0,0.0,0.0,0.0,0.0,0.0,0.0,0.0,0.0,0.0,0.0,0.0,-4.2608,-4.4042,-4.5157,-4.6122,-4.7386,-4.8444,-4.9094,-4.9447,-4.9726,-4.993,-5.0673,-5.0655,-4.9466,-4.9767,-5.0287,-5.0935,-4.9455,0.0,-5.0391,-4.9157,-4.8401,-4.8306,-4.8306,-4.8306,-4.8306,0.0,0.0,-4.8134,-4.7299,-4.6506,-4.5739,-4.4986,-4.4185,-4.3396,-4.3258,-4.2723,-4.1923,-4.1061,-4.06,-4.0379,-4.033,-4.0213,-4.0096,-4.0096,-4.0096,-4.0096,-4.0096,-4.0096,-4.0096,-4.0096,-4.0096,0.0,-4.0096,-4.0096,-4.0096,-4.0096,-4.0096,-4.0096,-4.0096,-4.0096,-4.0096,-4.0096,-4.0096,-4.0062,-3.9926,-3.9901,-3.9884,-3.9782,-3.9582,-3.9195,-3.8448,-3.8746,-3.8732,-3.7859,-3.7553,-3.7385,-3.7282,-3.6738,-3.6337,-3.6227,-3.5765,-3.5504,-3.5504,-3.5504,-3.5504,-3.5504,-3.5504,-3.5504,-3.5504,-3.5504,-3.5504,-3.5504,-3.5504,-3.5504,-3.5504,-3.5504,-3.5429,0.0,0.0,0.0,0.0,0.0,0.0,0.0,0.0,0.0,0.0,0.0,-3.8571,-3.9728,0.0,-4.17,-4.3686,-4.5064,-4.6178,-4.6995,-4.8147,-4.8909,-4.8909,-4.9262,-4.9837,-5.0711,-5.1156,-5.1212,-5.0785,-5.1101,-5.1139,-5.0731,-4.9806,-4.9437,-4.9731,-4.8937,-4.8438,-4.8306,-4.8306,-4.8306,-4.8306,-4.8306,-4.8306,-4.8268,-4.7633,-4.7075,-4.6618,-4.5984,-4.5092,-4.4046,-4.3452,-4.2965,-4.2568,-4.2132,-4.1317,-4.0387,-4.0387,-4.0288,-4.0096,-4.0096,-4.0096,-4.0096,-4.0096,-4.0096,-4.0096,-4.0096,-4.0096,-4.0096,-4.0096,-4.0096,-4.0096,-4.0096,-4.0096,-4.0096,-4.0096,-4.0096,-4.0096,-4.0096,-4.0096,-4.0087,-4.0011,-3.9986,-3.9986,-3.9952,-3.9866,-3.9606,-3.9009,-3.9116,-3.9144,-3.8707,-3.8492,-3.8112,-3.7458,-3.7101,-3.6631,-3.599,-3.5683,-3.5504,-3.5504,-3.5504,-3.5504,-3.5504,-3.5504,-3.5504,-3.5504,-3.5504,-3.5504,-3.5504,-3.5504,-3.5504,-3.5504,-3.5504,-3.5504,0.0,0.0,0.0,0.0,0.0,0.0,0.0,-3.7129,-3.7805,-3.8619,-3.9352,-4.013,-4.095,-4.2085,-4.3174,-4.4129,-4.5526,-4.6735,-4.7386,-4.8296,-4.8612,-4.7794,-4.8556,-4.967,-5.1026,-5.1305,-5.1528,-5.1862,-5.2029,-5.1546,-5.0246,-4.9933,-4.9491,-4.8864,-4.8643,-4.8438,-4.8306,-4.8306,-4.8306,-4.8306,-4.8306,-4.8306,-4.8287,-4.7915,-4.7674,-4.7569,-4.7093,-4.6305,-4.5287,-4.422,-4.3685,-4.3546,-4.3464,-4.2419,-4.0979,-4.0937,-4.0763,-4.0536,-4.0536,-4.0536,-4.0536,-4.0536,-4.0536,-4.0502,-4.0367,-4.0316,-4.0282,-4.0146,-4.0096,-4.0096,-4.0096,-4.0096,-4.0096,-4.0096,-4.0096,-4.0096,-4.0096,-4.0096,-4.0096,-4.0096,-4.0096,-4.0096,-4.0096,-4.0104,-3.9994,-3.9662,-3.9463,-3.9322,-3.9352,-3.9325,-3.8914,-3.7867,-3.7546,-3.6875,-3.5587,-3.5504,-3.5504,-3.5504,-3.5504,-3.5504,-3.5504,-3.5504,-3.5504,-3.5504,-3.5504,-3.5504,-3.5504,-3.5504,-3.5504,-3.5504,-3.5504,-3.5504,-3.4256,-3.447,-3.4827,-3.6434,-3.6348,-3.6479,0.0,-3.9251,-3.9552,-4.0347,-4.1068,-4.181,-4.2745,-4.2868,-4.3348,-4.4988,-4.5948,-4.6531,-4.6624,-4.7943,-4.8612,-4.7794,-4.9039,-5.0042,-5.0228,-5.0952,-5.0822,-4.9429,-4.9986,-5.0302,-5.0116,-4.9411,-4.9248,-4.9751,-4.8993,-4.8495,-4.8306,-4.8306,-4.8306,-4.8306,-4.8306,-4.8306,-4.8306,-4.8248,-4.7995,-4.7569,-4.7093,-4.6809,-4.6651,-4.6103,-4.5428,-4.4749,-4.4333,-4.3571,-4.2697,-4.2535,-4.2269,-4.2033,-4.2033,-4.2033,-4.2033,-4.2033,-4.2033,-4.1914,-4.1271,-4.1085,-4.0933,-4.0282,-4.0096,-4.0096,-4.0096,-4.0096,-4.0096,-4.0096,-4.0096,-4.0096,-4.0096,-4.0096,-4.0096,-4.0096,-4.0096,-4.0096,-4.0096,-4.0113,-4.0071,-4.0053,-3.9718,-3.9484,-3.9475,-3.9379,-3.9245,-3.9094,-3.8084,-3.6875,-3.5587,-3.5504,-3.5504,-3.5504,-3.5504,-3.5504,-3.5504,-3.5504,-3.5504,-3.5504,-3.5504,-3.5504,-3.5504,-3.5504,-3.5504,-3.5504,-3.5504,-3.5504,-3.5127,-3.5353,-3.5747,-3.738,-3.7925,-3.8462,-3.9965,-4.0666,-4.1248,-4.2074,-4.2444,-4.288,-4.3746,-4.3733,-4.4004,-4.5208,-4.5629,-4.5974,-4.642,-4.707,-4.7553,-4.7683,-4.8296,-4.9076,-5.0023,-5.0432,-5.0358,-4.9652,-5.0376,-5.0432,-4.9447,-4.954,-4.9452,-4.9141,-4.879,-4.8495,-4.8306,-4.8306,-4.8306,-4.8306,-4.8306,-4.8306,-4.8306,-4.8306,-4.8191,-4.7975,-4.7506,-4.7313,-4.727,-4.6817,-4.6265,-4.5677,-4.5473,-4.4948,-4.4147,-4.31,-4.2576,-4.2419,-4.2313,-4.2286,-4.2286,-4.2286,-4.2286,-4.2236,-4.1931,-4.183,-4.1779,-4.1484,-4.1068,-4.073,-4.073,-4.0434,-4.0096,-4.0096,-4.0096,-4.0096,-4.0096,-4.0096,-4.0096,-4.0096,-4.0096,-4.0096,-4.0096,-4.0096,-4.0087,-4.0088,-3.9849,-3.9635,-3.9528,-3.9432,-3.9228,-3.8772,-3.7924,-3.7191,-3.6631,-3.6258,-3.6022,-3.6022,-3.5668,-3.5504,-3.5504,-3.5504,-3.5504,-3.5504,-3.5504,-3.5504,-3.5504,-3.5504,-3.5504,-3.5504,-3.5504,-3.5504,-3.5991,-3.6385,-3.6911,-3.83,-3.9295,-4.0209,-4.1248,-4.1942,-4.2605,-4.3463,-4.3577,-4.3723,-4.4318,-4.43,-4.4404,-4.4997,-4.5217,-4.5491,-4.6085,-4.6364,-4.6791,-4.7608,-4.7701,-4.824,-4.9633,-4.9782,-4.9782,-4.9782,-5.0358,-5.019,-4.8964,-4.9447,-4.9432,-4.8678,-4.8605,-4.8514,-4.8363,-4.8306,-4.8306,-4.8306,-4.8306,-4.8306,-4.8306,-4.8306,-4.8306,-4.8287,-4.7937,-4.7795,-4.7754,-4.7291,-4.689,-4.656,-4.6291,-4.5912,-4.5303,-4.3915,-4.3285,-4.3127,-4.2966,-4.2912,-4.2912,-4.2912,-4.2912,-4.2878,-4.2675,-4.2591,-4.2557,-4.2354,-4.1914,-4.1508,-4.1508,-4.1102,-4.0671,-4.0468,-4.0417,-4.0367,-4.0146,-4.0096,-4.0096,-4.0096,-4.0096,-4.0096,-4.0096,-4.0096,-4.0096,-4.0096,-3.9978,-3.9799,-3.959,-3.9484,-3.9158,-3.8379,-3.7908,-3.756,-3.7429,-3.6951,-3.6692,-3.6692,-3.6258,-3.5941,-3.5765,-3.5733,-3.5683,-3.5504,-3.5504,-3.5504,-3.5504,-3.5504,-3.5504,-3.5504,-3.5504,-3.5504,-3.6847,-3.7624,-3.845,-3.9345,-4.0171,-4.1191,-4.2844,-4.3238,-4.3482,-4.4294,-4.4402,-4.4393,-4.4468,-4.4329,-4.4233,-4.4322,-4.4876,-4.5305,-4.5324,-4.6011,-4.6791,-4.7608,-4.7701,-4.8036,0.0,-4.8946,-4.8946,-4.8946,-4.8964,-4.8946,-4.8909,-4.8927,-4.8875,-4.8787,-4.866,-4.8569,-4.8476,-4.8363,-4.8306,-4.8306,-4.8306,-4.8306,-4.8306,-4.8306,-4.8306,-4.8306,-4.8287,-4.8287,-4.823,-4.7775,-4.7569,-4.7485,-4.656,-4.6186,-4.607,-4.5372,-4.4964,-4.4708,-4.4586,-4.453,-4.453,-4.453,-4.453,-4.4395,-4.3606,-4.3358,-4.3234,-4.2489,-4.2269,-4.2252,-4.2252,-4.2236,-4.2049,-4.1339,-4.117,-4.0967,-4.0265,-4.0096,-4.0096,-4.0096,-4.0096,-4.0096,-4.0096,-4.0096,-4.0096,-4.0096,-4.0096,-3.9995,-3.9729,-3.9484,-3.905,-3.8379,-3.8278,-3.8023,-3.7458,-3.737,-3.737,-3.737,-3.734,-3.7041,-3.6399,-3.6368,-3.6116,-3.5504,-3.5504,-3.5504,-3.5504,-3.5504,-3.5504,-3.5504,-3.5504,-3.5504,-3.8237,-3.8969,-3.9627,-4.158,-4.2262,-4.275,-4.3857,-4.4102,-4.4177,-4.4444,-4.4487,-4.4468,-4.4501,-4.4373,-4.427,-4.43,-4.4373,-4.4432,-4.4432,-4.5175,-4.5992,-4.681,-4.7386,0.0,0.0,0.0,0.0,-4.8909,-4.8909,-4.8909,-4.8909,-4.8909,-4.8874,-4.8804,-4.8769,-4.8661,-4.8513,-4.8457,-4.8382,-4.8306,-4.8306,-4.8306,-4.8306,-4.8306,-4.8306,-4.8306,-4.8306,-4.8306,-4.8287,-4.8132,-4.7877,-4.7569,-4.7252,-4.6753,-4.6161,-4.5802,-4.5407,-4.5032,-4.4803,-4.4682,-4.4615,-4.4615,-4.4615,-4.4564,-4.4265,-4.4198,-4.413,-4.3904,-4.3436,-4.3031,-4.3031,-4.2675,-4.2236,-4.1982,-4.1559,-4.1136,-4.0882,-4.0468,-4.0096,-4.0096,-4.0096,-4.0096,-4.0096,-4.0096,-4.0096,-4.0096,-3.9961,-3.9807,-3.9703,-3.9484,-3.9202,-3.8996,-3.8952,-3.8871,-3.8678,-3.8238,-3.7994,-3.7994,-3.7618,-3.731,-3.7071,-3.6631,-3.6305,-3.6116,-3.5701,-3.5504,-3.5504,-3.5504,-3.5504,-3.5504,-3.5504,-3.5504,-3.9533,-4.0472,-4.1298,-4.29,-4.352,-4.3857,-4.4369,-4.4501,-4.4501,-4.4501,-4.4501,-4.4501,-4.4501,-4.4387,-4.43,-4.4329,-4.4162,-4.402,-4.407,-4.4764,-4.5602,-4.6401,-4.7218,-4.8017,0.0,0.0,0.0,-4.8909,-4.8909,-4.8909,-4.8909,-4.8909,-4.8874,-4.884,-4.8804,-4.8715,-4.855,-4.8513,-4.8438,-4.8306,-4.8306,-4.8306,-4.8306,-4.8306,-4.8306,-4.8306,-4.8306,-4.8306,-4.8306,-4.8306,-4.8132,-4.7836,-4.7653,-4.723,-4.6637,-4.6182,-4.5759,-4.5381,-4.4951,-4.472,-4.4654,-4.4615,-4.4615,-4.4615,-4.4615,-4.4615,-4.4615,-4.4615,-4.4215,-4.3826,-4.3826,-4.347,-4.3047,-4.276,-4.2337,-4.1847,-4.1322,-4.0832,-4.0434,-4.0146,-4.0096,-4.0096,-4.0096,-4.0096,-4.0096,-4.0096,-3.991,-3.9755,-3.9703,-3.9511,-3.9352,-3.9299,-3.9299,-3.9299,-3.9299,-3.8898,-3.8662,-3.8662,-3.8282,-3.7982,-3.7735,-3.7294,-3.6981,-3.6753,-3.6148,-3.5829,-3.5829,-3.5587,-3.5504,-3.5504,-3.5504,-3.5504,-4.0685,-4.2093,-4.3313,-4.3351,-4.3951,-4.4501,-4.4501,-4.4501,-4.4482,-4.4444,-4.4444,-4.4426,-4.4369,-4.4294,-4.424,-4.4327,-4.4155,-4.4036,-4.4169,-4.4867,-4.5639,-4.6401,-4.7256,-4.8054,-4.8834,0.0,0.0,-4.8909,0.0,-4.8909,-4.8909,-4.8909,-4.8909,-4.8909,-4.884,-4.8732,-4.8605,-4.855,-4.8438,-4.8306,-4.8306,-4.8306,-4.8306,-4.8306,-4.8306,-4.8306,-4.8306,-4.8306,-4.8306,-4.8306,-4.8306,-4.8267,-4.7816,-4.7611,-4.7506,-4.6607,-4.6151,-4.5843,-4.5106,-4.4831,-4.4776,-4.4654,-4.4598,-4.4598,-4.4615,-4.4615,-4.4615,-4.4615,-4.4615,-4.4615,-4.4615,-4.4615,-4.4429,-4.3656,-4.3426,-4.3003,-4.1627,-4.1255,-4.0984,-4.0299,-4.013,-4.0096,-4.0096,-4.0096,-4.0096,-4.0096,-3.9986,-3.9858,-3.9729,-3.959,-3.9432,-3.9325,-3.9299,-3.9299,-3.9299,-3.9299,-3.9299,-3.9299,-3.9299,-3.9023,-3.8379,-3.8322,-3.8023,-3.7458,-3.6784,-3.6461,-3.6461,-3.5861,-3.5569,-3.5569,-3.5504,-3.5504,-4.2093,-4.2975,-4.3444,-4.4045,-4.435,-4.4501,-4.4501,-4.4501,-4.4332,-4.3726,-4.3613,-4.3407,-4.2755,-4.3007,-4.3332,-4.3347,-4.3718,-4.4005,-4.4055,-4.5284,-4.6271,-4.6475,-4.7738,-4.8667,-4.889,-4.8909,0.0,0.0,-4.8909,-4.8909,-4.8909,-4.8909,-4.8909,-4.8909,-4.8891,-4.8839,-4.875,-4.8587,-4.8438,-4.8306,-4.8306,-4.8306,-4.8306,-4.8306,-4.8306,-4.8306,-4.8306,-4.8306,-4.8306,-4.8306,-4.8306,-4.8287,-4.8172,-4.7915,-4.7569,-4.7317,-4.6986,-4.6566,-4.5868,-4.5328,-4.494,-4.4776,-4.4765,-4.4737,-4.4626,-4.4615,-4.4615,-4.4615,-4.4615,-4.4615,-4.4615,-4.4615,-4.4564,-4.4333,-4.3842,-4.3291,-4.2902,-4.1982,-4.1136,-4.095,-4.0485,-4.0096,-4.0096,-4.0096,-4.0096,-4.0096,-4.0087,-4.0011,-3.9875,-3.9642,-3.9501,-3.9432,-3.9352,-3.9299,-3.9299,-3.9299,-3.9299,-3.9299,-3.9299,-3.9202,-3.905,-3.8562,-3.8222,-3.808,-3.7442,-3.7131,-3.7131,-3.6492,-3.6164,-3.6164,-3.5716,-3.5504,-4.2806,-4.3557,-4.3951,-4.4388,-4.4501,-4.4501,-4.4501,-4.4219,-4.3857,-4.3388,-4.2994,-4.2581,-4.2098,-4.2557,-4.3015,-4.3095,-4.3606,-4.402,-4.407,-4.5486,-4.6494,-4.6494,-4.7924,-4.8909,-4.8909,-4.8909,-4.8909,0.0,-4.8909,-4.8909,-4.8909,-4.8909,-4.8909,-4.8909,-4.8909,-4.8856,-4.8787,-4.8587,-4.8457,-4.8382,-4.8325,-4.8306,-4.8306,-4.8306,-4.8306,-4.8306,0.0,-4.8306,-4.8306,-4.8306,-4.8306,-4.8306,-4.8306,-4.8132,-4.7877,-4.7674,-4.7442,-4.7093,-4.6304,-4.5819,-4.5468,-4.5032,-4.4858,-4.4793,-4.4709,-4.4654,-4.4615,-4.4615,-4.4615,-4.4615,-4.4615,-4.4615,-4.4615,-4.4615,-4.4248,-4.3826,-4.3477,-4.2506,-4.1491,-4.0832,-4.0383,-4.0096,-4.0096,-4.0096,-4.0096,-4.0096,-4.0096,-4.007,-3.9986,-3.9798,-3.9642,-3.959,-3.9458,-3.9395,-3.9395,-3.9325,-3.9299,-3.9299,-3.9299,-3.9299,-3.9299,-3.8925,-3.8745,-3.8745,-3.8124,-3.7793,-3.7793,-3.6875,-3.6538,-3.6814,-3.591,-3.5651,-4.32,-4.397,-4.4501,-4.4501,-4.4501,-4.4463,-4.4369,-4.3801,-4.3238,-4.3013,-4.2374,-4.1817,-4.1704,-4.2328,-4.2894,-4.3007,-4.3595,-4.407,-4.4169,-4.5409,-4.6382,-4.6494,-4.7831,-4.8779,-4.889,-4.8909,-4.8909,-4.8909,-4.8909,-4.8909,-4.8909,-4.8909,-4.8909,-4.8909,-4.8909,-4.8856,-4.8787,-4.8643,-4.8513,-4.8513,-4.8382,-4.8343,-4.8343,-4.8306,-4.8306,-4.8306,0.0,0.0,-4.8306,-4.8306,-4.8306,-4.8306,-4.8306,-4.8306,-4.8267,-4.7836,-4.7695,-4.7569,-4.6701,-4.6387,-4.6242,-4.5319,-4.4951,-4.4858,-4.4803,-4.4737,-4.4626,-4.4615,-4.4615,-4.4615,-4.4615,-4.4615,-4.4615,-4.4615,-4.4615,-4.4429,-4.3724,-4.2895,-4.1847,-4.04,-4.0096,-4.0096,-4.0096,-4.0096,-4.0096,-4.0096,-4.0096,-4.0096,-4.0096,-3.9986,-3.9849,-3.9729,-3.9616,-3.9528,-3.9501,-3.9379,-3.9325,-3.9299,-3.9299,-3.9299,-3.9299,-3.9299,-3.9299,-3.9299,-3.8745,-3.8435,-3.8435,-3.7235,-3.692,-3.737,-3.6179,-3.5846,-4.3862,-4.4388,-4.4501,-4.4501,-4.4501,-4.4332,-4.3651,-4.3388,-4.29,-4.1511,-4.1116,-4.0797,-4.0153,-4.1145,-4.2076,-4.2053,-4.3241,-4.4135,-4.4055,-4.4894,-4.5751,-4.642,-4.733,-4.8166,-4.8834,-4.8909,0.0,0.0,0.0,-4.8909,-4.8909,-4.8909,-4.8909,-4.8909,-4.8909,-4.8856,-4.8787,-4.8769,-4.8678,-4.8587,-4.8495,-4.8457,-4.8457,-4.8363,-4.8306,-4.8306,0.0,0.0,-4.8306,-4.8306,-4.8306,-4.8306,-4.8306,-4.8306,-4.8287,-4.821,-4.8172,-4.8113,-4.7548,-4.7356,-4.7102,-4.5649,-4.5167,-4.5086,-4.4858,-4.4776,-4.4737,-4.4626,-4.4615,-4.4615,-4.4615,-4.4615,-4.4615,-4.4615,-4.4615,-4.4564,-4.4429,-4.3284,-4.1847,-4.04,-4.0096,-4.0096,-4.0096,-4.0096,-4.0096,-4.0096,-4.0096,-4.0096,-4.0096,-3.9986,-3.9901,-3.9875,-3.9746,-3.9616,-3.9528,-3.9475,-3.9422,-3.9299,-3.9299,-3.9299,-3.9299,-3.9299,-3.9299,-3.9299,-3.9175,-3.9121,-3.9121,-3.8351,-3.7764,-3.737,-3.66,-3.6022,-4.3538,-4.4177,-4.4501,-4.4501,-4.4182,-4.3764,-4.3388,-4.2618,-4.1773,-4.0966,-4.0459,-4.0059,-3.9664,-4.0521,-4.1411,-4.1795,-4.2785,-4.3666,-4.4045,-4.4779,-4.5602,-4.6401,-4.7218,-4.8017,-4.8816,-4.8909,-4.8909,0.0,0.0,0.0,-4.8909,-4.8909,-4.8909,-4.8909,-4.8909,-4.8891,-4.8839,-4.8822,-4.8769,-4.8715,-4.8606,-4.8532,-4.8513,-4.8438,-4.8363,-4.8306,0.0,0.0,-4.8306,-4.8306,-4.8306,-4.8306,-4.8306,-4.8306,-4.8306,-4.8306,-4.8306,-4.823,-4.7775,-4.7611,-4.7424,-4.6406,-4.5852,-4.5546,-4.5416,-4.5159,-4.4886,-4.4737,-4.4709,-4.4682,-4.4626,-4.4615,-4.4615,-4.4615,-4.4265,-4.3859,-4.347,-4.2506,-4.139,-4.0316,-4.0096,-4.0096,-4.0096,-4.0096,-4.0096,-4.0096,-4.0096,-4.0096,-4.0096,-4.0037,-4.0011,-4.0011,-3.9884,-3.9746,-3.9616,-3.9537,-3.9448,-3.9299,-3.9299,-3.9299,-3.9299,-3.9299,-3.9299,-3.9299,-3.9299,-3.9299,-3.9299,-3.8618,-3.8322,-3.8355,-3.7011,-3.643,-4.2787,-4.3482,-4.3956,-4.3956,-4.3501,-4.2975,-4.2787,-4.1755,-4.0741,-4.0572,-4.004,-3.9589,-3.9589,-4.0215,-4.0988,-4.1761,-4.2492,-4.3245,-4.4087,-4.4696,-4.543,-4.6382,-4.7051,-4.7831,-4.8816,-4.8909,0.0,0.0,0.0,0.0,-4.8909,-4.8909,-4.8909,-4.8909,-4.8909,-4.8909,-4.8909,-4.8857,-4.8822,-4.8822,-4.8715,-4.8624,-4.855,-4.8531,-4.8438,-4.8343,0.0,0.0,0.0,-4.8306,-4.8306,-4.8306,-4.8306,-4.8306,-4.8306,-4.8306,-4.8306,-4.8248,-4.7877,-4.7754,-4.7674,-4.7313,-4.6712,-4.6091,-4.595,-4.5554,-4.515,-4.4896,-4.4831,-4.4793,-4.4682,-4.4626,-4.4615,-4.4615,-4.3995,-4.3217,-4.2455,-4.1711,-4.0984,-4.0248,-4.0096,-4.0096,-4.0096,-4.0096,-4.0096,-4.0096,-4.0096,-4.0096,-4.0096,-4.0096,-4.0096,-4.0096,-4.0011,-3.9884,-3.9755,-3.9642,-3.9528,-3.9352,-3.9325,-3.9325,-3.9299,-3.9299,-3.9299,-3.9299,-3.9299,-3.9299,-3.9299,-3.8772,-3.8717,-3.905,-3.7517,-3.6951,-4.1892,-4.2173,-4.223,-4.223,-4.2173,-4.1929,-4.121,-4.091,-4.0591,-3.9871,-3.9646,-3.9589,-3.9589,-4.0253,-4.1034,-4.1774,-4.2627,-4.3413,-4.4102,-4.4258,-4.4842,-4.6325,-4.6568,-4.7218,-4.876,-4.8909,0.0,0.0,0.0,0.0,0.0,-4.8909,-4.8909,-4.8909,-4.8909,-4.8909,-4.8909,-4.8891,-4.8891,-4.8891,-4.8822,-4.8787,-4.8769,-4.8569,-4.8476,-4.8476,0.0,0.0,0.0,-4.8306,-4.8306,-4.8306,-4.8306,-4.8306,-4.8306,-4.8306,-4.8306,-4.8287,-4.8267,-4.8248,-4.823,-4.819,-4.7548,-4.6683,-4.6074,-4.5868,-4.5691,-4.515,-4.4886,-4.482,-4.4776,-4.4682,-4.4615,-4.4615,-4.3995,-4.3217,-4.2455,-4.1711,-4.0984,-4.0248,-4.0096,-4.0096,-4.0096,-4.0096,-4.0096,-4.0096,-4.0096,-4.0096,-4.0096,-4.0096,-4.0096,-4.0096,-4.007,-4.0037,-3.9901,-3.9875,-3.9746,-3.9501,-3.9475,-3.9448,-3.9299,-3.9299,-3.9299,-3.9299,-3.9299,-3.9299,-3.9299,-3.9245,-3.8942,-3.8379,-3.8193,-3.7531,-4.106,-4.1629,-4.2004,-4.2004,-4.1629,-4.1191,-4.0872,-4.0422,-3.9984,-3.9664,-3.9589,-3.9589,-3.9589,-3.9871,-4.0497,-4.1772,-4.2219,-4.2871,-4.4142,-4.4304,-4.4639,-4.5717,-4.6278,-4.6989,0.0,0.0,0.0,0.0,0.0,0.0,0.0,-4.8909,-4.8909,-4.8909,-4.8909,-4.8909,-4.8909,-4.8909,-4.8909,-4.8909,-4.8874,-4.884,-4.8787,-4.8715,-4.8606,-4.8494,0.0,0.0,0.0,-4.8306,-4.8306,-4.8306,-4.8306,-4.8306,-4.8306,-4.8306,-4.8306,-4.8306,-4.8306,-4.8306,-4.8306,-4.8306,-4.8053,-4.7632,-4.7102,-4.6717,-4.6358,-4.5734,-4.5503,-4.5363,-4.4923,-4.4709,-4.4615,-4.4615,-4.3639,-4.2658,-4.2354,-4.1356,-4.0468,-4.0163,-4.0096,-4.0096,-4.0096,-4.0096,-4.0096,-4.0096,-4.0096,-4.0096,-4.0096,-4.0096,-4.0096,-4.0096,-4.0096,-4.0062,-3.9901,-3.9901,-3.9824,-3.9642,-3.9616,-3.9616,-3.9547,-3.9458,-3.9422,-3.9422,-3.9325,-3.9299,-3.9299,-3.9299,-3.9148,-3.8898,-3.8507,-3.8023,-3.9915,-4.0666,-4.1304,-4.1304,-4.0854,-4.044,-4.044,-4.0021,-3.9589,-3.9589,-3.9589,-3.9589,-3.9589,-3.9589,-4.0059,-4.1423,-4.1815,-4.2425,-4.3854,-4.4209,-4.4599,-4.5329,0.0,-4.6922,0.0,-4.8443,0.0,0.0,0.0,0.0,0.0,-4.8909,-4.8909,-4.8909,-4.8909,-4.8909,-4.8909,-4.8909,-4.8909,-4.8909,-4.8909,-4.8874,-4.884,-4.8804,-4.8715,0.0,0.0,0.0,0.0,-4.8306,-4.8306,-4.8306,-4.8306,-4.8306,-4.8306,-4.8306,-4.8306,-4.8306,-4.8306,-4.8306,-4.8306,-4.8306,-4.8306,-4.8248,-4.7915,-4.7485,-4.6981,-4.6382,-4.6123,-4.5943,-4.5328,-4.5106,-4.5025,-4.5025,-4.3773,-4.2533,-4.2533,-4.1231,-4.0096,-4.0096,-4.0096,-4.0096,-4.0096,-4.0096,-4.0096,-4.0096,-4.0096,-4.0096,-4.0096,-4.0096,-4.0096,-4.0096,-4.0096,-4.0062,-3.9977,-3.9961,-3.9884,-3.9755,-3.9755,-3.9729,-3.9703,-3.9616,-3.9563,-3.9563,-3.9458,-3.9432,-3.9432,-3.9432,-3.9405,-3.9352,-3.8854,-3.8535,-3.8319,-3.8957,-3.9627,-3.9627,-3.9627,-3.9608,-3.9608,-3.9608,-3.9589,-3.9589,-3.9589,-3.9589,-3.9589,-3.9589,-3.9871,-4.0685,-4.1479,-4.2278,-4.3105,-4.3896,-4.4668,-4.5421,-4.6209,-4.6983,-4.7723,0.0,0.0,0.0,0.0,0.0,0.0,0.0,-4.8909,-4.8909,-4.8909,-4.8909,-4.8909,-4.8909,-4.8909,-4.8909,-4.8909,-4.8909,-4.8909,-4.884,0.0,0.0,0.0,0.0,0.0,-4.8363,-4.8306,-4.8306,-4.8306,-4.8306,-4.8306,-4.8306,-4.8306,-4.8306,-4.8306,-4.8306,-4.8306,-4.8306,-4.8306,-4.8306,-4.8287,-4.7975,-4.7485,-4.7004,-4.6707,-4.643,-4.6165,-4.6091,-4.6074,-4.6074,-4.455,-4.3093,-4.3093,-4.1518,-4.0096,-4.0096,-4.0096,-4.0096,-4.0096,-4.0096,-4.0096,-4.0096,-4.0096,-4.0096,-4.0096,-4.0096,-4.0096,-4.0096,-4.0096,-4.0096,-4.0096,-4.0096,-4.0037,-3.9901,-3.9901,-3.9849,-3.9703,-3.9703,-3.9703,-3.9703,-3.9703,-3.9703,-3.9703,-3.9703,-3.9642,-3.9501,-3.9501,-3.9077,-3.8,-3.8507,-3.8845,-3.9458,-3.9589,-3.9589,-3.9589,-3.9589,-3.9589,-3.9589,-3.9589,-3.9589,-3.9589,-3.9589,-3.9871,-4.0666,-4.1479,-4.2305,-4.3154,-4.3947,-4.4538,-4.4743,-4.5857,-4.7178,0.0,0.0,0.0,0.0,0.0,0.0,0.0,0.0,-4.8909,-4.8909,-4.8909,-4.8909,-4.8909,-4.8909,-4.8909,-4.8909,-4.8909,-4.8909,-4.8909,-4.8874,0.0,0.0,0.0,0.0,0.0,-4.8457,-4.8438,-4.8438,-4.8343,-4.8306,-4.8306,-4.8306,-4.8306,-4.8306,-4.8306,-4.8306,-4.8306,-4.8306,-4.8306,-4.8306,-4.8306,-4.8191,-4.7975,-4.7506,-4.6941,-4.6478,-4.6406,-4.5968,-4.558,-4.5727,-4.4105,-4.2465,-4.2132,-4.1036,-4.0096,-4.0096,-4.0096,-4.0096,-4.0096,-4.0096,-4.0096,-4.0096,-4.0096,-4.0096,-4.0096,-4.0096,-4.0096,-4.0096,-4.0096,-4.0096,-4.0096,-4.0096,-4.0087,-4.0037,-4.0037,-4.0011,-3.9986,-3.9884,-3.9849,-3.9849,-3.9755,-3.9703,-3.9703,-3.9616,-3.9484,-3.9352,-3.9352,-3.9245,-3.7493,-3.8075,-3.8507,-3.9383,-3.9589,-3.9589,-3.9589,-3.9589,-3.9589,-3.9589,-3.9589,-3.9589,-3.9589,-3.9589,-3.9758,-4.0284,-4.1285,-4.2192,-4.2731,-4.3801,-4.4599,-4.4852,0.0,0.0,0.0,0.0,0.0,0.0,0.0,0.0,0.0,0.0,-4.8909,-4.8909,-4.8909,-4.8909,-4.8909,-4.8909,-4.8909,-4.8909,-4.8909,-4.8909,-4.8909,0.0,0.0,0.0,0.0,0.0,0.0,-4.8532,-4.8457,-4.8419,-4.8325,-4.8306,-4.8306,-4.8306,-4.8306,-4.8306,-4.8306,-4.8306,-4.8306,-4.8306,-4.8306,-4.8306,-4.8306,-4.8306,-4.823,-4.7933,-4.7503,-4.7138,-4.7093,-4.6531,-4.601,-4.614,-4.447,-4.2732,-4.227,-4.1231,-4.0303,-4.0121,-4.0096,-4.0096,-4.0096,-4.0096,-4.0096,-4.0096,-4.0096,-4.0096,-4.0096,-4.0096,-4.0096,-4.0096,-4.0096,-4.0096,-4.0096,-4.0096,-4.0096,-4.0096,-4.0096,-4.0096,-4.0096,-4.0011,-3.9977,-3.9977,-3.9884,-3.9858,-3.9858,-3.972,-3.959,-3.9458,-3.9405,-3.9352,0.0,-3.7681,-3.8507,-3.9383,-3.9589,-3.9589,-3.9589,-3.9589,0.0,-3.9589,-3.9589,-3.9589,-3.9589,-3.9589,-3.9627,-3.9683,-4.0985,-4.2023,-4.2079,-4.3468,0.0,0.0,-4.6356,0.0,0.0,0.0,0.0,0.0,0.0,0.0,0.0,0.0,0.0,-4.8909,-4.8909,-4.8909,-4.8909,-4.8909,-4.8909,-4.8909,-4.8909,-4.8909,-4.8909,0.0,0.0,0.0,0.0,0.0,0.0,-4.855,-4.842,-4.8325,-4.8306,-4.8306,-4.8306,-4.8306,-4.8306,-4.8306,-4.8306,-4.8306,-4.8306,-4.8306,-4.8306,-4.8306,-4.8306,-4.8306,-4.8287,-4.8208,-4.8207,-4.8168,-4.805,-4.7563,-4.7089,-4.7089,-4.5407,-4.3699,-4.3266,-4.195,-4.0731,-4.0279,-4.0196,-4.0196,-4.0196,-4.0196,-4.0196,-4.0146,-4.0146,-4.0146,-4.0096,-4.0096,-4.0096,-4.0096,-4.0096,-4.0096,-4.0096,-4.0096,-4.0096,-4.0096,-4.0096,-4.0096,-4.0096,-4.0096,-4.0096,-4.0096,-4.0096,-4.0113,-4.0087,-3.9961,-3.9833,-3.9703,-3.9563,-3.9432,-3.6885,0.0,-3.8507,-3.9383,-3.9589,-3.9589,0.0,-3.9589,-3.9589,-3.9589,-3.9589,-3.9589,-3.9589,-3.9589,-3.9796,-4.0422,-4.136,-4.223,-4.29,-4.3857,0.0,-4.5604,-4.6356,0.0,0.0,0.0,0.0,0.0,0.0,0.0,0.0,0.0,0.0,-4.8909,-4.8909,-4.8909,-4.8909,-4.8909,-4.8909,-4.8909,-4.8909,-4.8909,-4.8909,0.0,0.0,0.0,0.0,0.0,0.0,-4.8642,-4.8569,-4.8514,-4.8363,-4.8306,-4.8306,-4.8306,-4.8306,-4.8306,-4.8306,-4.8306,-4.8306,-4.8306,-4.8306,-4.8306,-4.8306,-4.8306,-4.8287,-4.8267,-4.8228,-4.8187,-4.8168,-4.756,-4.6948,-4.6948,-4.5503,-4.4029,-4.3711,-4.2507,-4.1428,-4.1208,-4.1185,-4.1185,-4.1185,-4.1185,-4.1047,-4.0683,-4.0652,-4.0507,-4.0146,-4.0096,-4.0096,-4.0096,-4.0096,-4.0096,-4.0096,-4.0096,-4.0096,-4.0096,-4.0096,-4.0096,-4.0096,-4.0096,-4.0096,-4.0096,-4.0096,-4.0062,-3.9952,-3.9926,-3.9833,-3.9703,-3.9677,-3.9625,-3.6885,-3.7681,-3.8507,-3.9383,-3.9589,-3.9589,-3.9589,-3.9589,-3.9589,-3.9589,-3.9589,-3.9589,-3.9589,-3.9589,-3.9871,-4.0666,-4.1479,-4.2436,0.0,0.0,-4.4706,-4.5219,-4.5983,0.0,0.0,0.0,0.0,0.0,0.0,0.0,0.0,0.0,0.0,0.0,-4.786,-4.8147,-4.889,-4.8909,-4.8909,-4.8909,-4.8909,-4.8909,-4.8909,0.0,0.0,0.0,0.0,0.0,-4.8857,-4.8732,-4.8642,-4.855,-4.8438,-4.8363,-4.8306,-4.8306,-4.8306,-4.8306,-4.8306,-4.8306,-4.8306,-4.8306,-4.8306,-4.8306,-4.8306,-4.8306,-4.8306,-4.8306,-4.8267,-4.8247,-4.8247,-4.7702,-4.7097,-4.7014,-4.5717,-4.4333,-4.3867,-4.2837,-4.1906,-4.1569,-4.1503,-4.1503,-4.1503,-4.1503,-4.1415,-4.1162,-4.1116,-4.1042,-4.0784,-4.0737,-4.0737,-4.0737,-4.0538,-4.0427,-4.0427,-4.0204,-4.0096,-4.0096,-4.0096,-4.0096,-4.0096,-4.0096,-4.0096,-4.0096,-4.0096,-4.0045,-3.9986,-3.9986,-3.991,-3.9781,-3.9729,-3.9651,-3.6885,-3.7681,-3.8507,-3.9383,-3.9589,-3.9589,-3.9589,-3.9589,-3.9589,-3.9589,-3.9589,-3.9589,-3.9589,-3.9589,-3.9908,-4.0835,-4.176,0.0,-4.4294,-4.4501,-4.4573,-4.4782,0.0,0.0,0.0,0.0,0.0,0.0,0.0,0.0,0.0,0.0,0.0,0.0,-4.6694,-4.7227,-4.8568,-4.8554,-4.8537,-4.8537,-4.8667,-4.8723,-4.8723,-4.8834,0.0,0.0,0.0,0.0,-4.8822,-4.8804,-4.8697,-4.8532,-4.8513,-4.8438,-4.8325,-4.8325,-4.8306,-4.8306,-4.8306,-4.8306,-4.8306,-4.8306,-4.8306,-4.8306,-4.8306,-4.8306,-4.8306,-4.8306,-4.8306,-4.8306,-4.8306,-4.7917,-4.7461,-4.7179,-4.5802,-4.4417,-4.3932,-4.3117,-4.2338,-4.1825,-4.17,-4.17,-4.17,-4.17,-4.1678,-4.1613,-4.1609,-4.1569,-4.1503,-4.1503,-4.1503,-4.1503,-4.1088,-4.0802,-4.0802,-4.0377,-4.0096,-4.0096,-4.0096,-4.0096,-4.0096,-4.0096,-4.0096,-4.0096,-4.0096,-4.0096,-4.0096,-4.0096,-4.0037,-3.9926,-3.9807,-3.9703,-3.6885,-3.7681,-3.8507,-3.9383,-3.9589,-3.9589,-3.9589,-3.9589,-3.9589,-3.9589,-3.9589,-3.9589,-3.9589,-3.9589,-4.0096,-4.1573,-4.3112,-4.42,0.0,0.0,-4.4573,0.0,0.0,0.0,0.0,0.0,0.0,0.0,0.0,0.0,0.0,0.0,0.0,0.0,0.0,-4.696,-4.7203,-4.6975,-4.6865,-4.6884,-4.7553,-4.7887,-4.7906,-4.8593,-4.8909,0.0,0.0,0.0,-4.8874,-4.8822,-4.8787,-4.8733,-4.8624,-4.855,-4.8457,-4.8457,-4.84,-4.8306,-4.8306,-4.8306,-4.8306,-4.8306,-4.8306,-4.8306,-4.8306,-4.8306,-4.8306,-4.8306,-4.8306,-4.8306,-4.8306,-4.823,-4.7988,-4.7274,-4.5219,-4.3591,-4.4175,-4.3611,-4.2918,-4.2729,-4.2692,-4.2692,-4.2692,-4.2692,-4.2557,-4.2157,-4.2095,-4.1952,-4.1547,-4.1503,-4.1503,-4.1503,-4.1088,-4.0802,-4.0802,-4.0377,-4.0096,-4.0096,-4.0096,-4.0096,-4.0096,-4.0096,-4.0096,-4.0096,-4.0096,-4.0096,-4.0096,-4.0096,-4.007,-4.0087,-4.0062,-4.0037,-3.6753,-3.7373,-3.7962,-3.927,-3.9589,-3.9589,-3.9589,-3.9589,-3.9589,-3.9589,-3.9589,-3.9589,-3.9589,-3.9965,-4.0778,-4.2449,-4.3712,-4.4501,-4.4501,-4.4501,0.0,0.0,0.0,0.0,0.0,0.0,0.0,0.0,0.0,0.0,0.0,0.0,0.0,0.0,0.0,0.0,-4.5768,-4.5632,-4.5959,-4.6729,-4.7102,-4.7271,-4.7292,-4.7953,-4.8259,0.0,0.0,-4.8259,-4.8259,-4.8207,-4.8172,-4.8194,-4.8566,-4.8642,-4.855,-4.8513,-4.8419,-4.8306,-4.8306,-4.8306,-4.8306,-4.8306,-4.8306,-4.8306,-4.8306,-4.8306,-4.8306,-4.8306,-4.8306,-4.8306,-4.8306,-4.7994,-4.7517,-4.7003,-4.5407,-4.3962,-4.3852,-4.3506,-4.3196,-4.3031,-4.3012,-4.2994,-4.2901,-4.2901,-4.2825,-4.2614,-4.2595,-4.2498,-4.2279,-4.2259,-4.2259,-4.2259,-4.1609,-4.1185,-4.1185,-4.0531,-4.0096,-4.0096,-4.0096,-4.0096,-4.0096,-4.0096,-4.0096,-4.0096,-4.0096,-4.0096,-4.0096,-4.0096,-4.0096,-4.0096,-4.0037,-3.9986,-3.6404,-3.696,-3.7448,-3.8932,-3.9458,-3.9589,-3.9589,-3.9589,-3.9589,-3.9589,-3.9589,-3.9589,-3.9589,-4.0403,-4.1567,-4.305,-4.3989,-4.4501,-4.4501,0.0,0.0,0.0,0.0,0.0,0.0,0.0,0.0,0.0,0.0,0.0,0.0,0.0,0.0,0.0,0.0,0.0,-4.4931,-4.4919,-4.5426,-4.6403,-4.6591,-4.6685,-4.6708,-4.7255,-4.7502,-4.752,-4.7456,-4.7423,-4.7423,-4.7423,-4.7389,-4.7395,-4.8025,-4.8306,-4.8383,-4.8458,-4.8438,-4.8343,-4.8306,-4.8196,-4.8012,-4.8012,-4.7902,-4.7737,-4.7737,-4.7737,-4.7737,-4.7737,-4.7737,-4.7792,-4.7957,-4.7517,-4.6875,-4.636,-4.5278,-4.418,-4.3467,-4.334,-4.3305,-4.3142,-4.3104,-4.3067,-4.2957,-4.2919,-4.2901,-4.2901,-4.2901,-4.2901,-4.2901,-4.2901,-4.2901,-4.2901,-4.216,-4.1569,-4.1348,-4.0683,-4.0221,-4.0113,-4.0096,-4.0096,-4.0096,-4.0096,-4.0096,-4.0096,-4.0096,-4.0096,-4.0096,-4.0096,-4.0096,-4.0096,-3.9986,-3.9952,-3.5728,-3.6535,-3.7317,-3.8188,-3.9007,-3.9589,-3.9589,-3.9589,-3.9589,-3.9589,-3.9589,-3.9589,-3.9589,-4.0872,-4.2211,-4.3144,-4.3989,-4.4501,0.0,0.0,0.0,0.0,0.0,0.0,0.0,0.0,0.0,0.0,0.0,0.0,0.0,0.0,0.0,0.0,0.0,0.0,-4.5256,-4.5264,-4.5154,-4.4953,-4.5717,-4.6063,-4.6101,-4.6685,-4.6967,-4.6952,-4.668,-4.6587,-4.6587,-4.6587,-4.6587,-4.6587,-4.6643,-4.7077,-4.7751,-4.8311,-4.8476,-4.8457,-4.8325,-4.781,-4.7186,-4.7186,-4.6672,-4.6067,-4.6067,-4.6067,-4.6067,-4.6067,-4.6067,-4.625,-4.6984,-4.6967,-4.6415,-4.5149,-4.4108,-4.3397,-4.3395,-4.3305,-4.3214,-4.3196,-4.3142,-4.3104,-4.3086,-4.2975,-4.2901,-4.2901,-4.2901,-4.2901,-4.2901,-4.2901,-4.2901,-4.2901,-4.2458,-4.1803,-4.0926,-4.0778,-4.0556,-4.0121,-4.0096,-4.0096,-4.0096,-4.0096,-4.0096,-4.0096,-4.0096,-4.0096,-4.0096,-4.0096,-4.0096,-4.0096,-4.007,-4.0087,-3.5653,-3.6122,-3.6667,-3.7981,-3.8544,-3.892,-3.9477,-3.9589,-3.9589,-3.9589,-3.9589,-3.9908,-4.091,-4.2036,-4.3088,-4.3914,-4.4294,0.0,0.0,0.0,0.0,0.0,0.0,0.0,0.0,0.0,0.0,0.0,0.0,0.0,0.0,0.0,0.0,0.0,0.0,0.0,0.0,-4.5545,-4.5493,-4.5362,-4.5456,-4.5498,-4.5525,-4.6076,-4.6342,-4.6329,-4.6219,-4.6096,-4.5937,-4.5937,-4.5867,-4.5788,-4.629,-4.663,-4.6823,-4.7052,-4.711,-4.7057,-4.6967,-4.6728,-4.6452,-4.6379,-4.6159,-4.5902,-4.5902,-4.5902,-4.5902,-4.5902,-4.5535,-4.5351,-4.614,-4.592,-4.5332,-4.4819,-4.405,-4.3429,-4.3464,-4.3428,-4.3375,-4.334,-4.3305,-4.3269,-4.3178,-4.3123,-4.3068,-4.303,-4.3012,-4.2994,-4.2901,-4.2901,-4.2901,-4.2901,-4.2478,-4.1931,-4.1298,-4.123,-4.1162,-4.0978,-4.0434,-4.0096,-4.0096,-4.0096,-4.0096,-4.0096,-4.0096,-4.0096,-4.0096,-4.0096,-4.0096,-4.0096,-4.0096,-4.0096,-3.5334,-3.5691,-3.616,-3.7268,-3.7925,-3.8469,-3.9063,-3.9401,-3.9589,-3.9589,-3.9796,-4.0491,-4.2098,-4.29,-4.3557,0.0,0.0,0.0,0.0,0.0,0.0,0.0,0.0,0.0,0.0,0.0,0.0,0.0,0.0,0.0,0.0,0.0,0.0,0.0,0.0,0.0,0.0,-4.5596,-4.5588,-4.531,-4.5349,-4.5371,-4.5361,-4.5632,-4.5751,-4.5751,-4.5665,-4.5468,-4.5228,-4.5228,-4.5077,-4.4971,-4.5788,-4.6071,-4.6005,-4.6212,-4.6272,-4.6222,-4.6153,-4.5935,-4.5678,-4.5588,-4.5369,-4.5131,-4.5131,-4.5131,-4.5131,-4.5131,-4.4745,-4.4452,-4.5002,-4.4727,-4.4323,-4.4323,-4.3901,-4.3515,-4.3515,-4.3515,-4.3497,-4.3446,-4.3411,-4.3358,-4.3269,-4.3214,-4.316,-4.3104,-4.3049,-4.2994,-4.2901,-4.2901,-4.2901,-4.2901,-4.2614,-4.2218,-4.176,-4.1717,-4.1656,-4.1503,-4.0902,-4.0483,-4.0328,-4.0171,-4.0096,-4.0096,-4.0096,-4.0096,-4.0096,-4.0096,-4.0096,-4.0096,-4.0096,-4.0096,-3.4612,-3.5221,-3.5897,-3.5897,-3.7099,-3.83,-3.83,-3.8957,-3.9589,-3.9608,-4.0253,-4.1323,-4.2994,-4.3313,-4.3576,-4.4369,0.0,0.0,0.0,0.0,0.0,0.0,0.0,0.0,0.0,0.0,0.0,0.0,0.0,0.0,0.0,0.0,0.0,0.0,0.0,0.0,0.0,-4.5397,-4.5356,-4.4518,-4.5318,-4.5703,-4.5693,-4.5352,-4.5201,-4.5191,-4.4908,-4.465,-4.4397,-4.4402,-4.425,-4.4098,-4.4952,-4.5287,-4.5379,-4.6023,-4.6286,-4.6269,-4.6204,-4.5564,-4.4776,-4.4776,-4.4191,-4.3515,-4.3515,-4.3515,-4.3515,-4.3515,-4.3515,-4.3515,-4.3515,-4.3515,-4.3515,-4.3515,-4.3515,-4.3515,-4.3515,-4.3515,-4.3515,-4.3515,-4.3446,-4.3394,-4.3394,-4.3233,-4.3104,-4.3104,-4.2994,-4.2901,-4.2901,-4.2901,-4.2901,-4.2901,-4.2901,-4.2711,-4.2257,-4.2216,-4.1994,-4.1547,-4.1503,-4.1298,-4.0825,-4.0353,-4.0113,-4.0113,-4.0096,-4.0096,-4.0096,-4.0096,-4.0096,-4.0096,-4.0096,-4.0096,-3.4612,-3.4789,-3.5127,-3.5747,-3.6686,-3.7606,-3.8169,-3.8957,-3.9758,-4.034,-4.1079,-4.1967,-4.3106,-4.3764,0.0,0.0,0.0,0.0,0.0,0.0,0.0,0.0,0.0,0.0,0.0,0.0,0.0,0.0,0.0,0.0,0.0,0.0,0.0,0.0,0.0,0.0,0.0,0.0,-4.4831,-4.458,-4.5402,-4.5754,-4.5701,-4.5594,-4.5541,-4.5485,-4.54,-4.5096,-4.465,-4.4279,-4.4079,-4.4023,-4.4283,-4.4395,-4.4413,-4.4605,-4.4681,-4.4681,-4.4621,-4.4356,-4.407,-4.3984,-4.375,-4.3515,-4.3515,-4.3515,-4.3515,-4.3515,-4.3515,-4.3515,-4.3515,-4.3515,-4.3515,-4.3515,-4.3515,-4.3515,-4.3515,-4.3515,-4.3515,-4.3515,-4.348,-4.3463,-4.3463,-4.341,-4.334,-4.3196,-4.3142,-4.3068,-4.2919,-4.2901,-4.2901,-4.2901,-4.2901,-4.2844,-4.2692,-4.2692,-4.2616,-4.248,-4.216,-4.1782,-4.1321,-4.0832,-4.0604,-4.0604,-4.0254,-4.0096,-4.0096,-4.0096,-4.0096,-4.0096,-4.0096,-4.0096,-3.4612,-3.4612,-3.4733,-3.524,-3.6246,-3.7411,-3.8544,-3.9214,-3.9927,-4.1041,-4.1667,-4.2361,-4.3557,-4.4177,0.0,0.0,0.0,0.0,0.0,0.0,0.0,0.0,0.0,0.0,0.0,0.0,0.0,0.0,0.0,0.0,0.0,0.0,0.0,0.0,0.0,0.0,0.0,0.0,0.0,-4.4091,-4.4928,-4.5116,-4.472,-4.5406,-4.5489,-4.5141,-4.5341,-4.5201,-4.4763,-4.4332,-4.4109,-4.4005,-4.4005,-4.4005,-4.4005,-4.4005,-4.4005,-4.3989,-4.3942,-4.3883,-4.3788,-4.3719,-4.36,-4.3515,-4.3515,-4.3515,-4.3515,-4.3515,-4.3515,-4.3515,-4.3515,-4.3515,-4.3515,-4.3515,-4.3515,-4.3515,-4.3515,-4.3515,-4.3515,-4.3515,-4.3515,-4.3515,-4.3515,-4.348,-4.341,-4.3286,-4.3233,-4.316,-4.2994,-4.2975,-4.2957,-4.2919,-4.2901,-4.2901,-4.2901,-4.2901,-4.2901,-4.2901,-4.2634,-4.234,-4.2077,-4.1432,-4.1088,-4.1088,-4.0808,-4.0563,-4.0377,-4.0377,-4.0279,-4.0096,-4.0096,-4.0096,-3.4612,-3.4612,-3.4612,-3.4612,-3.5871,-3.7542,-3.9214,-3.9589,-4.004,-4.1573,-4.1948,-4.2492,-4.4088,-4.4444,0.0,0.0,0.0,0.0,0.0,0.0,0.0,0.0,0.0,0.0,0.0,0.0,0.0,0.0,0.0,0.0,0.0,0.0,0.0,0.0,0.0,0.0,0.0,0.0,0.0,0.0,-4.4091,-4.4,-4.3134,-4.4739,-4.504,-4.432,-4.4777,-4.4824,-4.4592,-4.4395,-4.4162,-4.3952,-4.4011,-4.4033,-4.4033,-4.402,-4.4005,-4.4005,-4.4005,-4.3913,-4.3804,-4.3804,-4.3669,-4.3496,-4.3496,-4.3515,-4.3515,-4.3515,-4.3515,-4.3515,-4.3515,-4.3515,-4.3515,-4.3515,-4.3515,-4.3515,-4.3515,-4.3515,-4.3515,-4.3515,-4.3515,-4.3515,-4.3515,-4.3464,-4.3412,-4.3394,-4.3287,-4.3178,-4.3123,-4.3104,-4.3068,-4.2938,-4.2938,-4.292,-4.2919,-4.2919,-4.2901,-4.2901,-4.2901,-4.2901,-4.2901,-4.2035,-4.1569,-4.1569,-4.1481,-4.123,-4.0802,-4.0754,-4.0507,-4.0096,-4.0096,-4.0096,-3.4612,-3.4612,-3.4612,-3.4612,-3.5871,-3.7542,-3.9214,-3.9589,-3.989,-4.0854,-4.1554,-4.2323,-4.3369,-4.4083,0.0,0.0,0.0,0.0,0.0,0.0,0.0,0.0,0.0,0.0,0.0,0.0,0.0,0.0,0.0,0.0,0.0,0.0,0.0,0.0,0.0,0.0,-4.3305,-4.2976,-4.2976,0.0,-4.3498,-4.3124,-4.2286,-4.3287,-4.3617,-4.3374,-4.3274,-4.3202,-4.3177,-4.3538,-4.3668,-4.3648,-4.4125,-4.4318,-4.4275,-4.4079,-4.4005,-4.4005,-4.4005,-4.3961,-4.3867,-4.382,-4.3666,-4.351,-4.3513,-4.3515,-4.3515,-4.3515,-4.3515,-4.3515,-4.3515,-4.3515,-4.3515,-4.3515,-4.3515,-4.3515,-4.3515,-4.3515,-4.3515,-4.3515,-4.3515,-4.3515,-4.3515,-4.3497,-4.3445,-4.3412,-4.3287,-4.3178,-4.3178,-4.3178,-4.3178,-4.3123,-4.3123,-4.3123,-4.3049,-4.3049,-4.3012,-4.2919,-4.2901,-4.2901,-4.2901,-4.234,-4.2053,-4.2053,-4.1321,-4.0902,-4.0802,-4.041,-4.0196,-4.0096,-4.0096,-4.0096,-3.455,-3.4591,-3.4695,-3.5108,-3.6171,-3.7429,-3.8688,-3.9308,-3.9758,-4.0273,-4.0942,-4.1718,-4.2655,0.0,0.0,0.0,0.0,0.0,0.0,0.0,0.0,0.0,0.0,0.0,0.0,0.0,0.0,0.0,0.0,0.0,0.0,0.0,0.0,0.0,0.0,0.0,-4.2667,-4.2647,-4.2647,-4.2686,-4.2686,-4.2215,-4.1403,-4.221,-4.2784,-4.3142,-4.2981,-4.2814,-4.2726,-4.3001,-4.3031,-4.2953,-4.3265,-4.3384,-4.3402,-4.3568,-4.3621,-4.3662,-4.3903,-4.3961,-4.3899,-4.3904,-4.3753,-4.3545,-4.3548,-4.3532,-4.3515,-4.3515,-4.3515,-4.3515,-4.3515,-4.3515,-4.3515,-4.3515,-4.3515,-4.3515,-4.3515,-4.3515,-4.3515,-4.3515,-4.3515,-4.3515,-4.3515,-4.3515,-4.3497,-4.3464,-4.3393,-4.334,-4.3286,-4.3305,-4.3269,-4.3214,-4.316,-4.3142,-4.3104,-4.303,-4.2975,-4.2901,-4.2901,-4.2901,-4.2901,-4.2673,-4.2555,-4.2555,-4.2056,-4.1569,-4.1139,-4.0902,-4.0538,-4.0096,-4.0096,-4.0096,-3.4517,-3.4539,-3.4797,-3.5638,-3.6362,-3.7125,-3.8082,-3.8845,-3.9474,-3.984,-4.0415,-4.1116,0.0,0.0,0.0,0.0,0.0,0.0,0.0,0.0,0.0,0.0,0.0,0.0,0.0,0.0,0.0,0.0,0.0,0.0,0.0,0.0,0.0,0.0,0.0,-4.1854,-4.2009,-4.2589,-4.2589,-4.2009,-4.1854,-4.1416,-4.0745,-4.14,-4.2073,-4.276,-4.2683,-4.2539,-4.2326,-4.2479,-4.2408,-4.2218,-4.2325,-4.2371,-4.245,-4.3026,-4.3241,-4.3327,-4.3911,-4.4008,-4.3918,-4.3992,-4.3849,-4.3649,-4.3651,-4.3583,-4.3532,-4.3532,-4.3515,-4.3515,-4.3515,-4.3515,-4.3515,-4.3515,-4.3515,-4.3515,-4.3515,-4.3515,-4.3515,-4.3515,-4.3515,-4.3515,-4.3515,-4.3515,-4.3515,-4.3515,-4.3515,-4.348,-4.3411,-4.3429,-4.3376,-4.325,-4.3215,-4.3142,-4.3123,-4.3031,-4.2957,-4.2901,-4.2901,-4.2901,-4.2901,-4.2901,-4.2901,-4.2901,-4.2825,-4.24,-4.1613,-4.1547,-4.1094,-4.0336,-4.0254,-4.0221,-3.4506,-3.4506,-3.4701,-3.5516,-3.5857,-3.6361,-3.7859,-3.8358,-3.8729,-3.9697,-4.0514,0.0,0.0,0.0,0.0,0.0,0.0,0.0,0.0,0.0,0.0,0.0,0.0,0.0,0.0,0.0,0.0,0.0,0.0,0.0,0.0,-4.139,-4.0971,-4.0971,-4.0971,0.0,-4.199,-4.1409,-4.1429,-4.199,-4.1293,-4.0906,-4.0784,-4.0842,-4.0891,-4.0942,-4.0927,-4.0877,-4.0861,-4.1602,-4.1893,-4.1927,-4.2441,-4.2647,-4.2711,-4.3258,-4.3465,-4.356,-4.4273,-4.428,-4.3989,-4.4007,-4.3933,-4.3849,-4.3786,-4.3703,-4.3582,-4.3582,-4.3531,-4.3515,-4.3515,-4.3515,-4.3515,-4.3515,-4.3515,-4.3515,-4.3515,-4.3515,-4.3515,-4.3515,-4.3515,-4.3515,-4.3515,-4.3515,-4.3515,-4.3515,-4.3515,-4.3497,-4.3497,-4.3497,-4.348,-4.3444,-4.3463,-4.3375,-4.3196,-4.3178,-4.3087,-4.2901,-4.2901,-4.2901,-4.2901,-4.2901,-4.2901,-4.2901,-4.2498,-4.2218,-4.2115,-4.17,-4.1437,-4.1303,-4.0902,-4.0724,-3.445,-3.4427,-3.4479,-3.4871,-3.5362,-3.5928,-3.6638,-3.7168,-3.7819,-3.8896,0.0,0.0,0.0,0.0,0.0,0.0,0.0,0.0,0.0,0.0,0.0,0.0,0.0,0.0,0.0,0.0,0.0,0.0,0.0,0.0,-4.1332,-4.099,-4.0797,-4.0797,-4.0797,0.0,-4.1313,-4.099,-4.099,-4.1313,-4.0971,-4.0797,-4.0797,-4.0778,-4.072,-4.0646,-4.0622,-4.058,-4.0585,-4.092,-4.1066,-4.1096,-4.136,-4.1479,-4.1548,-4.2112,-4.2313,-4.2569,-4.4291,-4.4367,-4.3812,-4.4416,-4.4503,-4.4322,-4.4136,-4.4117,-4.4125,-4.398,-4.4023,-4.4065,-4.3836,-4.3772,-4.3742,-4.3548,-4.3649,-4.3732,-4.3531,-4.3515,-4.3515,-4.3515,-4.3515,-4.3515,-4.3515,-4.3515,-4.3515,-4.3515,-4.3515,-4.3515,-4.3515,-4.3515,-4.3515,-4.3515,-4.3463,-4.3411,-4.3323,-4.3251,-4.316,-4.3068,-4.3068,-4.305,-4.3012,-4.3012,-4.2975,-4.2901,-4.2692,-4.2458,-4.2198,-4.1994,-4.176,-4.1503,-4.1298,-4.1185,-3.4443,-3.4386,-3.4316,-3.4439,-3.4929,-3.5487,-3.5751,-3.631,-3.7028,0.0,0.0,0.0,0.0,0.0,0.0,0.0,0.0,0.0,0.0,0.0,0.0,0.0,0.0,0.0,0.0,0.0,0.0,0.0,0.0,0.0,-4.0797,-4.0797,-4.0797,-4.0797,-4.0797,-4.0797,-4.0797,-4.0797,-4.0797,-4.0797,-4.0797,-4.0797,-4.0797,-4.0797,-4.0778,-4.0726,-4.0646,-4.0622,-4.0607,-4.0558,-4.0523,-4.0496,-4.0496,-4.0496,-4.0577,-4.1252,-4.1494,-4.1781,-4.3713,-4.4041,-4.3715,-4.4429,-4.4699,-4.4676,-4.4498,-4.4519,-4.4585,-4.4388,-4.4452,-4.4527,-4.4223,-4.4136,-4.4061,-4.3791,-4.3921,-4.403,-4.3777,-4.3664,-4.3632,-4.3632,-4.3681,-4.3681,-4.3513,-4.3565,-4.3599,-4.3496,-4.3515,-4.3515,-4.3515,-4.3515,-4.3515,-4.3515,-4.3464,-4.3429,-4.3412,-4.3323,-4.3233,-4.3214,-4.3214,-4.3178,-4.3141,-4.3141,-4.3086,-4.2994,-4.2957,-4.2768,-4.2378,-4.2378,-4.2198,-4.1849,-4.1721,-4.1678,-3.4537,-3.4458,-3.434,-3.4539,-3.4615,-3.4917,-3.5931,-3.6264,-3.6559,0.0,0.0,0.0,0.0,0.0,0.0,0.0,0.0,0.0,0.0,0.0,0.0,0.0,0.0,0.0,0.0,0.0,0.0,0.0,0.0,0.0,-4.0797,-4.0797,-4.0797,-4.0797,-4.0797,-4.0797,-4.0797,-4.0797,-4.0797,-4.0797,-4.0797,-4.0797,-4.0797,-4.0797,-4.0797,-4.079,-4.0713,-4.0653,-4.0607,-4.0607,-4.0565,-4.0496,-4.0496,-4.0496,-4.0612,-4.1453,-4.178,-4.183,-4.2208,-4.3014,-4.3852,-4.3564,-4.4072,-4.4788,-4.4776,-4.4745,-4.4688,-4.4676,-4.4637,-4.458,-4.4506,-4.446,-4.4452,-4.4369,-4.4374,-4.4369,-4.4374,-4.4147,-4.3974,-4.3974,-4.4177,-4.4173,-4.3615,-4.3765,-4.3878,-4.3566,-4.3515,-4.3515,-4.3515,-4.3515,-4.3515,-4.3515,-4.3497,-4.3463,-4.3412,-4.3394,-4.334,-4.3214,-4.3214,-4.3196,-4.3178,-4.3178,-4.3196,-4.3178,-4.3123,-4.3012,-4.2863,-4.2863,-4.2844,-4.2825,-4.2378,-4.2157,-3.4752,-3.4733,-3.4701,-3.4762,-3.4792,-3.4878,-3.5277,-3.5382,-3.5628,0.0,0.0,0.0,0.0,0.0,0.0,0.0,0.0,0.0,0.0,0.0,0.0,0.0,0.0,0.0,0.0,0.0,0.0,0.0,0.0,0.0,-4.0797,-4.0797,-4.0797,-4.0797,-4.0797,-4.0797,-4.0797,-4.0797,-4.0797,-4.0797,-4.0797,-4.0797,-4.0797,-4.0797,-4.0797,-4.0797,-4.0759,-4.0726,-4.0653,-4.0629,-4.06,-4.0565,-4.0523,-4.0496,-4.0535,-4.0854,-4.0969,-4.1066,-4.1712,-4.22,-4.2628,-4.305,-4.3771,-4.4459,-4.4276,-4.472,-4.5243,-4.5074,-4.5129,-4.5201,-4.4943,-4.4884,-4.4861,-4.4751,-4.4599,-4.4559,-4.4898,-4.461,-4.4265,-4.4265,-4.4332,-4.4327,-4.4114,-4.403,-4.3958,-4.3846,-4.3632,-4.3515,-4.3515,-4.3515,-4.3515,-4.3515,-4.3515,-4.3497,-4.3481,-4.3463,-4.3445,-4.341,-4.3375,-4.3375,-4.3323,-4.3323,-4.3305,-4.3214,-4.3178,-4.3123,-4.303,-4.2938,-4.2901,-4.29,-4.2731,-4.2653,-3.4955,-3.4955,-3.4927,-3.4973,-3.501,-3.5019,-3.5089,-3.5098,-3.5278,0.0,0.0,0.0,0.0,0.0,0.0,0.0,0.0,0.0,0.0,0.0,0.0,0.0,0.0,0.0,0.0,0.0,0.0,0.0,0.0,0.0,-4.0797,-4.0797,-4.0797,-4.0797,-4.0797,-4.0797,-4.0797,-4.0797,-4.0797,-4.0797,-4.0797,-4.0797,-4.0797,-4.0797,-4.0797,-4.0797,-4.0797,-4.0752,-4.0694,-4.0646,-4.061,-4.0607,-4.0539,-4.0523,-4.0496,-4.0496,-4.0496,-4.0573,-4.1162,-4.1566,-4.1904,-4.2489,-4.322,-4.3906,-4.4001,-4.4565,-4.5203,-4.5295,-4.5457,-4.5531,-4.5302,-4.5222,-4.518,-4.5085,-4.4931,-4.4896,-4.5269,-4.4903,-4.4533,-4.4533,-4.463,-4.4604,-4.4322,-4.4192,-4.4079,-4.386,-4.3649,-4.3515,-4.3515,-4.3515,-4.3515,-4.3515,-4.3515,-4.3515,-4.3515,-4.3515,-4.3515,-4.3515,-4.3515,-4.348,-4.3429,-4.3429,-4.3375,-4.3286,-4.3286,-4.3251,-4.3196,-4.3068,-4.3013,-4.3013,-4.2975,-4.2938,0.0,0.0,0.0,-3.5149,-3.5209,-3.5258,-3.5465,0.0,-3.55,0.0,0.0,0.0,0.0,0.0,0.0,0.0,0.0,0.0,0.0,0.0,0.0,0.0,0.0,0.0,0.0,0.0,0.0,0.0,0.0,-4.0797,-4.0797,-4.0797,-4.0797,-4.0797,-4.0797,-4.0797,-4.0797,-4.0797,-4.0797,-4.0797,-4.0797,-4.0797,-4.0797,-4.0797,-4.0797,-4.0797,-4.0797,-4.0752,-4.07,-4.07,-4.066,-4.0607,-4.0607,-4.0565,-4.0496,-4.0496,-4.0496,-4.0496,-4.0496,-4.1046,-4.175,-4.175,-4.2354,-4.3201,-4.4028,-4.4278,-4.447,-4.5344,-4.5594,-4.5586,-4.5513,-4.5448,-4.541,-4.541,-4.541,-4.541,-4.541,-4.5085,-4.4831,-4.4831,-4.5087,-4.503,-4.4181,-4.425,-4.4198,-4.3631,-4.3531,-4.3513,-4.3513,-4.3513,-4.3496,-4.3496,-4.3515,-4.3515,-4.3515,-4.3515,-4.3515,-4.3515,-4.3515,-4.3515,-4.3515,-4.3515,-4.3515,-4.3515,-4.3429,-4.3412,-4.3412,-4.3269,-4.3214,-4.3196,-4.3123,-4.303,-3.5361,0.0,0.0,0.0,0.0,0.0,0.0,0.0,0.0,0.0,0.0,0.0,0.0,0.0,0.0,0.0,0.0,0.0,0.0,0.0,0.0,0.0,0.0,0.0,0.0,0.0,0.0,0.0,0.0,-4.0797,-4.0797,-4.0797,-4.0797,-4.0797,-4.0797,-4.0797,-4.0797,-4.0797,-4.0797,-4.0797,-4.0797,-4.0797,-4.0797,-4.0797,-4.0797,-4.0797,-4.0797,-4.079,-4.0778,-4.0726,-4.0687,-4.0666,-4.0629,-4.058,-4.0573,-4.0523,-4.0496,-4.0496,-4.0496,-4.0669,-4.0854,-4.0854,-4.145,-4.2316,-4.3162,-4.3835,-4.447,-4.5344,-4.5594,-4.5605,-4.5577,-4.5559,-4.5522,-4.5485,-4.5457,-4.5448,-4.541,-4.5301,-4.5227,-4.5227,-4.5298,-4.5277,-4.4995,-4.4801,-4.4637,-4.4479,-4.4285,-4.4158,-4.4158,-4.3983,-4.3862,-4.3862,-4.3649,-4.3515,-4.3515,-4.3515,-4.3515,-4.3515,-4.3515,-4.3515,-4.3515,-4.3515,-4.3515,-4.3515,-4.348,-4.3463,-4.3463,-4.3304,-4.3214,-4.3214,-4.3178,-4.316,-3.5479,-3.55,-3.55,-3.55,0.0,0.0,-3.55,-3.55,0.0,0.0,0.0,0.0,0.0,0.0,0.0,0.0,0.0,0.0,0.0,0.0,0.0,0.0,0.0,0.0,0.0,0.0,0.0,0.0,-3.9771,-4.0429,-4.0777,-4.0797,-4.0797,-4.0797,-4.0797,-4.0797,-4.0797,-4.0797,-4.0797,-4.0797,-4.0797,-4.0797,-4.0797,-4.0797,-4.0797,-4.0797,-4.0797,-4.0797,-4.079,-4.0752,-4.0733,-4.0694,-4.0653,-4.0617,-4.0607,-4.0565,-4.0531,-4.0496,-4.0496,-4.0496,-4.0496,-4.0496,-4.0835,-4.1412,-4.2297,-4.2893,-4.3508,-4.472,-4.5325,-4.5594,-4.5594,-4.5594,-4.5586,-4.5559,-4.5531,-4.5522,-4.5495,-4.5486,-4.5467,-4.5418,-4.5388,-4.5288,-4.5121,-4.4934,-4.4763,-4.465,-4.4493,-4.4397,-4.4397,-4.4246,-4.4181,-4.4181,-4.3996,-4.3871,-4.3871,-4.3779,-4.3716,-4.3716,-4.3565,-4.3515,-4.3515,-4.3515,-4.3515,-4.3515,-4.3515,-4.3515,-4.3515,-4.3375,-4.3322,-4.3269,-4.3269,-4.3251,-3.55,-3.5507,-3.5507,-3.55,-3.55,0.0,-3.55,-3.55,-3.55,0.0,0.0,0.0,0.0,0.0,0.0,0.0,0.0,0.0,0.0,0.0,0.0,0.0,0.0,0.0,0.0,0.0,-3.8057,-3.8057,-3.8856,-3.9733,-4.0603,-4.0661,-4.07,-4.0797,-4.0797,-4.0797,-4.0797,-4.0797,-4.0797,-4.0797,-4.0797,-4.0797,-4.0797,-4.0797,-4.0797,-4.0797,-4.0797,-4.0797,-4.0797,-4.0797,-4.0759,-4.0707,-4.07,-4.066,-4.0595,-4.0607,-4.0565,-4.0496,-4.0496,-4.0496,-4.0496,-4.0496,-4.0496,-4.0669,-4.1546,-4.1788,-4.2135,-4.372,-4.4778,-4.546,-4.546,-4.5537,-4.5594,-4.5594,-4.5594,-4.5594,-4.5594,-4.5586,-4.555,-4.5429,-4.5359,-4.5216,-4.4922,-4.4856,-4.4763,-4.4552,-4.4511,-4.4511,-4.4511,-4.4484,-4.4438,-4.4438,-4.4411,-4.4397,-4.4397,-4.4177,-4.4033,-4.4005,-4.3716,-4.3531,-4.3515,-4.3515,-4.3515,-4.3515,-4.3515,-4.3515,-4.3515,-4.3515,-4.3463,-4.3412,-4.3412,-4.3358,-3.552,-3.5508,-3.5509,-3.5507,0.0,0.0,-3.55,-3.55,-3.55,0.0,0.0,0.0,0.0,0.0,0.0,0.0,0.0,0.0,0.0,0.0,0.0,0.0,0.0,0.0,0.0,0.0,-3.7154,-3.7154,-3.7967,-3.8837,-3.9713,-3.9752,-4.0074,-4.0788,-4.0808,-4.0808,-4.0808,-4.0808,-4.0796,-4.0797,-4.0797,-4.0797,-4.0797,-4.0797,-4.0797,-4.0797,-4.0797,-4.0797,-4.0797,-4.0797,-4.079,-4.0784,-4.0713,-4.0654,-4.0593,-4.0603,-4.0565,-4.0496,-4.0496,-4.0496,-4.0496,-4.0496,-4.0496,-4.0669,-4.1546,-4.1788,-4.2,-4.3047,-4.3912,-4.4547,-4.4547,-4.5075,-4.5594,-4.5594,-4.5594,-4.5594,-4.5594,-4.5559,-4.5504,-4.5495,-4.5429,-4.5331,-4.5216,-4.5194,-4.5184,-4.514,-4.5109,-4.5109,-4.5109,-4.4887,-4.4714,-4.4714,-4.4519,-4.4397,-4.4397,-4.436,-4.4236,-4.4002,-4.3942,-4.3781,-4.3515,-4.3515,-4.3515,-4.3515,-4.3515,-4.3515,-4.3515,-4.3515,-4.3497,-4.348,-4.348,-4.3463,0.0,0.0,0.0,-3.5502,0.0,0.0,0.0,-3.55,-3.55,0.0,0.0,0.0,0.0,0.0,0.0,0.0,0.0,0.0,0.0,0.0,0.0,0.0,0.0,0.0,0.0,0.0,-3.6477,-3.6864,-3.7309,-3.7928,-3.8818,-3.9681,-4.0144,-4.0161,-4.0562,-4.0806,-4.0804,-4.0806,-4.0808,-4.0796,-4.0803,-4.0797,-4.0797,-4.0797,-4.0797,-4.0797,-4.0797,-4.0797,-4.0797,-4.0797,-4.0797,-4.079,-4.0752,-4.0707,-4.0654,-4.0612,-4.0576,-4.0558,-4.0504,-4.0496,-4.0496,-4.0496,-4.0496,-4.0573,-4.1027,-4.147,-4.1885,-4.2335,-4.3066,-4.3797,-4.4201,-4.4624,-4.5056,-4.5498,-4.5267,-4.496,-4.496,-4.4934,-4.4897,-4.4908,-4.5188,-4.5438,-4.5361,-4.5341,-4.536,-4.5348,-4.5348,-4.5338,-4.5307,-4.5143,-4.5045,-4.5045,-4.4941,-4.485,-4.485,-4.4695,-4.4533,-4.4402,-4.4279,-4.4117,-4.3965,-4.3828,-4.3666,-4.3496,-4.3515,-4.3515,-4.3515,-4.3515,-4.3515,-4.3515,-4.3515,-4.3515,0.0,0.0,0.0,0.0,0.0,-3.5494,0.0,0.0,0.0,0.0,0.0,0.0,0.0,0.0,0.0,0.0,0.0,0.0,0.0,0.0,0.0,0.0,0.0,0.0,0.0,0.0,-3.5974,-3.6613,-3.6671,-3.7038,-3.7903,-3.93,-3.9904,-3.9533,-4.0192,-4.0654,-4.0818,-4.0804,-4.08,-4.0794,-4.0809,-4.0797,-4.0797,-4.0797,-4.0797,-4.0797,-4.0797,-4.0797,-4.0797,-4.0797,-4.0797,-4.0797,-4.0797,-4.0752,-4.0694,-4.0628,-4.0612,-4.058,-4.0539,-4.0504,-4.0496,-4.0496,-4.0496,-4.0496,-4.0496,-4.0989,-4.1546,-4.1546,-4.2181,-4.3008,-4.3643,-4.3932,-4.4239,-4.496,-4.4586,-4.4066,-4.4066,-4.4066,-4.4115,-4.4273,-4.4821,-4.5245,-4.518,-4.5304,-4.5352,-4.5198,-4.5303,-4.5379,-4.5328,-4.5317,-4.5317,-4.5307,-4.5307,-4.5307,-4.5307,-4.5045,-4.4868,-4.48,-4.4599,-4.4452,-4.4397,-4.4192,-4.3923,-4.3599,-4.3599,-4.3565,-4.3515,-4.3515,-4.3515,-4.3515,-4.3515,-4.3515,0.0,0.0,0.0,0.0,-3.5502,0.0,0.0,0.0,0.0,-3.55,0.0,0.0,0.0,0.0,0.0,0.0,0.0,0.0,0.0,0.0,0.0,0.0,0.0,0.0,0.0,0.0,0.0,-3.582,-3.5839,-3.6187,-3.7,-3.7293,-3.8081,-3.9547,-3.9684,-4.0101,-4.0877,-4.0837,-4.0809,-4.0794,-4.0809,-4.0797,-4.0797,-4.0797,-4.0797,-4.0797,-4.0797,-4.0797,-4.0797,-4.0797,-4.0797,-4.0797,-4.0797,-4.0752,-4.07,-4.0694,-4.0646,-4.0607,-4.058,-4.0539,-4.0496,-4.0496,-4.0496,-4.0496,-4.0496,-4.0573,-4.065,-4.065,-4.1277,-4.1962,-4.2058,-4.2662,-4.3258,-4.3355,-4.3316,-4.3239,-4.3239,-4.3239,-4.3451,-4.4154,-4.4365,-4.4416,-4.4345,-4.4921,-4.5151,-4.4432,-4.493,-4.54,-4.5379,-4.5398,-4.5378,-4.5307,-4.5307,-4.5307,-4.5307,-4.5275,-4.5109,-4.4831,-4.4763,-4.465,-4.4397,-4.4374,-4.4217,-4.3958,-4.3942,-4.3798,-4.3515,-4.3515,-4.3515,-4.3515,-4.3515,-4.3515,0.0,0.0,0.0,0.0,0.0,0.0,-3.5509,0.0,-3.5502,0.0,0.0,0.0,0.0,0.0,0.0,0.0,0.0,0.0,0.0,0.0,0.0,0.0,0.0,0.0,0.0,0.0,0.0,0.0,0.0,-3.5839,-3.6187,-3.6718,-3.7345,-3.8078,-3.8583,-3.9282,-4.0189,-4.0145,-4.0333,-4.0804,-4.0794,-4.079,-4.0797,-4.0797,-4.0797,-4.0797,-4.0797,-4.0797,-4.0797,-4.0797,-4.0797,-4.0797,-4.0797,-4.0784,-4.0746,-4.0707,-4.068,-4.0653,-4.0612,-4.0576,-4.0539,-4.0504,-4.0496,-4.0496,-4.0496,-4.0496,-4.0496,-4.0496,-4.0766,-4.1162,-4.1681,-4.2058,-4.247,-4.2989,-4.272,-4.2354,-4.2354,-4.2354,-4.245,-4.2777,-4.3258,-4.3442,-4.29,-4.389,-4.4477,-4.3624,-4.3788,-4.4182,-4.4643,-4.47,-4.4873,-4.532,-4.5348,-4.5338,-4.5307,-4.5307,-4.5246,-4.5098,-4.5098,-4.4946,-4.4637,-4.4624,-4.4511,-4.4236,-4.4236,-4.4091,-4.3798,-4.3798,-4.3699,-4.3515,-4.3515,-4.3515,-3.5704,0.0,0.0,0.0,0.0,0.0,0.0,0.0,0.0,0.0,0.0,0.0,0.0,0.0,-3.54,-3.5078,0.0,-3.5329,0.0,0.0,0.0,0.0,0.0,0.0,0.0,0.0,0.0,0.0,0.0,0.0,-3.5704,-3.6297,-3.6754,-3.6993,-3.7623,-3.8403,-3.9334,-3.9505,-3.9888,-4.0469,-4.0682,-4.0808,-4.0809,-4.0797,-4.0797,-4.0797,-4.0797,-4.0797,-4.0797,-4.0797,-4.0797,-4.0797,-4.0797,-4.0797,-4.079,-4.0746,-4.0726,-4.0694,-4.0635,-4.0612,-4.058,-4.0539,-4.0504,-4.0496,-4.0496,-4.0496,-4.0496,-4.0496,-4.0496,-4.065,-4.1277,-4.145,-4.1604,-4.2239,-4.1893,-4.145,-4.145,-4.145,-4.1508,-4.175,-4.2316,-4.2547,-4.1904,-4.3008,-4.3673,-4.2804,-4.2881,-4.3229,-4.3798,-4.3856,-4.4058,-4.4623,-4.47,-4.4756,-4.4945,-4.4973,-4.5069,-4.5288,-4.5307,-4.5184,-4.4946,-4.4946,-4.4807,-4.4506,-4.4506,-4.4346,-4.4005,-4.3763,-4.3479,-4.3167,-4.3387,-4.3515,0.0,0.0,0.0,-3.5612,0.0,0.0,0.0,0.0,-3.5598,0.0,0.0,0.0,0.0,-3.5528,-3.5143,-3.4032,-3.479,0.0,0.0,0.0,0.0,0.0,0.0,0.0,0.0,0.0,0.0,0.0,0.0,0.0,-3.5704,-3.5737,-3.6135,-3.6973,-3.7098,-3.7566,-3.8425,-3.9214,-3.9607,-3.9646,-4.0441,-4.0794,-4.0794,-4.0809,-4.0797,-4.0797,-4.0797,-4.0797,-4.0797,-4.0797,-4.0797,-4.0797,-4.0797,-4.0797,-4.0797,-4.0797,-4.0752,-4.07,-4.0694,-4.0653,-4.0607,-4.0607,-4.0546,-4.0496,-4.0496,-4.0496,-4.0496,-4.0496,-4.0496,-4.0516,-4.0535,-4.0535,-4.0554,-4.0573,-4.0554,-4.0535,-4.0535,-4.0535,-4.0785,-4.1643,-4.1808,-4.1827,-4.1788,-4.2547,-4.2835,-4.1962,-4.2558,-4.3088,-4.3037,-4.2973,-4.2937,-4.29,-4.2872,-4.3216,-4.4068,-4.4144,-4.4469,-4.525,-4.5307,-4.5297,-4.5277,-4.5267,-4.5121,-4.4788,-4.4776,-4.4538,-4.4005,-4.3147,-4.2606,-4.2359,-4.313,-4.3515,0.0,0.0,-3.5694,-3.5676,0.0,0.0,0.0,0.0,0.0,0.0,0.0,0.0,0.0,-3.5577,-3.543,-3.4981,-3.5252,-3.5284,0.0,0.0,0.0,0.0,0.0,0.0,0.0,0.0,0.0,0.0,0.0,0.0,0.0,-3.5698,-3.5844,-3.6135,-3.62,-3.6653,-3.7528,-3.781,-3.85,-3.9607,-3.9878,-4.0289,-4.079,-4.08,-4.0802,-4.0802,-4.0803,-4.0797,-4.0797,-4.0797,-4.0797,-4.0797,-4.0797,-4.0797,-4.0797,-4.0797,-4.0784,-4.0752,-4.0726,-4.068,-4.0653,-4.0603,-4.058,-4.0565,-4.0504,-4.0496,-4.0496,-4.0496,-4.0496,-4.0496,-4.0496,-4.0496,-4.0496,-4.0496,-4.0496,-4.0496,-4.0496,-4.0496,-4.0593,-4.0873,-4.0931,-4.0931,-4.0931,-4.1181,-4.1285,-4.0969,-4.1181,-4.1585,-4.2137,-4.2178,-4.2364,-4.2877,-4.2926,-4.3014,-4.3216,-4.3244,-4.3368,-4.3634,-4.3654,-4.3654,-4.3654,-4.3654,-4.3594,-4.3482,-4.3482,-4.3189,-4.2618,-4.23,-4.195,-4.1499,-4.1791,-4.1919,-3.5741,-3.5745,0.0,0.0,-3.5745,0.0,-3.565,0.0,0.0,0.0,0.0,0.0,0.0,-3.5629,-3.5593,-3.5577,-3.5544,-3.5534,0.0,-3.557,0.0,0.0,0.0,0.0,0.0,0.0,0.0,0.0,-3.5704,-3.5704,0.0,0.0,-3.5699,-3.5708,-3.5765,-3.6078,-3.6634,-3.6945,-3.7633,-3.8719,-3.9332,-3.99,-4.0418,-4.0712,-4.083,-4.084,-4.0845,-4.0835,-4.0844,-4.0844,-4.0844,-4.0844,-4.0863,-4.0668,-4.0372,-4.0351,-4.0332,-4.0384,-4.063,-4.0726,-4.0687,-4.0646,-4.0629,-4.058,-4.0539,-4.0523,-4.0496,-4.0496,-4.0496,-4.0496,-4.0496,-4.0496,-4.0496,-4.0496,-4.0496,-4.0496,-4.0496,-4.0496,-4.0496,-4.0496,-4.0496,-4.0496,-4.0496,-4.0496,-4.0496,-4.0496,-4.0496,-4.0708,-4.1277,-4.1338,-4.1553,-4.2057,-4.2115,-4.2185,-4.2391,-4.2671,-4.2824,-4.2804,-4.2804,-4.2794,-4.2794,-4.2794,-4.2794,-4.2794,-4.2794,-4.2561,-4.2046,-4.1745,-4.14,-4.0944,-4.0648,-4.0492]},{"header":{"parameterUnit":"m.s-1","parameterCategory":1,"la1":30.6,"la2":29.2853,"lo1":-89.7004,"lo2":-87.6739,"dy":0.0162,"dx":0.0183,"nx":112,"ny":82,"refTime":"2023-06-03T12:00:00:Z","depth":0,"parameterNumber":3,"parameterNumberName":"V-component_of_WINDS"},"data":[0.0,0.0,0.0,0.0,0.0,0.0,0.0,0.0,0.0,0.0,0.0,0.0,0.0,0.0,0.0,0.0,0.0,0.0,0.0,0.0,0.0,0.0,0.0,0.0,0.0,0.0,0.0,0.0,0.0,0.0,0.0,0.0,0.0,0.0,0.0,0.0,0.0,0.0,0.0,0.0,0.0,0.0,0.0,0.0,0.0,0.0,0.0,0.0,0.0,0.0,0.0,0.0,0.0,0.0,0.0,0.0,0.0,0.0,0.0,0.0,0.0,0.0,0.0,0.0,0.0,0.0,0.0,0.0,0.0,0.0,0.0,0.0,0.0,0.0,0.0,0.0,0.0,0.0,0.0,0.0,0.0,0.0,0.0,0.0,0.0,0.0,0.0,0.0,0.0,0.0,-2.8067,-2.8667,-2.967,-3.0507,-3.1081,-3.0743,-2.9988,-2.8753,0.0,0.0,0.0,0.0,0.0,0.0,0.0,0.0,0.0,0.0,0.0,0.0,0.0,0.0,0.0,0.0,0.0,0.0,0.0,0.0,0.0,0.0,0.0,0.0,0.0,0.0,0.0,0.0,0.0,0.0,0.0,0.0,0.0,0.0,0.0,0.0,0.0,0.0,0.0,0.0,0.0,0.0,0.0,0.0,0.0,0.0,0.0,0.0,0.0,0.0,0.0,0.0,0.0,0.0,0.0,0.0,0.0,0.0,0.0,0.0,0.0,0.0,0.0,0.0,0.0,0.0,0.0,0.0,0.0,0.0,0.0,0.0,0.0,0.0,0.0,0.0,0.0,0.0,0.0,0.0,0.0,0.0,0.0,0.0,0.0,0.0,0.0,0.0,0.0,0.0,0.0,0.0,0.0,0.0,0.0,0.0,0.0,0.0,0.0,0.0,0.0,0.0,0.0,0.0,-2.7765,-2.9653,-3.0544,-3.1339,-3.2085,-3.147,-3.0785,-3.0288,0.0,0.0,0.0,0.0,0.0,0.0,0.0,0.0,0.0,0.0,0.0,0.0,0.0,0.0,0.0,0.0,0.0,0.0,0.0,0.0,0.0,0.0,0.0,0.0,0.0,0.0,0.0,0.0,0.0,0.0,0.0,0.0,0.0,0.0,0.0,0.0,0.0,0.0,0.0,0.0,0.0,0.0,0.0,0.0,0.0,0.0,0.0,0.0,0.0,0.0,0.0,0.0,0.0,0.0,0.0,0.0,0.0,0.0,0.0,0.0,0.0,0.0,0.0,0.0,0.0,0.0,0.0,0.0,0.0,0.0,0.0,0.0,0.0,0.0,0.0,0.0,0.0,0.0,0.0,0.0,0.0,0.0,0.0,0.0,0.0,0.0,0.0,0.0,0.0,0.0,0.0,0.0,0.0,0.0,0.0,0.0,0.0,0.0,0.0,0.0,0.0,0.0,0.0,-2.7834,-2.8467,-2.9849,-3.0469,-3.0967,-3.1436,-3.0931,-3.044,-2.9997,-2.8924,0.0,0.0,0.0,0.0,0.0,0.0,0.0,0.0,0.0,0.0,0.0,0.0,0.0,0.0,0.0,0.0,0.0,0.0,0.0,0.0,0.0,0.0,0.0,0.0,0.0,0.0,0.0,0.0,0.0,0.0,0.0,0.0,0.0,0.0,0.0,0.0,0.0,0.0,0.0,0.0,0.0,0.0,0.0,0.0,0.0,0.0,0.0,0.0,0.0,0.0,0.0,0.0,0.0,0.0,0.0,0.0,0.0,0.0,0.0,0.0,0.0,0.0,0.0,0.0,0.0,0.0,0.0,0.0,0.0,0.0,0.0,0.0,0.0,0.0,0.0,0.0,0.0,0.0,0.0,0.0,0.0,0.0,0.0,0.0,0.0,0.0,0.0,0.0,0.0,0.0,0.0,0.0,0.0,0.0,0.0,0.0,0.0,0.0,0.0,0.0,0.0,0.0,-2.8692,-2.93,-2.9852,-3.031,-3.0641,-3.0782,-3.0369,-2.993,-2.9532,-2.85,0.0,0.0,0.0,0.0,0.0,0.0,0.0,0.0,0.0,0.0,0.0,0.0,0.0,0.0,0.0,0.0,0.0,0.0,0.0,0.0,0.0,0.0,0.0,0.0,0.0,0.0,0.0,0.0,0.0,0.0,0.0,0.0,0.0,0.0,0.0,0.0,0.0,0.0,0.0,0.0,0.0,0.0,0.0,0.0,0.0,0.0,0.0,0.0,0.0,0.0,0.0,0.0,0.0,0.0,0.0,0.0,0.0,0.0,0.0,0.0,0.0,0.0,0.0,0.0,0.0,0.0,0.0,0.0,0.0,0.0,0.0,0.0,0.0,0.0,0.0,0.0,0.0,0.0,0.0,0.0,0.0,0.0,0.0,0.0,0.0,0.0,0.0,0.0,0.0,0.0,0.0,0.0,0.0,0.0,0.0,0.0,0.0,0.0,0.0,0.0,0.0,0.0,-2.8883,-2.9852,-2.9889,-3.0597,-3.1055,-3.1083,-3.0298,-2.979,-2.9753,-2.8247,0.0,0.0,0.0,0.0,0.0,0.0,0.0,0.0,0.0,0.0,0.0,0.0,0.0,0.0,0.0,0.0,0.0,0.0,0.0,0.0,0.0,0.0,0.0,0.0,0.0,0.0,0.0,0.0,0.0,0.0,0.0,0.0,0.0,0.0,0.0,0.0,0.0,0.0,0.0,0.0,0.0,0.0,0.0,0.0,0.0,0.0,0.0,0.0,0.0,0.0,0.0,0.0,0.0,0.0,0.0,0.0,0.0,0.0,0.0,0.0,0.0,0.0,0.0,0.0,0.0,0.0,0.0,0.0,0.0,0.0,0.0,0.0,0.0,0.0,0.0,0.0,0.0,0.0,0.0,0.0,0.0,0.0,0.0,0.0,0.0,0.0,0.0,0.0,0.0,0.0,0.0,0.0,0.0,0.0,0.0,0.0,0.0,0.0,0.0,0.0,0.0,0.0,-2.861,-2.9291,0.0,-2.998,-3.0092,-3.0288,-2.9991,-2.9641,-2.9277,0.0,0.0,0.0,0.0,0.0,0.0,0.0,0.0,0.0,0.0,0.0,0.0,0.0,0.0,0.0,0.0,0.0,0.0,0.0,0.0,0.0,0.0,0.0,0.0,0.0,0.0,0.0,0.0,0.0,0.0,0.0,0.0,0.0,0.0,0.0,0.0,0.0,0.0,0.0,0.0,0.0,0.0,0.0,0.0,0.0,0.0,0.0,0.0,0.0,0.0,0.0,0.0,0.0,0.0,0.0,0.0,0.0,0.0,0.0,0.0,0.0,0.0,0.0,0.0,0.0,0.0,0.0,0.0,0.0,0.0,0.0,0.0,0.0,0.0,0.0,0.0,0.0,0.0,0.0,0.0,0.0,0.0,0.0,0.0,0.0,0.0,0.0,0.0,0.0,0.0,0.0,0.0,0.0,0.0,0.0,0.0,0.0,0.0,0.0,0.0,0.0,0.0,-2.8059,-2.8537,-2.9098,0.0,-2.965,-2.9599,-2.9792,-2.9616,-2.9277,-2.8662,0.0,0.0,0.0,0.0,0.0,0.0,0.0,0.0,0.0,0.0,0.0,0.0,0.0,0.0,0.0,0.0,0.0,0.0,0.0,0.0,0.0,0.0,0.0,0.0,0.0,0.0,0.0,0.0,0.0,0.0,0.0,0.0,0.0,0.0,0.0,0.0,0.0,0.0,0.0,0.0,0.0,0.0,0.0,0.0,0.0,0.0,0.0,0.0,0.0,0.0,0.0,0.0,0.0,0.0,0.0,0.0,0.0,0.0,0.0,0.0,0.0,0.0,0.0,0.0,0.0,0.0,0.0,0.0,0.0,0.0,0.0,0.0,0.0,0.0,0.0,0.0,0.0,0.0,0.0,0.0,0.0,0.0,0.0,0.0,0.0,0.0,0.0,0.0,0.0,0.0,0.0,0.0,0.0,0.0,0.0,0.0,0.0,0.0,0.0,0.0,0.0,0.0,-2.8073,-2.8862,-2.9509,-2.9792,-2.9792,-2.9792,-2.9792,-2.9264,-2.8662,0.0,0.0,0.0,0.0,0.0,0.0,0.0,0.0,0.0,0.0,0.0,0.0,0.0,0.0,0.0,0.0,0.0,0.0,0.0,0.0,0.0,0.0,0.0,0.0,0.0,0.0,0.0,0.0,0.0,0.0,0.0,0.0,0.0,0.0,0.0,0.0,0.0,0.0,0.0,0.0,0.0,0.0,0.0,0.0,0.0,0.0,0.0,0.0,0.0,0.0,0.0,0.0,0.0,0.0,0.0,0.0,0.0,0.0,0.0,0.0,0.0,0.0,0.0,0.0,0.0,0.0,0.0,0.0,0.0,0.0,0.0,0.0,0.0,0.0,0.0,0.0,0.0,0.0,0.0,0.0,0.0,0.0,0.0,0.0,0.0,0.0,0.0,0.0,0.0,0.0,0.0,0.0,0.0,0.0,0.0,0.0,0.0,0.0,0.0,0.0,0.0,0.0,0.0,-2.8109,-2.9051,-2.9702,-2.9792,-2.9792,-2.9792,-2.9792,-2.9641,-2.9126,-2.816,0.0,0.0,0.0,0.0,0.0,0.0,0.0,0.0,0.0,0.0,0.0,0.0,0.0,0.0,0.0,0.0,0.0,0.0,0.0,0.0,0.0,0.0,0.0,0.0,0.0,0.0,0.0,0.0,0.0,0.0,0.0,0.0,0.0,0.0,0.0,0.0,0.0,0.0,0.0,0.0,0.0,0.0,0.0,0.0,0.0,0.0,0.0,0.0,0.0,0.0,0.0,0.0,0.0,0.0,0.0,0.0,0.0,0.0,0.0,0.0,0.0,0.0,0.0,0.0,0.0,0.0,0.0,0.0,0.0,0.0,0.0,0.0,0.0,0.0,0.0,0.0,0.0,0.0,0.0,0.0,0.0,0.0,0.0,0.0,0.0,0.0,0.0,0.0,0.0,0.0,0.0,0.0,0.0,0.0,0.0,0.0,0.0,0.0,0.0,0.0,0.0,0.0,-2.8109,-2.9101,-2.9792,-2.9792,-2.9792,-2.9792,-2.9792,-2.9792,-2.9315,-2.8172,0.0,0.0,0.0,0.0,0.0,0.0,0.0,0.0,0.0,0.0,0.0,0.0,0.0,0.0,0.0,0.0,0.0,0.0,0.0,0.0,0.0,0.0,0.0,0.0,0.0,0.0,0.0,0.0,0.0,0.0,0.0,0.0,0.0,0.0,0.0,0.0,0.0,0.0,0.0,0.0,0.0,0.0,0.0,0.0,0.0,0.0,0.0,0.0,0.0,0.0,0.0,0.0,0.0,0.0,0.0,0.0,0.0,0.0,0.0,0.0,0.0,0.0,0.0,0.0,0.0,0.0,0.0,0.0,0.0,0.0,0.0,0.0,0.0,0.0,0.0,0.0,0.0,0.0,0.0,0.0,0.0,0.0,0.0,0.0,0.0,0.0,0.0,0.0,0.0,0.0,0.0,0.0,0.0,0.0,0.0,0.0,0.0,0.0,0.0,0.0,0.0,0.0,-2.8109,-2.9101,-2.9792,-2.9792,-2.9792,-2.9792,-2.9792,-2.9792,-2.9315,-2.8172,0.0,0.0,0.0,0.0,0.0,0.0,0.0,0.0,0.0,0.0,0.0,0.0,0.0,0.0,0.0,0.0,0.0,0.0,0.0,0.0,0.0,0.0,0.0,0.0,0.0,0.0,0.0,0.0,0.0,0.0,0.0,0.0,0.0,0.0,0.0,0.0,0.0,0.0,0.0,0.0,0.0,0.0,0.0,0.0,0.0,0.0,0.0,0.0,0.0,0.0,0.0,0.0,0.0,0.0,0.0,0.0,0.0,0.0,0.0,0.0,-1.856,0.0,0.0,0.0,0.0,0.0,0.0,0.0,0.0,0.0,0.0,0.0,0.0,0.0,0.0,0.0,0.0,0.0,0.0,0.0,0.0,0.0,0.0,0.0,0.0,0.0,0.0,0.0,0.0,0.0,0.0,0.0,0.0,0.0,0.0,0.0,0.0,0.0,0.0,0.0,0.0,0.0,-2.8109,-2.9101,-2.9792,-2.9792,-2.9792,-2.9792,-2.9792,-2.9792,-2.9315,-2.8172,-2.8109,0.0,0.0,0.0,0.0,0.0,0.0,0.0,0.0,0.0,0.0,0.0,0.0,0.0,0.0,0.0,0.0,0.0,0.0,0.0,0.0,0.0,0.0,0.0,0.0,0.0,0.0,0.0,0.0,0.0,0.0,0.0,0.0,0.0,0.0,0.0,0.0,0.0,0.0,0.0,0.0,0.0,0.0,0.0,0.0,0.0,0.0,0.0,0.0,0.0,0.0,0.0,0.0,0.0,0.0,0.0,0.0,0.0,0.0,0.0,0.0,-1.8975,0.0,0.0,0.0,0.0,0.0,0.0,0.0,0.0,0.0,0.0,0.0,0.0,0.0,0.0,0.0,0.0,0.0,0.0,0.0,0.0,0.0,0.0,0.0,0.0,0.0,0.0,0.0,0.0,0.0,0.0,0.0,0.0,0.0,0.0,0.0,0.0,0.0,0.0,0.0,0.0,-2.8109,-2.9101,-2.9792,-2.9792,-2.9792,-2.9792,-2.9792,-2.9792,-2.9315,-2.8172,-2.8109,0.0,0.0,0.0,0.0,0.0,0.0,0.0,0.0,0.0,0.0,0.0,0.0,0.0,0.0,0.0,0.0,0.0,0.0,0.0,0.0,0.0,0.0,0.0,0.0,0.0,0.0,0.0,0.0,0.0,0.0,0.0,0.0,0.0,0.0,0.0,0.0,0.0,0.0,0.0,0.0,0.0,0.0,0.0,0.0,0.0,0.0,0.0,0.0,0.0,0.0,0.0,0.0,0.0,0.0,-1.7172,-1.8017,-1.7593,-1.7953,-1.8912,-1.8419,-1.8698,-1.9522,0.0,0.0,0.0,0.0,0.0,0.0,0.0,0.0,0.0,0.0,0.0,0.0,0.0,0.0,0.0,0.0,0.0,0.0,0.0,0.0,0.0,0.0,0.0,0.0,0.0,-2.243,-2.2721,0.0,0.0,0.0,0.0,0.0,0.0,0.0,0.0,0.0,0.0,0.0,0.0,-2.8109,-2.9101,-2.9792,-2.9792,-2.9792,-2.9792,-2.9792,-2.9792,-2.9352,-2.831,-2.8247,-2.7758,0.0,0.0,0.0,0.0,0.0,0.0,0.0,0.0,0.0,0.0,0.0,0.0,0.0,0.0,0.0,0.0,0.0,0.0,0.0,0.0,0.0,0.0,0.0,0.0,0.0,0.0,0.0,0.0,0.0,0.0,0.0,0.0,-1.1111,-1.1446,0.0,0.0,0.0,0.0,0.0,0.0,0.0,0.0,0.0,0.0,0.0,0.0,0.0,0.0,-1.4827,-1.4956,-1.5065,-1.5065,-1.5188,-1.5473,-1.585,-1.6321,-1.7201,-1.837,-1.8826,0.0,-1.9194,-1.9702,0.0,0.0,0.0,0.0,0.0,0.0,0.0,0.0,0.0,0.0,0.0,0.0,0.0,0.0,0.0,0.0,0.0,0.0,0.0,0.0,0.0,0.0,-2.1642,-2.0987,-2.1145,-2.1332,0.0,-2.2283,-2.3332,-2.2805,0.0,0.0,0.0,0.0,0.0,0.0,0.0,0.0,-2.8109,-2.9101,-2.9792,-2.9792,-2.9792,-2.9792,-2.9792,-2.9792,-2.9515,-2.8825,-2.8787,-2.8323,-2.7253,-2.7278,0.0,0.0,0.0,0.0,0.0,0.0,0.0,0.0,0.0,0.0,0.0,0.0,0.0,0.0,0.0,0.0,0.0,0.0,0.0,0.0,0.0,0.0,0.0,0.0,0.0,0.0,0.0,0.0,0.0,-1.1023,-1.1324,-1.1391,-1.1514,-1.1665,0.0,0.0,0.0,0.0,0.0,0.0,0.0,0.0,0.0,-1.4743,-1.4803,-1.4943,-1.5204,-1.5364,-1.5451,-1.5451,-1.6258,-1.7012,-1.765,-1.8202,-1.9002,-2.0087,-2.038,-2.0494,-2.0471,-2.044,-2.0545,-2.0645,0.0,0.0,0.0,0.0,0.0,-2.1006,-2.1494,0.0,0.0,0.0,0.0,0.0,0.0,0.0,0.0,0.0,0.0,0.0,0.0,0.0,0.0,-2.1748,-2.1992,-2.2214,-2.2051,-2.2541,-2.2919,0.0,-2.2843,-2.3654,-2.5419,0.0,0.0,0.0,0.0,-2.8014,-2.8487,-2.9277,-2.9792,-2.9792,-2.9792,-2.9792,-2.9792,-2.9792,-2.9541,-2.8925,-2.8888,-2.8537,-2.777,-2.8047,-2.7921,0.0,0.0,0.0,0.0,0.0,0.0,0.0,0.0,0.0,0.0,0.0,0.0,0.0,0.0,0.0,0.0,0.0,0.0,0.0,0.0,0.0,0.0,0.0,0.0,0.0,0.0,0.0,0.0,-1.1254,-1.1409,-1.142,-1.1592,-1.1743,0.0,0.0,0.0,0.0,0.0,0.0,-1.4183,-1.4472,-1.4836,-1.533,-1.5511,-1.5658,-1.5732,-1.5945,-1.6052,-1.6059,-1.7085,-1.8148,-1.9238,-1.9708,-2.0564,-2.1621,-2.1774,-2.1873,-2.1825,-2.126,-2.107,-2.1081,-2.0464,-2.0583,0.0,-2.0796,-2.0993,-2.1453,-2.2129,-2.2148,-2.1904,-2.2012,0.0,-2.1504,-2.1162,0.0,0.0,0.0,0.0,-2.1356,-2.1356,0.0,-2.248,-2.2373,-2.2676,-2.2906,-2.2799,-2.2578,-2.2397,0.0,-2.2727,-2.3417,-2.5451,0.0,0.0,0.0,0.0,-2.749,-2.813,-2.8966,-2.9454,-2.9468,-2.9663,-2.9792,-2.9792,-2.9792,-2.9616,-2.9176,-2.9113,-2.8863,-2.8335,-2.8675,-2.8499,-2.772,0.0,0.0,0.0,0.0,0.0,0.0,0.0,0.0,0.0,0.0,0.0,0.0,0.0,0.0,0.0,0.0,0.0,0.0,0.0,0.0,0.0,0.0,0.0,0.0,0.0,0.0,0.0,0.0,0.0,-1.1479,-1.1522,0.0,0.0,0.0,0.0,-1.2867,-1.3321,-1.3869,-1.4544,-1.484,-1.5377,-1.6228,-1.6268,-1.6359,-1.6633,-1.6653,-1.666,-1.666,-1.673,-1.7474,-1.8845,-1.9522,-2.0581,-2.1942,-2.2527,-2.2809,-2.2793,-2.198,-2.181,-2.1947,-2.1363,-2.1269,-2.1505,-2.1744,-2.1836,-2.1865,-2.1904,-2.1904,-2.1953,-2.2353,-2.2461,-2.2441,-2.2422,-2.2139,0.0,0.0,-2.1877,-2.1846,-2.1846,-2.2178,-2.2412,-2.2012,-2.2236,-2.2432,-2.2031,-2.1934,-2.2063,0.0,-2.2359,-2.2564,-2.3674,0.0,-2.4395,-2.5481,-2.6032,-2.6393,-2.6432,-2.7683,-2.857,-2.8554,-2.93,-2.9792,-2.9792,-2.9792,-2.9779,-2.9754,-2.9741,-2.949,-2.8875,-2.8875,-2.8863,-2.8813,-2.836,0.0,0.0,0.0,0.0,0.0,0.0,0.0,0.0,0.0,0.0,0.0,0.0,0.0,0.0,0.0,0.0,0.0,0.0,0.0,0.0,0.0,0.0,0.0,0.0,0.0,0.0,0.0,0.0,-1.1982,-1.2301,0.0,-1.2517,-1.2886,-1.3204,-1.3463,-1.4106,-1.4759,-1.5352,-1.5651,-1.6039,-1.6533,-1.6784,-1.6938,-1.7038,-1.7174,-1.7623,-1.8329,-1.9044,-1.9664,-2.0186,-2.112,-2.1836,-2.2312,-2.2539,-2.3077,-2.3666,-2.2803,-2.2364,-2.2169,-2.1435,-2.1376,-2.1693,-2.1778,-2.2042,-2.2324,-2.2598,-2.2519,-2.2266,-2.2148,-2.2109,-2.2109,-2.2109,-2.2002,-2.1885,-2.1885,-2.208,-2.2295,-2.2295,-2.2555,-2.2838,-2.2734,-2.2769,-2.2838,-2.2682,-2.2652,-2.2787,-2.3063,-2.2732,-2.293,-2.4551,-2.4352,-2.4543,-2.6285,-2.668,-2.7019,-2.7651,-2.8664,-2.9337,-2.9339,-2.9624,-2.9792,-2.9792,-2.9792,-2.9792,-2.9792,-2.9792,-2.9691,-2.949,-2.9478,-2.9315,-2.89,-2.87,-2.8599,0.0,0.0,0.0,0.0,0.0,0.0,0.0,0.0,0.0,0.0,0.0,0.0,0.0,0.0,0.0,0.0,0.0,0.0,0.0,0.0,0.0,0.0,0.0,0.0,0.0,0.0,-1.2343,-1.2433,-1.2922,-1.3218,-1.3121,-1.3536,-1.3874,-1.4097,-1.4867,-1.5478,-1.596,-1.6361,-1.675,-1.6994,-1.7246,-1.7347,-1.7347,-1.7482,-1.7943,-1.8662,-1.9797,-2.0518,-2.0936,-2.2013,-2.2728,-2.3088,-2.3088,-2.3488,-2.4137,-2.3242,-2.2748,-2.241,-2.1728,-2.1677,-2.1991,-2.2078,-2.238,-2.2721,-2.3003,-2.2916,-2.2676,-2.2402,-2.2305,-2.2305,-2.2305,-2.2305,-2.2305,-2.2305,-2.251,-2.2682,-2.2682,-2.2886,-2.3091,-2.3091,-2.3091,-2.3091,-2.3091,-2.3091,-2.3188,-2.3547,-2.324,-2.3398,-2.4819,-2.4535,-2.4682,-2.6397,-2.6648,-2.6981,-2.7906,-2.8833,-2.9337,-2.9337,-2.9598,-2.9792,-2.9792,-2.9792,-2.9792,-2.9792,-2.9792,-2.9792,-2.9792,-2.9792,-2.9616,-2.9189,-2.8988,-2.8988,-2.9214,0.0,0.0,0.0,0.0,0.0,0.0,0.0,0.0,0.0,0.0,0.0,0.0,0.0,0.0,0.0,0.0,0.0,0.0,0.0,0.0,0.0,0.0,0.0,-1.1579,-1.1994,-1.2463,-1.2735,-1.3242,-1.3664,-1.3918,-1.4368,-1.4637,-1.4708,-1.5485,-1.6026,-1.6304,-1.6904,-1.7347,-1.7589,-1.7589,-1.7582,-1.7582,-1.7582,-1.7635,-1.7687,-1.8715,-1.9797,-2.0885,-2.1903,-2.3011,-2.4084,-2.4066,-2.4115,-2.4101,-2.3215,-2.2885,-2.2812,-2.2278,-2.223,-2.2432,-2.2706,-2.2925,-2.3091,-2.3091,-2.3091,-2.3091,-2.3091,-2.3091,-2.3091,-2.3091,-2.3091,-2.3091,-2.3091,-2.3091,-2.3091,-2.3091,-2.3091,-2.3091,-2.3091,-2.3091,-2.3091,-2.3091,-2.3091,-2.3222,-2.3711,-2.3797,-2.3894,-2.4163,-2.4378,-2.4775,-2.5663,-2.5819,0.0,-2.7032,-2.797,-2.8527,-2.8527,-2.931,-2.9792,-2.9792,-2.9792,-2.9792,-2.9792,-2.9792,-2.9792,-2.9792,-2.9792,-2.9792,-2.9792,-2.9239,-2.9239,-2.9792,0.0,0.0,0.0,0.0,0.0,0.0,0.0,0.0,0.0,0.0,0.0,0.0,0.0,0.0,0.0,0.0,0.0,0.0,0.0,0.0,0.0,0.0,-1.2728,-1.265,-1.3139,-1.364,-1.4105,-1.4461,-1.4696,-1.4769,-1.5061,-1.5271,-1.53,-1.601,-1.6619,-1.6944,-1.7311,-1.7602,-1.7856,-1.7702,-1.7582,-1.7582,-1.7582,-1.7996,-1.8767,-1.9072,-1.9383,-1.9687,-1.9753,-2.0395,-2.1379,-2.1105,-2.1833,-2.3197,-2.2666,-2.2446,-2.2447,-2.2212,-2.223,-2.2432,-2.2706,-2.2925,-2.3091,-2.3091,-2.3091,-2.3091,-2.3091,-2.3091,-2.3091,-2.3091,-2.3091,-2.3091,-2.3091,-2.3091,-2.3091,-2.3091,-2.3091,-2.3091,-2.3091,-2.3091,-2.3091,-2.3091,-2.3091,-2.3222,-2.3711,-2.3797,-2.3927,-2.4368,-2.4454,-2.4775,-2.5663,0.0,0.0,-2.8015,-2.8901,-2.9454,-2.9454,-2.9649,-2.9792,-2.9792,-2.9792,-2.9792,-2.9792,-2.9792,-2.9792,-2.9792,-2.9792,-2.9792,-2.9792,-2.9641,-2.9628,0.0,0.0,0.0,0.0,0.0,0.0,0.0,0.0,0.0,0.0,0.0,0.0,0.0,0.0,0.0,0.0,0.0,0.0,0.0,0.0,0.0,0.0,-1.3025,-1.3532,-1.3761,-1.4057,-1.4364,-1.4678,-1.5046,-1.5318,-1.5421,-1.5674,-1.586,-1.5976,-1.6421,-1.6807,-1.6974,-1.7291,-1.7516,-1.7642,-1.7622,-1.7582,-1.7582,-1.7582,-1.7891,-1.8558,-1.8968,-1.9176,-1.922,-2.001,-2.0676,0.0,-2.1542,-2.221,-2.3123,-2.2712,-2.2437,0.0,0.0,0.0,0.0,0.0,-2.2925,-2.3091,-2.3091,-2.3091,-2.3091,-2.3091,-2.3091,-2.3091,-2.3091,-2.3091,-2.3091,-2.3091,-2.3091,-2.3091,-2.3091,-2.3091,-2.3091,-2.3091,-2.3091,-2.3091,-2.3091,-2.3091,-2.3232,-2.358,0.0,0.0,-2.4143,-2.4368,-2.4775,-2.5579,-2.616,-2.6878,0.0,-2.8359,-2.8816,-2.9219,-2.9273,-2.9417,-2.9753,-2.9792,0.0,0.0,0.0,-2.9792,-2.9792,-2.9792,0.0,0.0,0.0,-2.9792,0.0,0.0,0.0,0.0,-2.8963,-2.8687,0.0,0.0,0.0,0.0,0.0,0.0,0.0,0.0,0.0,0.0,0.0,0.0,0.0,0.0,0.0,0.0,-1.3507,-1.4177,-1.469,-1.4811,-1.4859,-1.489,-1.5306,-1.568,-1.5916,-1.6175,-1.6404,-1.6592,-1.6686,-1.6739,-1.677,0.0,0.0,0.0,0.0,-1.7582,-1.7582,-1.7582,-1.7582,-1.7635,-1.8558,-1.902,-1.9072,-2.1041,-2.2047,-2.2307,-2.3272,-2.3608,-2.3398,-2.305,-2.2657,-2.2245,-2.1887,-2.1919,-2.223,-2.2671,-2.2925,0.0,0.0,0.0,0.0,-2.3091,-2.3091,-2.3091,-2.3091,-2.3091,-2.3091,-2.3091,-2.3091,-2.3091,-2.3091,-2.3091,-2.3091,-2.3091,-2.3091,-2.3091,-2.3091,-2.3091,-2.3188,-2.346,-2.3503,-2.3547,-2.3754,-2.4153,-2.469,-2.54,-2.565,0.0,-2.6979,-2.7117,-2.7429,-2.825,0.0,0.0,-2.9585,-2.9753,-2.9792,-2.9792,-2.9792,-2.9792,-2.9792,-2.9792,-2.9792,-2.9792,-2.9792,-2.9792,-2.9792,-2.9792,-2.9792,-2.9792,-2.9792,-2.9515,0.0,0.0,0.0,0.0,0.0,0.0,0.0,0.0,0.0,0.0,0.0,0.0,0.0,0.0,0.0,-1.3793,-1.431,-1.4672,-1.4986,-1.5396,-1.5741,-1.5952,-1.6066,-1.6157,-1.6223,-1.6465,-1.6459,-1.6072,-1.6471,-1.6826,-1.7104,-1.6908,0.0,-1.7844,-1.7468,-1.7378,-1.7582,-1.7582,-1.7582,-1.7582,0.0,0.0,-1.7937,-1.8156,-1.9145,-2.0724,-2.0679,-2.155,-2.3014,-2.294,-2.2657,-2.2291,-2.2121,-2.2274,-2.2671,-2.2759,-2.2925,-2.3091,-2.3091,-2.3091,-2.3091,-2.3091,-2.3091,-2.3091,-2.3091,-2.3091,0.0,-2.3091,-2.3091,-2.3091,-2.3091,-2.3091,-2.3091,-2.3091,-2.3091,-2.3091,-2.3091,-2.3091,-2.3188,-2.346,-2.3503,-2.3493,-2.3551,-2.396,-2.4551,-2.5388,-2.5646,-2.6125,-2.7005,-2.7097,-2.7162,-2.7336,-2.8063,-2.8581,-2.8752,-2.9417,-2.9792,-2.9792,-2.9792,-2.9792,-2.9792,-2.9792,-2.9792,-2.9792,-2.9792,-2.9792,-2.9792,-2.9792,-2.9792,-2.9792,-2.9792,-2.9729,0.0,0.0,0.0,0.0,0.0,0.0,0.0,0.0,0.0,0.0,0.0,-1.1517,-1.2146,0.0,-1.3298,-1.4142,-1.4642,-1.5004,-1.527,-1.5644,-1.5891,-1.5891,-1.6006,-1.6193,-1.6477,-1.6622,-1.664,-1.6501,-1.6727,-1.6863,-1.6729,-1.6725,-1.6902,-1.7367,-1.7269,-1.7331,-1.7582,-1.7582,-1.7582,-1.7582,-1.7582,-1.7582,-1.7628,-1.8047,-1.8781,-1.9788,-2.0174,-2.1147,-2.2442,-2.274,-2.2785,-2.2574,-2.252,-2.255,-2.2618,-2.2618,-2.2794,-2.3091,-2.3091,-2.3091,-2.3091,-2.3091,-2.3091,-2.3091,-2.3091,-2.3091,-2.3091,-2.3091,-2.3091,-2.3091,-2.3091,-2.3091,-2.3091,-2.3091,-2.3091,-2.3091,-2.3091,-2.3091,-2.3144,-2.3276,-2.3319,-2.3319,-2.3299,-2.36,-2.4034,-2.4554,-2.486,-2.5179,-2.5741,-2.578,-2.6133,-2.7028,-2.7516,-2.8171,-2.9079,-2.9546,-2.9792,-2.9792,-2.9792,-2.9792,-2.9792,-2.9792,-2.9792,-2.9792,-2.9792,-2.9792,-2.9792,-2.9792,-2.9792,-2.9792,-2.9792,-2.9792,0.0,0.0,0.0,0.0,0.0,0.0,0.0,-1.0603,-1.0796,-1.1074,-1.1563,-1.203,-1.2422,-1.3118,-1.382,-1.4232,-1.4737,-1.5185,-1.5396,-1.5692,-1.5795,-1.5529,-1.5777,-1.6139,-1.6579,-1.667,-1.6742,-1.6851,-1.6905,-1.6748,-1.6326,-1.6466,-1.6619,-1.6766,-1.6987,-1.7272,-1.7582,-1.7582,-1.7582,-1.7582,-1.7582,-1.7582,-1.7635,-1.8513,-1.902,-1.928,-2.0416,-2.1224,-2.1783,-2.2531,-2.2801,-2.2729,-2.2928,-2.2852,-2.2598,-2.2633,-2.2945,-2.3344,-2.3344,-2.3344,-2.3344,-2.3344,-2.3344,-2.3325,-2.3247,-2.3218,-2.3198,-2.312,-2.3091,-2.3091,-2.3091,-2.3091,-2.3091,-2.3091,-2.3091,-2.3091,-2.3091,-2.3091,-2.3091,-2.3091,-2.3091,-2.3091,-2.3091,-2.3271,-2.3499,-2.3714,-2.4006,-2.4274,-2.4411,-2.4454,-2.5031,-2.6453,-2.6905,-2.7851,-2.9663,-2.9792,-2.9792,-2.9792,-2.9792,-2.9792,-2.9792,-2.9792,-2.9792,-2.9792,-2.9792,-2.9792,-2.9792,-2.9792,-2.9792,-2.9792,-2.9792,-2.9792,-0.9782,-0.9884,-0.9986,-1.0404,-1.0423,-1.046,0.0,-1.1209,-1.1295,-1.1569,-1.2165,-1.2683,-1.2763,-1.3362,-1.398,-1.4239,-1.4763,-1.5119,-1.5149,-1.5578,-1.5795,-1.5529,-1.5934,-1.626,-1.632,-1.6555,-1.6513,-1.606,-1.6241,-1.6344,-1.6284,-1.6114,-1.6299,-1.7009,-1.687,-1.7054,-1.7582,-1.7582,-1.7582,-1.7582,-1.7582,-1.7582,-1.7582,-1.774,-1.8304,-1.928,-2.0416,-2.0963,-2.1076,-2.2114,-2.2341,-2.2129,-2.3078,-2.335,-2.3243,-2.3456,-2.3854,-2.4268,-2.4268,-2.4268,-2.4268,-2.4268,-2.4268,-2.4199,-2.3828,-2.3721,-2.3633,-2.3198,-2.3091,-2.3091,-2.3091,-2.3091,-2.3091,-2.3091,-2.3091,-2.3091,-2.3091,-2.3091,-2.3091,-2.3091,-2.3091,-2.3091,-2.3091,-2.3101,-2.3251,-2.3475,-2.3924,-2.4196,-2.4249,-2.4368,-2.4583,-2.4786,-2.6174,-2.7851,-2.9663,-2.9792,-2.9792,-2.9792,-2.9792,-2.9792,-2.9792,-2.9792,-2.9792,-2.9792,-2.9792,-2.9792,-2.9792,-2.9792,-2.9792,-2.9792,-2.9792,-2.9792,-1.0073,-1.0137,-1.025,-1.0719,-1.0875,-1.0984,-1.1413,-1.1661,-1.1828,-1.2064,-1.2472,-1.2854,-1.2958,-1.3475,-1.398,-1.4254,-1.4606,-1.4938,-1.5083,-1.5294,-1.5451,-1.5493,-1.5692,-1.5946,-1.6254,-1.6386,-1.6362,-1.6133,-1.6368,-1.6386,-1.6066,-1.6097,-1.6367,-1.6861,-1.674,-1.6995,-1.7582,-1.7582,-1.7582,-1.7582,-1.7582,-1.7582,-1.7582,-1.7582,-1.7838,-1.8356,-1.9435,-1.9901,-2.0004,-2.1089,-2.182,-2.2278,-2.2734,-2.3336,-2.397,-2.3768,-2.3905,-2.4183,-2.4368,-2.4414,-2.4414,-2.4414,-2.4414,-2.4385,-2.4209,-2.415,-2.4121,-2.389,-2.3711,-2.3516,-2.3516,-2.3286,-2.3091,-2.3091,-2.3091,-2.3091,-2.3091,-2.3091,-2.3091,-2.3091,-2.3091,-2.3091,-2.3091,-2.3091,-2.3144,-2.3261,-2.359,-2.3874,-2.4163,-2.4282,-2.4572,-2.5179,-2.637,-2.7395,-2.8171,-2.8712,-2.904,-2.904,-2.9534,-2.9792,-2.9792,-2.9792,-2.9792,-2.9792,-2.9792,-2.9792,-2.9792,-2.9792,-2.9792,-2.9792,-2.9792,-2.9792,-1.032,-1.0433,-1.0584,-1.0982,-1.1268,-1.1482,-1.1828,-1.2027,-1.2267,-1.2463,-1.2702,-1.2899,-1.3022,-1.3491,-1.3947,-1.408,-1.442,-1.4781,-1.4974,-1.5065,-1.5203,-1.5469,-1.5499,-1.5674,-1.6127,-1.6175,-1.6175,-1.6175,-1.6362,-1.6308,-1.591,-1.6066,-1.63,-1.6583,-1.6677,-1.6942,-1.7483,-1.7582,-1.7582,-1.7582,-1.7582,-1.7582,-1.7582,-1.7582,-1.7582,-1.7635,-1.8401,-1.8767,-1.8871,-1.9952,-2.0877,-2.165,-2.2266,-2.3079,-2.3962,-2.3906,-2.4117,-2.44,-2.4682,-2.4775,-2.4775,-2.4775,-2.4775,-2.4756,-2.4639,-2.459,-2.457,-2.4453,-2.4199,-2.3965,-2.3965,-2.373,-2.3422,-2.3305,-2.3276,-2.3247,-2.312,-2.3091,-2.3091,-2.3091,-2.3091,-2.3091,-2.3091,-2.3091,-2.3091,-2.3091,-2.3256,-2.356,-2.4024,-2.4196,-2.4647,-2.5704,-2.6359,-2.6853,-2.7069,-2.7718,-2.8091,-2.8091,-2.8712,-2.917,-2.9417,-2.9456,-2.9546,-2.9792,-2.9792,-2.9792,-2.9792,-2.9792,-2.9792,-2.9792,-2.9792,-2.9792,-1.0522,-1.0789,-1.1025,-1.1236,-1.1472,-1.1811,-1.2285,-1.2398,-1.2468,-1.2753,-1.2942,-1.3044,-1.2856,-1.3394,-1.3841,-1.3551,-1.4203,-1.4721,-1.4727,-1.495,-1.5203,-1.5469,-1.5499,-1.5608,0.0,-1.5903,-1.5903,-1.5903,-1.591,-1.5903,-1.5891,-1.5897,-1.6057,-1.6324,-1.6577,-1.6842,-1.7226,-1.7483,-1.7582,-1.7582,-1.7582,-1.7582,-1.7582,-1.7582,-1.7582,-1.7582,-1.7635,-1.7635,-1.7733,-1.8819,-1.928,-1.9487,-2.165,-2.2526,-2.2719,-2.3998,-2.4796,-2.5294,-2.5548,-2.5645,-2.5645,-2.5645,-2.5645,-2.5567,-2.5176,-2.5096,-2.4961,-2.4531,-2.4404,-2.4394,-2.4394,-2.4385,-2.4277,-2.3867,-2.3769,-2.3652,-2.3188,-2.3091,-2.3091,-2.3091,-2.3091,-2.3091,-2.3091,-2.3091,-2.3091,-2.3091,-2.3091,-2.3266,-2.3754,-2.4196,-2.4818,-2.5704,-2.5819,-2.6193,-2.7028,-2.7151,-2.7151,-2.7151,-2.7191,-2.7597,-2.8502,-2.8542,-2.8922,-2.9792,-2.9792,-2.9792,-2.9792,-2.9792,-2.9792,-2.9792,-2.9792,-2.9792,-1.0919,-1.1128,-1.1316,-1.1874,-1.2118,-1.2258,-1.2576,-1.2646,-1.2667,-1.2797,-1.2861,-1.2856,-1.2813,-1.3249,-1.3588,-1.3491,-1.4044,-1.4437,-1.4437,-1.4678,-1.4944,-1.5209,-1.5396,0.0,0.0,0.0,0.0,-1.5891,-1.5891,-1.5891,-1.5891,-1.5891,-1.5998,-1.6271,-1.6377,-1.6696,-1.7179,-1.7279,-1.743,-1.7582,-1.7582,-1.7582,-1.7582,-1.7582,-1.7582,-1.7582,-1.7582,-1.7582,-1.7635,-1.7996,-1.8558,-1.928,-1.9996,-2.1183,-2.2577,-2.3211,-2.4016,-2.4833,-2.5284,-2.5538,-2.5693,-2.5693,-2.5693,-2.5664,-2.5557,-2.5518,-2.5478,-2.5284,-2.5078,-2.4844,-2.4844,-2.4639,-2.4385,-2.4238,-2.3994,-2.375,-2.3603,-2.3305,-2.3091,-2.3091,-2.3091,-2.3091,-2.3091,-2.3091,-2.3091,-2.3091,-2.3363,-2.3624,-2.3797,-2.4196,-2.4615,-2.4903,-2.4935,-2.5062,-2.5359,-2.5913,-2.6235,-2.6235,-2.6771,-2.7232,-2.7557,-2.8171,-2.8621,-2.8922,-2.9495,-2.9792,-2.9792,-2.9792,-2.9792,-2.9792,-2.9792,-2.9792,-1.1289,-1.1557,-1.1793,-1.2301,-1.2479,-1.2576,-1.2775,-1.2813,-1.2813,-1.2813,-1.2813,-1.2813,-1.2813,-1.3201,-1.3491,-1.3394,-1.3871,-1.425,-1.416,-1.4491,-1.4817,-1.5077,-1.5342,-1.5602,0.0,0.0,0.0,-1.5891,-1.5891,-1.5891,-1.5891,-1.5891,-1.5998,-1.6164,-1.6271,-1.6537,-1.7014,-1.712,-1.7331,-1.7582,-1.7582,-1.7582,-1.7582,-1.7582,-1.7582,-1.7582,-1.7582,-1.7582,-1.7582,-1.7582,-1.7996,-1.8662,-1.9072,-2.0048,-2.1438,-2.24,-2.3253,-2.4066,-2.4981,-2.543,-2.5586,-2.5693,-2.5693,-2.5693,-2.5693,-2.5693,-2.5693,-2.5693,-2.5527,-2.5303,-2.5303,-2.5098,-2.4853,-2.4687,-2.4443,-2.416,-2.3857,-2.3574,-2.3286,-2.312,-2.3091,-2.3091,-2.3091,-2.3091,-2.3091,-2.3091,-2.345,-2.3711,-2.3797,-2.4153,-2.4411,-2.4497,-2.4497,-2.4497,-2.4497,-2.502,-2.5348,-2.5348,-2.5883,-2.6287,-2.6607,-2.7221,-2.7678,-2.8011,-2.8882,-2.9339,-2.9339,-2.9663,-2.9792,-2.9792,-2.9792,-2.9792,-1.1666,-1.207,-1.242,-1.2431,-1.2603,-1.2813,-1.2813,-1.2813,-1.2807,-1.2797,-1.2797,-1.2791,-1.2775,-1.3173,-1.342,-1.313,-1.3763,-1.4202,-1.3979,-1.4362,-1.4829,-1.5077,-1.5354,-1.5614,-1.5867,0.0,0.0,-1.5891,0.0,-1.5891,-1.5891,-1.5891,-1.5891,-1.5891,-1.6164,-1.6424,-1.6677,-1.7014,-1.7331,-1.7582,-1.7582,-1.7582,-1.7582,-1.7582,-1.7582,-1.7582,-1.7582,-1.7582,-1.7582,-1.7582,-1.7582,-1.7687,-1.8715,-1.9176,-1.9435,-2.1548,-2.2509,-2.3044,-2.4618,-2.5235,-2.5333,-2.5586,-2.5684,-2.5684,-2.5693,-2.5693,-2.5693,-2.5693,-2.5693,-2.5693,-2.5693,-2.5693,-2.5586,-2.5205,-2.5135,-2.4891,-2.4033,-2.3818,-2.3662,-2.3208,-2.311,-2.3091,-2.3091,-2.3091,-2.3091,-2.3091,-2.3319,-2.3537,-2.3754,-2.4024,-2.4282,-2.4454,-2.4497,-2.4497,-2.4497,-2.4497,-2.4497,-2.4497,-2.4497,-2.4861,-2.5704,-2.5788,-2.6193,-2.7028,-2.7971,-2.8422,-2.8422,-2.93,-2.9714,-2.9714,-2.9792,-2.9792,-1.207,-1.2323,-1.2457,-1.263,-1.277,-1.2813,-1.2813,-1.2813,-1.2764,-1.2538,-1.2506,-1.2447,-1.231,-1.2841,-1.3248,-1.3201,-1.3784,-1.4298,-1.4208,-1.4659,-1.5034,-1.5101,-1.5511,-1.5813,-1.5885,-1.5891,0.0,0.0,-1.5891,-1.5891,-1.5891,-1.5891,-1.5891,-1.5891,-1.5945,-1.6105,-1.6371,-1.6908,-1.7331,-1.7582,-1.7582,-1.7582,-1.7582,-1.7582,-1.7582,-1.7582,-1.7582,-1.7582,-1.7582,-1.7582,-1.7582,-1.7635,-1.7891,-1.8513,-1.928,-1.9842,-2.0613,-2.1591,-2.2994,-2.4165,-2.5039,-2.5333,-2.5391,-2.544,-2.5635,-2.5693,-2.5693,-2.5693,-2.5693,-2.5693,-2.5693,-2.5693,-2.5664,-2.5596,-2.5312,-2.5057,-2.4832,-2.4238,-2.375,-2.3643,-2.3315,-2.3091,-2.3091,-2.3091,-2.3091,-2.3091,-2.3144,-2.3276,-2.3547,-2.3937,-2.4206,-2.4282,-2.4411,-2.4497,-2.4497,-2.4497,-2.4497,-2.4497,-2.4497,-2.4615,-2.4818,-2.5463,-2.5902,-2.611,-2.7017,-2.7476,-2.7476,-2.8383,-2.8831,-2.8831,-2.9507,-2.9792,-1.2274,-1.249,-1.2603,-1.278,-1.2813,-1.2813,-1.2813,-1.2732,-1.2576,-1.2441,-1.2328,-1.221,-1.2121,-1.2707,-1.3151,-1.3021,-1.3749,-1.425,-1.416,-1.467,-1.5107,-1.5107,-1.5572,-1.5891,-1.5891,-1.5891,-1.5891,0.0,-1.5891,-1.5891,-1.5891,-1.5891,-1.5891,-1.5891,-1.5891,-1.6051,-1.6324,-1.6908,-1.7279,-1.743,-1.7529,-1.7582,-1.7582,-1.7582,-1.7582,-1.7582,0.0,-1.7582,-1.7582,-1.7582,-1.7582,-1.7582,-1.7582,-1.7996,-1.8558,-1.902,-1.9591,-2.0416,-2.2148,-2.322,-2.3985,-2.4833,-2.5186,-2.5342,-2.5489,-2.5586,-2.5693,-2.5693,-2.5693,-2.5693,-2.5693,-2.5693,-2.5693,-2.5693,-2.5547,-2.5303,-2.5165,-2.4541,-2.3955,-2.3574,-2.3257,-2.3091,-2.3091,-2.3091,-2.3091,-2.3091,-2.3091,-2.3135,-2.3319,-2.3677,-2.3937,-2.4024,-2.4239,-2.4378,-2.4378,-2.4454,-2.4497,-2.4497,-2.4497,-2.4497,-2.4497,-2.4978,-2.5221,-2.5221,-2.608,-2.6524,-2.6524,-2.7851,-2.8291,-2.7931,-2.9209,-2.9585,-1.2388,-1.2608,-1.2813,-1.2813,-1.2813,-1.2802,-1.2775,-1.256,-1.2398,-1.2334,-1.2151,-1.204,-1.2008,-1.2588,-1.3012,-1.2841,-1.3589,-1.416,-1.3979,-1.459,-1.5071,-1.5107,-1.5541,-1.5849,-1.5885,-1.5891,-1.5891,-1.5891,-1.5891,-1.5891,-1.5891,-1.5891,-1.5891,-1.5891,-1.5891,-1.6051,-1.6324,-1.6808,-1.712,-1.712,-1.743,-1.7536,-1.7536,-1.7582,-1.7582,-1.7582,0.0,0.0,-1.7582,-1.7582,-1.7582,-1.7582,-1.7582,-1.7582,-1.7687,-1.8662,-1.8968,-1.928,-2.1344,-2.2064,-2.2367,-2.4223,-2.4981,-2.5186,-2.5284,-2.544,-2.5635,-2.5693,-2.5693,-2.5693,-2.5693,-2.5693,-2.5693,-2.5693,-2.5693,-2.5586,-2.5244,-2.4766,-2.416,-2.3266,-2.3091,-2.3091,-2.3091,-2.3091,-2.3091,-2.3091,-2.3091,-2.3091,-2.3091,-2.3319,-2.359,-2.3754,-2.398,-2.4163,-2.4206,-2.4368,-2.4454,-2.4497,-2.4497,-2.4497,-2.4497,-2.4497,-2.4497,-2.4497,-2.5221,-2.5621,-2.5621,-2.7302,-2.7758,-2.7151,-2.8843,-2.9287,-1.2629,-1.278,-1.2813,-1.2813,-1.2813,-1.2764,-1.2517,-1.2441,-1.2301,-1.1903,-1.179,-1.1698,-1.1466,-1.2041,-1.2613,-1.2757,-1.3478,-1.4022,-1.4208,-1.4533,-1.4865,-1.5083,-1.5378,-1.565,-1.5867,-1.5891,0.0,0.0,0.0,-1.5891,-1.5891,-1.5891,-1.5891,-1.5891,-1.5891,-1.6051,-1.6324,-1.6377,-1.6583,-1.6789,-1.7113,-1.7279,-1.7279,-1.7483,-1.7582,-1.7582,0.0,0.0,-1.7582,-1.7582,-1.7582,-1.7582,-1.7582,-1.7582,-1.7635,-1.7786,-1.7891,-1.8048,-1.9332,-1.9797,-2.0297,-2.3511,-2.4587,-2.4735,-2.5186,-2.5333,-2.544,-2.5635,-2.5693,-2.5693,-2.5693,-2.5693,-2.5693,-2.5693,-2.5693,-2.5664,-2.5586,-2.499,-2.416,-2.3266,-2.3091,-2.3091,-2.3091,-2.3091,-2.3091,-2.3091,-2.3091,-2.3091,-2.3091,-2.3319,-2.3503,-2.3547,-2.3764,-2.398,-2.4163,-2.4249,-2.4335,-2.4497,-2.4497,-2.4497,-2.4497,-2.4497,-2.4497,-2.4497,-2.4658,-2.4743,-2.4743,-2.5746,-2.6565,-2.7151,-2.8211,-2.904,-1.2484,-1.2667,-1.2813,-1.2813,-1.2721,-1.2549,-1.2441,-1.2221,-1.1978,-1.1747,-1.1602,-1.1439,-1.1327,-1.1811,-1.2316,-1.2529,-1.3234,-1.382,-1.4046,-1.4442,-1.4817,-1.5077,-1.5342,-1.5602,-1.5861,-1.5891,-1.5891,0.0,0.0,0.0,-1.5891,-1.5891,-1.5891,-1.5891,-1.5891,-1.5945,-1.6105,-1.6217,-1.6377,-1.6477,-1.6796,-1.7008,-1.7179,-1.7331,-1.7483,-1.7582,0.0,0.0,-1.7582,-1.7582,-1.7582,-1.7582,-1.7582,-1.7582,-1.7582,-1.7582,-1.7582,-1.7733,-1.8819,-1.9176,-1.9583,-2.1887,-2.3111,-2.371,-2.3958,-2.452,-2.5137,-2.544,-2.5489,-2.5538,-2.5635,-2.5693,-2.5693,-2.5693,-2.5557,-2.5322,-2.5098,-2.4541,-2.3896,-2.3218,-2.3091,-2.3091,-2.3091,-2.3091,-2.3091,-2.3091,-2.3091,-2.3091,-2.3091,-2.3232,-2.3276,-2.3276,-2.3493,-2.3764,-2.398,-2.411,-2.4292,-2.4497,-2.4497,-2.4497,-2.4497,-2.4497,-2.4497,-2.4497,-2.4497,-2.4497,-2.4497,-2.5379,-2.5788,-2.581,-2.7637,-2.8462,-1.2269,-1.2468,-1.2656,-1.2656,-1.2474,-1.2323,-1.2269,-1.1973,-1.1682,-1.1634,-1.1434,-1.1305,-1.1305,-1.1674,-1.2092,-1.237,-1.2991,-1.3531,-1.3848,-1.4254,-1.4652,-1.5071,-1.5288,-1.5541,-1.5861,-1.5891,0.0,0.0,0.0,0.0,-1.5891,-1.5891,-1.5891,-1.5891,-1.5891,-1.5891,-1.5891,-1.6111,-1.6217,-1.6217,-1.6477,-1.6743,-1.7014,-1.7126,-1.7331,-1.7536,0.0,0.0,0.0,-1.7582,-1.7582,-1.7582,-1.7582,-1.7582,-1.7582,-1.7582,-1.7582,-1.774,-1.8558,-1.8871,-1.902,-1.9901,-2.1226,-2.2542,-2.2785,-2.3651,-2.4578,-2.5079,-2.5235,-2.5342,-2.5538,-2.5635,-2.5693,-2.5693,-2.54,-2.4951,-2.4512,-2.4082,-2.3662,-2.3179,-2.3091,-2.3091,-2.3091,-2.3091,-2.3091,-2.3091,-2.3091,-2.3091,-2.3091,-2.3091,-2.3091,-2.3091,-2.3276,-2.3493,-2.3711,-2.3937,-2.4163,-2.4411,-2.4454,-2.4454,-2.4497,-2.4497,-2.4497,-2.4497,-2.4497,-2.4497,-2.4497,-2.5179,-2.5263,-2.4818,-2.6946,-2.7718,-1.2062,-1.2143,-1.2159,-1.2159,-1.2143,-1.2073,-1.1817,-1.1731,-1.1639,-1.1386,-1.1321,-1.1305,-1.1305,-1.1542,-1.1863,-1.2325,-1.2677,-1.3117,-1.38,-1.3955,-1.4246,-1.4996,-1.5131,-1.5342,-1.5843,-1.5891,0.0,0.0,0.0,0.0,0.0,-1.5891,-1.5891,-1.5891,-1.5891,-1.5891,-1.5891,-1.5945,-1.5945,-1.5945,-1.6217,-1.6324,-1.6377,-1.6961,-1.7226,-1.7226,0.0,0.0,0.0,-1.7582,-1.7582,-1.7582,-1.7582,-1.7582,-1.7582,-1.7582,-1.7582,-1.7635,-1.7687,-1.774,-1.7733,-1.7898,-1.9332,-2.1336,-2.2534,-2.2994,-2.3343,-2.4578,-2.5137,-2.5294,-2.5333,-2.5538,-2.5693,-2.5693,-2.54,-2.4951,-2.4512,-2.4082,-2.3662,-2.3179,-2.3091,-2.3091,-2.3091,-2.3091,-2.3091,-2.3091,-2.3091,-2.3091,-2.3091,-2.3091,-2.3091,-2.3091,-2.3135,-2.3232,-2.3503,-2.3547,-2.3764,-2.4206,-2.4249,-2.4292,-2.4497,-2.4497,-2.4497,-2.4497,-2.4497,-2.4497,-2.4497,-2.4583,-2.4988,-2.5704,-2.5944,-2.6894,-1.1774,-1.1986,-1.2094,-1.2094,-1.1986,-1.1811,-1.172,-1.1591,-1.1418,-1.1327,-1.1305,-1.1305,-1.1305,-1.1386,-1.1612,-1.2126,-1.2406,-1.275,-1.3338,-1.3545,-1.3914,-1.4524,-1.4758,-1.5098,0.0,0.0,0.0,0.0,0.0,0.0,0.0,-1.5891,-1.5891,-1.5891,-1.5891,-1.5891,-1.5891,-1.5891,-1.5891,-1.5891,-1.5998,-1.6164,-1.6324,-1.6537,-1.6855,-1.7232,0.0,0.0,0.0,-1.7582,-1.7582,-1.7582,-1.7582,-1.7582,-1.7582,-1.7582,-1.7582,-1.7582,-1.7582,-1.7582,-1.7582,-1.7582,-1.8206,-1.9124,-2.0297,-2.1167,-2.1988,-2.3302,-2.375,-2.4057,-2.503,-2.5489,-2.5693,-2.5693,-2.5195,-2.4629,-2.4453,-2.3877,-2.3305,-2.313,-2.3091,-2.3091,-2.3091,-2.3091,-2.3091,-2.3091,-2.3091,-2.3091,-2.3091,-2.3091,-2.3091,-2.3091,-2.3091,-2.3188,-2.3503,-2.3503,-2.3634,-2.3937,-2.398,-2.398,-2.4057,-2.4239,-2.4335,-2.4335,-2.4454,-2.4497,-2.4497,-2.4497,-2.47,-2.502,-2.5547,-2.6193,-1.1445,-1.1661,-1.1844,-1.1844,-1.1715,-1.1596,-1.1596,-1.1429,-1.1305,-1.1305,-1.1305,-1.1305,-1.1305,-1.1305,-1.1439,-1.1927,-1.2188,-1.2466,-1.2938,-1.3253,-1.3582,-1.4129,0.0,-1.4794,0.0,-1.5682,0.0,0.0,0.0,0.0,0.0,-1.5891,-1.5891,-1.5891,-1.5891,-1.5891,-1.5891,-1.5891,-1.5891,-1.5891,-1.5891,-1.5998,-1.6164,-1.6271,-1.6537,0.0,0.0,0.0,0.0,-1.7582,-1.7582,-1.7582,-1.7582,-1.7582,-1.7582,-1.7582,-1.7582,-1.7582,-1.7582,-1.7582,-1.7582,-1.7582,-1.7582,-1.774,-1.8513,-1.9487,-2.0672,-2.1937,-2.2433,-2.2844,-2.4165,-2.4618,-2.4766,-2.4766,-2.4326,-2.3942,-2.3942,-2.3506,-2.3091,-2.3091,-2.3091,-2.3091,-2.3091,-2.3091,-2.3091,-2.3091,-2.3091,-2.3091,-2.3091,-2.3091,-2.3091,-2.3091,-2.3091,-2.3188,-2.3373,-2.3363,-2.3493,-2.3711,-2.3711,-2.3754,-2.3797,-2.398,-2.4067,-2.4067,-2.4239,-2.4282,-2.4282,-2.4282,-2.4325,-2.4411,-2.5052,-2.5505,-1.0988,-1.1171,-1.1316,-1.1316,-1.1316,-1.1311,-1.1311,-1.1311,-1.1305,-1.1305,-1.1305,-1.1305,-1.1305,-1.1305,-1.1386,-1.1666,-1.1943,-1.2273,-1.2717,-1.3003,-1.3284,-1.3832,-1.4127,-1.4533,-1.5047,0.0,0.0,0.0,0.0,0.0,0.0,0.0,-1.5891,-1.5891,-1.5891,-1.5891,-1.5891,-1.5891,-1.5891,-1.5891,-1.5891,-1.5891,-1.5891,-1.6164,0.0,0.0,0.0,0.0,0.0,-1.7483,-1.7582,-1.7582,-1.7582,-1.7582,-1.7582,-1.7582,-1.7582,-1.7582,-1.7582,-1.7582,-1.7582,-1.7582,-1.7582,-1.7582,-1.7635,-1.8356,-1.9487,-2.0621,-2.1285,-2.1836,-2.2391,-2.2542,-2.2534,-2.2534,-2.2699,-2.2793,-2.2793,-2.2955,-2.3091,-2.3091,-2.3091,-2.3091,-2.3091,-2.3091,-2.3091,-2.3091,-2.3091,-2.3091,-2.3091,-2.3091,-2.3091,-2.3091,-2.3091,-2.3091,-2.3091,-2.3091,-2.3232,-2.3503,-2.3503,-2.359,-2.3797,-2.3797,-2.3797,-2.3797,-2.3797,-2.3797,-2.3797,-2.3797,-2.3937,-2.4206,-2.4206,-2.4775,-1.0896,-1.1042,-1.1139,-1.1268,-1.1305,-1.1305,-1.1305,-1.1305,-1.1305,-1.1305,-1.1305,-1.1305,-1.1305,-1.1305,-1.1386,-1.1661,-1.1943,-1.2181,-1.2476,-1.2757,-1.3034,-1.3307,-1.4075,-1.4762,0.0,0.0,0.0,0.0,0.0,0.0,0.0,0.0,-1.5891,-1.5891,-1.5891,-1.5891,-1.5891,-1.5891,-1.5891,-1.5891,-1.5891,-1.5891,-1.5891,-1.5998,0.0,0.0,0.0,0.0,0.0,-1.7219,-1.7331,-1.7331,-1.7536,-1.7582,-1.7582,-1.7582,-1.7582,-1.7582,-1.7582,-1.7582,-1.7582,-1.7582,-1.7582,-1.7582,-1.7582,-1.7838,-1.8356,-1.9435,-2.0716,-2.1735,-2.1887,-2.2793,-2.3601,-2.3614,-2.376,-2.3903,-2.3898,-2.3454,-2.3091,-2.3091,-2.3091,-2.3091,-2.3091,-2.3091,-2.3091,-2.3091,-2.3091,-2.3091,-2.3091,-2.3091,-2.3091,-2.3091,-2.3091,-2.3091,-2.3091,-2.3091,-2.3144,-2.3232,-2.3232,-2.3276,-2.3319,-2.3493,-2.359,-2.359,-2.3711,-2.3797,-2.3797,-2.398,-2.4196,-2.4411,-2.4411,-2.4583,-1.0751,-1.0918,-1.1042,-1.1246,-1.1305,-1.1305,-1.1305,-1.1305,-1.1305,-1.1305,-1.1305,-1.1305,-1.1305,-1.1305,-1.1354,-1.1504,-1.1838,-1.2148,-1.2253,-1.256,-1.2894,-1.3073,0.0,0.0,0.0,0.0,0.0,0.0,0.0,0.0,0.0,0.0,-1.5891,-1.5891,-1.5891,-1.5891,-1.5891,-1.5891,-1.5891,-1.5891,-1.5891,-1.5891,-1.5891,0.0,0.0,0.0,0.0,0.0,0.0,-1.7067,-1.7279,-1.7384,-1.7529,-1.7582,-1.7582,-1.7582,-1.7582,-1.7582,-1.7582,-1.7582,-1.7582,-1.7582,-1.7582,-1.7582,-1.7582,-1.7582,-1.7733,-1.852,-1.9495,-2.0313,-2.0416,-2.1574,-2.2752,-2.2754,-2.3026,-2.3383,-2.3733,-2.3149,-2.2687,-2.3047,-2.3091,-2.3091,-2.3091,-2.3091,-2.3091,-2.3091,-2.3091,-2.3091,-2.3091,-2.3091,-2.3091,-2.3091,-2.3091,-2.3091,-2.3091,-2.3091,-2.3091,-2.3091,-2.3091,-2.3091,-2.3091,-2.3276,-2.3373,-2.3373,-2.3493,-2.3537,-2.3537,-2.3807,-2.4024,-2.4239,-2.4325,-2.4411,0.0,-1.0805,-1.1042,-1.1246,-1.1305,-1.1305,-1.1305,-1.1305,0.0,-1.1305,-1.1305,-1.1305,-1.1305,-1.1305,-1.1316,-1.1332,-1.1752,-1.21,-1.2116,-1.2516,0.0,0.0,-1.3567,0.0,0.0,0.0,0.0,0.0,0.0,0.0,0.0,0.0,0.0,-1.5891,-1.5891,-1.5891,-1.5891,-1.5891,-1.5891,-1.5891,-1.5891,-1.5891,-1.5891,0.0,0.0,0.0,0.0,0.0,0.0,-1.7014,-1.7325,-1.7529,-1.7582,-1.7582,-1.7582,-1.7582,-1.7582,-1.7582,-1.7582,-1.7582,-1.7582,-1.7582,-1.7582,-1.7582,-1.7582,-1.7582,-1.7635,-1.7905,-1.7964,-1.8069,-1.8325,-1.9398,-2.0475,-2.0475,-2.0933,-2.1609,-2.2463,-2.2071,-2.1828,-2.2731,-2.2916,-2.2916,-2.2916,-2.2916,-2.2916,-2.3003,-2.3003,-2.3003,-2.3091,-2.3091,-2.3091,-2.3091,-2.3091,-2.3091,-2.3091,-2.3091,-2.3091,-2.3091,-2.3091,-2.3091,-2.3091,-2.3091,-2.3091,-2.3091,-2.3091,-2.3101,-2.3144,-2.3363,-2.358,-2.3797,-2.4067,-2.4282,-1.0533,0.0,-1.1042,-1.1246,-1.1305,-1.1305,0.0,-1.1305,-1.1305,-1.1305,-1.1305,-1.1305,-1.1305,-1.1305,-1.1364,-1.1591,-1.186,-1.2159,-1.2301,-1.2576,0.0,-1.3077,-1.3567,0.0,0.0,0.0,0.0,0.0,0.0,0.0,0.0,0.0,0.0,-1.5891,-1.5891,-1.5891,-1.5891,-1.5891,-1.5891,-1.5891,-1.5891,-1.5891,-1.5891,0.0,0.0,0.0,0.0,0.0,0.0,-1.663,-1.6842,-1.6942,-1.7424,-1.7582,-1.7582,-1.7582,-1.7582,-1.7582,-1.7582,-1.7582,-1.7582,-1.7582,-1.7582,-1.7582,-1.7582,-1.7582,-1.7635,-1.7687,-1.7852,-1.8016,-1.8069,-1.9095,-2.011,-2.011,-2.0438,-2.0883,-2.1319,-2.0847,-2.043,-2.0827,-2.0872,-2.0872,-2.0872,-2.0872,-2.1141,-2.1917,-2.2015,-2.228,-2.3003,-2.3091,-2.3091,-2.3091,-2.3091,-2.3091,-2.3091,-2.3091,-2.3091,-2.3091,-2.3091,-2.3091,-2.3091,-2.3091,-2.3091,-2.3091,-2.3091,-2.3188,-2.3416,-2.346,-2.358,-2.3797,-2.3841,-2.3927,-1.0533,-1.0805,-1.1042,-1.1246,-1.1305,-1.1305,-1.1305,-1.1305,-1.1305,-1.1305,-1.1305,-1.1305,-1.1305,-1.1305,-1.1386,-1.1661,-1.1943,-1.2218,0.0,0.0,-1.2661,-1.2275,-1.259,0.0,0.0,0.0,0.0,0.0,0.0,0.0,0.0,0.0,0.0,0.0,-1.5262,-1.5644,-1.5885,-1.5891,-1.5891,-1.5891,-1.5891,-1.5891,-1.5891,0.0,0.0,0.0,0.0,0.0,-1.6111,-1.6424,-1.669,-1.6955,-1.7272,-1.7483,-1.7582,-1.7582,-1.7582,-1.7582,-1.7582,-1.7582,-1.7582,-1.7582,-1.7582,-1.7582,-1.7582,-1.7582,-1.7582,-1.7582,-1.7687,-1.7799,-1.7799,-1.879,-1.981,-1.9654,-1.976,-2.0087,-2.0631,-1.9975,-1.943,-2.0051,-2.0187,-2.0187,-2.0187,-2.0187,-2.0367,-2.0917,-2.1006,-2.1195,-2.1686,-2.1774,-2.1774,-2.1774,-2.2183,-2.2467,-2.2467,-2.2862,-2.3091,-2.3091,-2.3091,-2.3091,-2.3091,-2.3091,-2.3091,-2.3091,-2.3091,-2.3178,-2.3319,-2.3319,-2.345,-2.3667,-2.3754,-2.3884,-1.0533,-1.0805,-1.1042,-1.1246,-1.1305,-1.1305,-1.1305,-1.1305,-1.1305,-1.1305,-1.1305,-1.1305,-1.1305,-1.1305,-1.1396,-1.1709,-1.2024,0.0,-1.2753,-1.2813,-1.2414,-1.1321,0.0,0.0,0.0,0.0,0.0,0.0,0.0,0.0,0.0,0.0,0.0,0.0,-1.4276,-1.5061,-1.5547,-1.5718,-1.5771,-1.5771,-1.5813,-1.5831,-1.5831,-1.5867,0.0,0.0,0.0,0.0,-1.6217,-1.6271,-1.659,-1.7067,-1.712,-1.7272,-1.7529,-1.7529,-1.7582,-1.7582,-1.7582,-1.7582,-1.7582,-1.7582,-1.7582,-1.7582,-1.7582,-1.7582,-1.7582,-1.7582,-1.7582,-1.7582,-1.7582,-1.8454,-1.9236,-1.8942,-1.8855,-1.9026,-1.979,-1.9028,-1.8519,-1.9559,-1.9778,-1.9778,-1.9778,-1.9778,-1.9824,-1.996,-2.0014,-2.0051,-2.0187,-2.0187,-2.0187,-2.0187,-2.1105,-2.1695,-2.1695,-2.2555,-2.3091,-2.3091,-2.3091,-2.3091,-2.3091,-2.3091,-2.3091,-2.3091,-2.3091,-2.3091,-2.3091,-2.3091,-2.3232,-2.346,-2.3624,-2.3797,-1.0533,-1.0805,-1.1042,-1.1246,-1.1305,-1.1305,-1.1305,-1.1305,-1.1305,-1.1305,-1.1305,-1.1305,-1.1305,-1.1305,-1.145,-1.197,-1.2413,-1.2726,0.0,0.0,-1.2414,0.0,0.0,0.0,0.0,0.0,0.0,0.0,0.0,0.0,0.0,0.0,0.0,0.0,0.0,-1.3799,-1.387,-1.4755,-1.5228,-1.5234,-1.5451,-1.5559,-1.5565,-1.5789,-1.5891,0.0,0.0,0.0,-1.5998,-1.6217,-1.6324,-1.6483,-1.6683,-1.6955,-1.7279,-1.7279,-1.7437,-1.7582,-1.7582,-1.7582,-1.7582,-1.7582,-1.7582,-1.7582,-1.7582,-1.7582,-1.7582,-1.7582,-1.7582,-1.7582,-1.7582,-1.7733,-1.7823,-1.7558,-1.7471,-1.7446,-1.7512,-1.7344,-1.734,-1.7699,-1.7738,-1.7738,-1.7738,-1.7738,-1.801,-1.888,-1.9018,-1.9285,-2.0096,-2.0187,-2.0187,-2.0187,-2.1105,-2.1695,-2.1695,-2.2555,-2.3091,-2.3091,-2.3091,-2.3091,-2.3091,-2.3091,-2.3091,-2.3091,-2.3091,-2.3091,-2.3091,-2.3091,-2.3135,-2.3144,-2.3188,-2.3232,-1.0495,-1.0672,-1.0885,-1.1214,-1.1305,-1.1305,-1.1305,-1.1305,-1.1305,-1.1305,-1.1305,-1.1305,-1.1305,-1.1413,-1.1693,-1.2172,-1.2586,-1.2813,-1.2813,-1.2813,0.0,0.0,0.0,0.0,0.0,0.0,0.0,0.0,0.0,0.0,0.0,0.0,0.0,0.0,0.0,0.0,-1.2264,-1.2762,-1.3396,-1.4231,-1.4344,-1.4396,-1.4459,-1.5292,-1.568,0.0,0.0,-1.568,-1.568,-1.5838,-1.5943,-1.6125,-1.6368,-1.669,-1.6955,-1.712,-1.7384,-1.7582,-1.7582,-1.7582,-1.7582,-1.7582,-1.7582,-1.7582,-1.7582,-1.7582,-1.7582,-1.7582,-1.7582,-1.7582,-1.7582,-1.7468,-1.7295,-1.6992,-1.6808,-1.6656,-1.656,-1.6592,-1.669,-1.7059,-1.716,-1.7153,-1.7279,-1.7279,-1.7466,-1.7924,-1.7971,-1.8149,-1.8603,-1.865,-1.865,-1.865,-2.0014,-2.0872,-2.0872,-2.2236,-2.3091,-2.3091,-2.3091,-2.3091,-2.3091,-2.3091,-2.3091,-2.3091,-2.3091,-2.3091,-2.3091,-2.3091,-2.3091,-2.3091,-2.3232,-2.3319,-1.0439,-1.0554,-1.0694,-1.1118,-1.1268,-1.1305,-1.1305,-1.1305,-1.1305,-1.1305,-1.1305,-1.1305,-1.1305,-1.1585,-1.1919,-1.2344,-1.2614,-1.2813,-1.2813,0.0,0.0,0.0,0.0,0.0,0.0,0.0,0.0,0.0,0.0,0.0,0.0,0.0,0.0,0.0,0.0,0.0,-1.0632,-1.0681,-1.1484,-1.2978,-1.303,-1.3057,-1.3118,-1.4447,-1.5034,-1.504,-1.5305,-1.5409,-1.5409,-1.5409,-1.5512,-1.5743,-1.5953,-1.6222,-1.6542,-1.7041,-1.7331,-1.7536,-1.7582,-1.7542,-1.7534,-1.7534,-1.7435,-1.7375,-1.7375,-1.7375,-1.7375,-1.7375,-1.7375,-1.7395,-1.7514,-1.7295,-1.7003,-1.6702,-1.648,-1.6354,-1.6252,-1.6258,-1.6407,-1.6831,-1.6979,-1.7073,-1.7192,-1.7286,-1.7279,-1.7279,-1.7279,-1.7279,-1.7279,-1.7279,-1.7279,-1.7279,-1.8826,-2.0051,-2.0503,-2.1917,-2.2872,-2.3101,-2.3091,-2.3091,-2.3091,-2.3091,-2.3091,-2.3091,-2.3091,-2.3091,-2.3091,-2.3091,-2.3091,-2.3091,-2.3319,-2.3416,-1.0245,-1.0476,-1.0656,-1.095,-1.1139,-1.1305,-1.1305,-1.1305,-1.1305,-1.1305,-1.1305,-1.1305,-1.1305,-1.172,-1.2154,-1.2371,-1.2614,-1.2813,0.0,0.0,0.0,0.0,0.0,0.0,0.0,0.0,0.0,0.0,0.0,0.0,0.0,0.0,0.0,0.0,0.0,0.0,-0.8951,-0.9209,-1.001,-1.1364,-1.1611,-1.1752,-1.1762,-1.3057,-1.3634,-1.3685,-1.4718,-1.5137,-1.5137,-1.5137,-1.5137,-1.5137,-1.5155,-1.5524,-1.6035,-1.6871,-1.7226,-1.7279,-1.7529,-1.746,-1.7233,-1.7233,-1.7045,-1.6767,-1.6767,-1.6767,-1.6767,-1.6767,-1.6767,-1.6834,-1.7159,-1.6979,-1.6665,-1.6377,-1.6491,-1.6604,-1.6279,-1.6407,-1.6588,-1.6636,-1.6831,-1.6979,-1.7026,-1.72,-1.7279,-1.7279,-1.7279,-1.7279,-1.7279,-1.7279,-1.7279,-1.7279,-1.8241,-1.9604,-2.1418,-2.1739,-2.2192,-2.3047,-2.3091,-2.3091,-2.3091,-2.3091,-2.3091,-2.3091,-2.3091,-2.3091,-2.3091,-2.3091,-2.3091,-2.3091,-2.3135,-2.3144,-1.0223,-1.0358,-1.0514,-1.0891,-1.1052,-1.116,-1.1273,-1.1305,-1.1305,-1.1305,-1.1305,-1.1396,-1.1731,-1.2054,-1.2355,-1.2592,-1.2753,0.0,0.0,0.0,0.0,0.0,0.0,0.0,0.0,0.0,0.0,0.0,0.0,0.0,0.0,0.0,0.0,0.0,0.0,0.0,0.0,-0.7928,-0.8226,-0.8715,-0.9817,-1.0347,-1.0406,-1.1702,-1.2309,-1.236,-1.2763,-1.3272,-1.388,-1.388,-1.4242,-1.4877,-1.504,-1.532,-1.5667,-1.6029,-1.6279,-1.6491,-1.6689,-1.6719,-1.6678,-1.6823,-1.68,-1.6707,-1.6707,-1.6707,-1.6707,-1.6707,-1.6573,-1.6506,-1.6794,-1.6657,-1.6444,-1.6313,-1.6196,-1.613,-1.5981,-1.6021,-1.6163,-1.6312,-1.6407,-1.6555,-1.6737,-1.6824,-1.6911,-1.7113,-1.7106,-1.7153,-1.7279,-1.7279,-1.7279,-1.7279,-1.8195,-1.933,-2.0647,-2.0782,-2.0917,-2.1275,-2.2413,-2.3091,-2.3091,-2.3091,-2.3091,-2.3091,-2.3091,-2.3091,-2.3091,-2.3091,-2.3091,-2.3091,-2.3091,-2.3091,-1.0132,-1.0234,-1.0369,-1.0686,-1.0875,-1.1031,-1.1155,-1.1252,-1.1305,-1.1305,-1.1364,-1.1563,-1.2121,-1.2301,-1.249,0.0,0.0,0.0,0.0,0.0,0.0,0.0,0.0,0.0,0.0,0.0,0.0,0.0,0.0,0.0,0.0,0.0,0.0,0.0,0.0,0.0,0.0,-0.7018,-0.7068,-0.7075,-0.8252,-0.8871,-0.9023,-1.0378,-1.0984,-1.0984,-1.1333,-1.2024,-1.2969,-1.2969,-1.362,-1.4612,-1.4877,-1.5081,-1.5281,-1.5462,-1.5651,-1.5859,-1.6117,-1.621,-1.6175,-1.6368,-1.6457,-1.6426,-1.6426,-1.6426,-1.6426,-1.6426,-1.6286,-1.6179,-1.638,-1.6279,-1.6132,-1.6132,-1.5979,-1.5784,-1.5784,-1.5784,-1.5832,-1.6028,-1.6123,-1.6265,-1.6447,-1.6588,-1.6784,-1.6979,-1.7066,-1.7153,-1.7279,-1.7279,-1.7279,-1.7279,-1.7924,-1.8742,-1.9695,-1.9786,-1.9869,-2.0187,-2.1463,-2.2325,-2.2643,-2.296,-2.3091,-2.3091,-2.3091,-2.3091,-2.3091,-2.3091,-2.3091,-2.3091,-2.3091,-2.3091,-0.9884,-1.01,-1.0293,-1.0293,-1.0638,-1.0982,-1.0982,-1.1171,-1.1305,-1.1311,-1.1542,-1.1849,-1.2328,-1.242,-1.2495,-1.2775,0.0,0.0,0.0,0.0,0.0,0.0,0.0,0.0,0.0,0.0,0.0,0.0,0.0,0.0,0.0,0.0,0.0,0.0,0.0,0.0,0.0,-0.6633,-0.6778,-0.6703,-0.7026,-0.7341,-0.7646,-0.897,-0.9608,-0.9657,-1.073,-1.1755,-1.2678,-1.2732,-1.3318,-1.4328,-1.4606,-1.4714,-1.4745,-1.5288,-1.5487,-1.5538,-1.5853,-1.5968,-1.5911,-1.5911,-1.5866,-1.5784,-1.5784,-1.5784,-1.5784,-1.5784,-1.5784,-1.5784,-1.5784,-1.5784,-1.5784,-1.5784,-1.5784,-1.5784,-1.5784,-1.5784,-1.5784,-1.5784,-1.6028,-1.6224,-1.6224,-1.665,-1.6979,-1.6979,-1.7153,-1.7279,-1.7279,-1.7279,-1.7279,-1.7279,-1.7279,-1.7692,-1.8703,-1.8796,-1.9193,-2.0096,-2.0187,-2.0647,-2.165,-2.2599,-2.3101,-2.3101,-2.3091,-2.3091,-2.3091,-2.3091,-2.3091,-2.3091,-2.3091,-2.3091,-0.9884,-0.9976,-1.0073,-1.025,-1.0519,-1.0783,-1.0945,-1.1171,-1.1354,-1.152,-1.1779,-1.2083,-1.2361,-1.2549,0.0,0.0,0.0,0.0,0.0,0.0,0.0,0.0,0.0,0.0,0.0,0.0,0.0,0.0,0.0,0.0,0.0,0.0,0.0,0.0,0.0,0.0,0.0,0.0,-0.645,-0.6414,-0.6735,-0.7144,-0.7596,-0.7988,-0.8287,-0.8482,-0.8825,-0.9998,-1.1755,-1.3221,-1.4004,-1.4304,-1.4389,-1.4425,-1.4431,-1.4601,-1.468,-1.468,-1.4984,-1.5219,-1.539,-1.5575,-1.5708,-1.5784,-1.5784,-1.5784,-1.5784,-1.5784,-1.5784,-1.5784,-1.5784,-1.5784,-1.5784,-1.5784,-1.5784,-1.5784,-1.5784,-1.5784,-1.5784,-1.5784,-1.5879,-1.5927,-1.5927,-1.6069,-1.6258,-1.6636,-1.6777,-1.6911,-1.7286,-1.7279,-1.7279,-1.7279,-1.7279,-1.7419,-1.7738,-1.7738,-1.787,-1.8141,-1.8826,-1.965,-2.0602,-2.1596,-2.2104,-2.2104,-2.2775,-2.3091,-2.3091,-2.3091,-2.3091,-2.3091,-2.3091,-2.3091,-0.9884,-0.9884,-0.996,-1.0105,-1.0351,-1.0683,-1.1052,-1.1198,-1.1402,-1.1768,-1.1997,-1.2197,-1.249,-1.2667,0.0,0.0,0.0,0.0,0.0,0.0,0.0,0.0,0.0,0.0,0.0,0.0,0.0,0.0,0.0,0.0,0.0,0.0,0.0,0.0,0.0,0.0,0.0,0.0,0.0,-0.6246,-0.6464,-0.6793,-0.7183,-0.7344,-0.7561,-0.7858,-0.8403,-0.9608,-1.1317,-1.2974,-1.3908,-1.4298,-1.4298,-1.4298,-1.4298,-1.4298,-1.4298,-1.4346,-1.449,-1.479,-1.5131,-1.5267,-1.5547,-1.5784,-1.5784,-1.5784,-1.5784,-1.5784,-1.5784,-1.5784,-1.5784,-1.5784,-1.5784,-1.5784,-1.5784,-1.5784,-1.5784,-1.5784,-1.5784,-1.5784,-1.5784,-1.5784,-1.5784,-1.5879,-1.6069,-1.64,-1.6541,-1.673,-1.7153,-1.72,-1.7192,-1.7286,-1.7279,-1.7279,-1.7279,-1.7279,-1.7279,-1.7279,-1.7878,-1.8465,-1.901,-2.0376,-2.1105,-2.1105,-2.1641,-2.2138,-2.2555,-2.2555,-2.2731,-2.3091,-2.3091,-2.3091,-0.9884,-0.9884,-0.9884,-0.9884,-1.0243,-1.0721,-1.1198,-1.1305,-1.1434,-1.197,-1.2078,-1.2235,-1.2694,-1.2797,0.0,0.0,0.0,0.0,0.0,0.0,0.0,0.0,0.0,0.0,0.0,0.0,0.0,0.0,0.0,0.0,0.0,0.0,0.0,0.0,0.0,0.0,0.0,0.0,0.0,0.0,-0.6246,-0.6331,-0.6446,-0.6936,-0.7285,-0.7566,-0.8957,-1.0143,-1.1118,-1.2104,-1.3134,-1.4016,-1.4088,-1.4148,-1.4148,-1.425,-1.4298,-1.4298,-1.4298,-1.464,-1.5083,-1.5083,-1.541,-1.5778,-1.5778,-1.5784,-1.5784,-1.5784,-1.5784,-1.5784,-1.5784,-1.5784,-1.5784,-1.5784,-1.5784,-1.5784,-1.5784,-1.5784,-1.5784,-1.5784,-1.5784,-1.5784,-1.5784,-1.5981,-1.6177,-1.6224,-1.6454,-1.6683,-1.6932,-1.6979,-1.7019,-1.7239,-1.7239,-1.7232,-1.7286,-1.7286,-1.7279,-1.7279,-1.7279,-1.7279,-1.7279,-1.9101,-2.0051,-2.0051,-2.0232,-2.0782,-2.1695,-2.1784,-2.228,-2.3091,-2.3091,-2.3091,-0.9884,-0.9884,-0.9884,-0.9884,-1.0243,-1.0721,-1.1198,-1.1305,-1.1391,-1.1715,-1.1964,-1.2186,-1.2436,-1.2641,0.0,0.0,0.0,0.0,0.0,0.0,0.0,0.0,0.0,0.0,0.0,0.0,0.0,0.0,0.0,0.0,0.0,0.0,0.0,0.0,0.0,0.0,-0.6086,-0.604,-0.604,0.0,-0.6113,-0.6109,-0.6037,-0.6614,-0.7152,-0.7648,-0.8804,-0.9429,-0.972,-1.0906,-1.1497,-1.1798,-1.2705,-1.3022,-1.3167,-1.4004,-1.4298,-1.4298,-1.4298,-1.4496,-1.4838,-1.5035,-1.5302,-1.5568,-1.573,-1.5784,-1.5784,-1.5784,-1.5784,-1.5784,-1.5784,-1.5784,-1.5784,-1.5784,-1.5784,-1.5784,-1.5784,-1.5784,-1.5784,-1.5784,-1.5784,-1.5784,-1.5784,-1.5832,-1.5974,-1.6177,-1.6454,-1.6629,-1.6683,-1.6683,-1.6683,-1.677,-1.677,-1.6824,-1.7066,-1.7066,-1.7106,-1.7286,-1.7279,-1.7279,-1.7279,-1.8465,-1.9109,-1.9109,-2.0602,-2.1463,-2.1695,-2.2457,-2.2916,-2.3091,-2.3091,-2.3091,-1.003,-0.996,-0.9949,-1.0067,-1.0329,-1.0689,-1.1048,-1.1225,-1.1213,-1.0885,-1.1402,-1.1815,-1.1579,0.0,0.0,0.0,0.0,0.0,0.0,0.0,0.0,0.0,0.0,0.0,0.0,0.0,0.0,0.0,0.0,0.0,0.0,0.0,0.0,0.0,0.0,0.0,-0.5996,-0.5994,-0.5994,-0.5999,-0.5999,-0.598,-0.6003,-0.6544,-0.692,-0.7268,-0.8063,-0.8711,-0.9228,-0.9878,-1.043,-1.0909,-1.1492,-1.1726,-1.1884,-1.3009,-1.344,-1.3505,-1.4106,-1.4496,-1.4742,-1.485,-1.5172,-1.5527,-1.5635,-1.5737,-1.5784,-1.5784,-1.5784,-1.5784,-1.5784,-1.5784,-1.5784,-1.5784,-1.5784,-1.5784,-1.5784,-1.5784,-1.5784,-1.5784,-1.5784,-1.5784,-1.5784,-1.5784,-1.5832,-1.5981,-1.6116,-1.6258,-1.64,-1.6407,-1.6447,-1.6588,-1.673,-1.6831,-1.6979,-1.7113,-1.72,-1.7279,-1.7279,-1.7279,-1.7279,-1.7785,-1.8064,-1.8064,-1.9055,-2.0051,-2.0962,-2.1463,-2.2183,-2.3091,-2.3091,-2.3091,-1.0143,-1.0067,-1.0019,-1.0345,-1.0513,-1.0689,-1.0965,-1.1139,-1.0994,-1.0072,-1.0735,-1.121,0.0,0.0,0.0,0.0,0.0,0.0,0.0,0.0,0.0,0.0,0.0,0.0,0.0,0.0,0.0,0.0,0.0,0.0,0.0,0.0,0.0,0.0,0.0,-0.5882,-0.5904,-0.5986,-0.5986,-0.5904,-0.5882,-0.5913,-0.6044,-0.6418,-0.6664,-0.682,-0.7286,-0.798,-0.8852,-0.8884,-0.9402,-1.0136,-1.0357,-1.0417,-1.0584,-1.1781,-1.2246,-1.2373,-1.3425,-1.4034,-1.4376,-1.44,-1.4831,-1.535,-1.5404,-1.5594,-1.5737,-1.5737,-1.5784,-1.5784,-1.5784,-1.5784,-1.5784,-1.5784,-1.5784,-1.5784,-1.5784,-1.5784,-1.5784,-1.5784,-1.5784,-1.5784,-1.5784,-1.5784,-1.5784,-1.5784,-1.5784,-1.5879,-1.6123,-1.613,-1.6218,-1.644,-1.6643,-1.6831,-1.6932,-1.7059,-1.7192,-1.7279,-1.7279,-1.7279,-1.7279,-1.7279,-1.7279,-1.7279,-1.7466,-1.8326,-1.996,-2.0096,-2.1051,-2.2589,-2.2775,-2.2872,-1.018,-1.018,-1.0279,-1.0689,-1.0707,-1.0727,-1.117,-1.1135,-1.0831,-1.0082,-1.0195,0.0,0.0,0.0,0.0,0.0,0.0,0.0,0.0,0.0,0.0,0.0,0.0,0.0,0.0,0.0,0.0,0.0,0.0,0.0,0.0,-0.5817,-0.5712,-0.5712,-0.5712,0.0,-0.5901,-0.582,-0.5822,-0.5901,-0.5803,-0.5749,-0.5777,-0.6058,-0.6385,-0.6805,-0.6895,-0.707,-0.7389,-0.757,-0.7717,-0.796,-0.8973,-0.9406,-0.9567,-1.0735,-1.119,-1.1215,-1.1501,-1.2228,-1.303,-1.3245,-1.401,-1.4831,-1.5077,-1.5315,-1.554,-1.554,-1.5683,-1.5784,-1.5784,-1.5784,-1.5784,-1.5784,-1.5784,-1.5784,-1.5784,-1.5784,-1.5784,-1.5784,-1.5784,-1.5784,-1.5784,-1.5784,-1.5784,-1.5784,-1.5784,-1.5832,-1.5832,-1.5832,-1.5879,-1.592,-1.5927,-1.6163,-1.6636,-1.6683,-1.6864,-1.7279,-1.7279,-1.7279,-1.7279,-1.7279,-1.7279,-1.7279,-1.8149,-1.8742,-1.8972,-1.9778,-2.0322,-2.0593,-2.1463,-2.1882,-1.0368,-1.0443,-1.0541,-1.0661,-1.0727,-1.0813,-1.1027,-1.1098,-1.0889,-1.0059,0.0,0.0,0.0,0.0,0.0,0.0,0.0,0.0,0.0,0.0,0.0,0.0,0.0,0.0,0.0,0.0,0.0,0.0,0.0,0.0,-0.5809,-0.5715,-0.5688,-0.5688,-0.5688,0.0,-0.5806,-0.5715,-0.5715,-0.5806,-0.5712,-0.5688,-0.5688,-0.5822,-0.6086,-0.6438,-0.6707,-0.6836,-0.6928,-0.7169,-0.7241,-0.7293,-0.7806,-0.8016,-0.817,-0.9384,-0.9817,-0.9926,-1.0787,-1.1371,-1.1791,-1.1953,-1.2446,-1.3076,-1.3757,-1.3752,-1.3596,-1.4184,-1.3986,-1.3788,-1.4561,-1.4752,-1.4902,-1.5635,-1.535,-1.5112,-1.5683,-1.5784,-1.5784,-1.5784,-1.5784,-1.5784,-1.5784,-1.5784,-1.5784,-1.5784,-1.5784,-1.5784,-1.5784,-1.5784,-1.5784,-1.5784,-1.5927,-1.6123,-1.6359,-1.6494,-1.6676,-1.6911,-1.6911,-1.6958,-1.7106,-1.7106,-1.72,-1.7279,-1.7738,-1.8241,-1.8788,-1.9193,-1.9695,-2.0187,-2.0647,-2.0872,-1.0325,-1.0513,-1.0738,-1.0406,-1.0471,-1.0512,-1.0378,-1.0412,-1.0312,0.0,0.0,0.0,0.0,0.0,0.0,0.0,0.0,0.0,0.0,0.0,0.0,0.0,0.0,0.0,0.0,0.0,0.0,0.0,0.0,0.0,-0.5688,-0.5688,-0.5688,-0.5688,-0.5688,-0.5688,-0.5688,-0.5688,-0.5688,-0.5688,-0.5688,-0.5688,-0.5688,-0.5688,-0.5822,-0.6041,-0.6438,-0.6707,-0.6795,-0.6969,-0.7054,-0.7095,-0.7095,-0.7095,-0.72,-0.8159,-0.8536,-0.8691,-0.9741,-1.032,-1.0596,-1.0718,-1.1093,-1.1658,-1.2393,-1.2242,-1.1999,-1.278,-1.2484,-1.2139,-1.3204,-1.3494,-1.3734,-1.4758,-1.443,-1.4094,-1.486,-1.5248,-1.5397,-1.5397,-1.5201,-1.5201,-1.573,-1.5588,-1.5493,-1.5778,-1.5784,-1.5784,-1.5784,-1.5784,-1.5784,-1.5784,-1.5981,-1.613,-1.6177,-1.6359,-1.6541,-1.6588,-1.6588,-1.6683,-1.6885,-1.6885,-1.6972,-1.7099,-1.7192,-1.7606,-1.8427,-1.8427,-1.8788,-1.9459,-1.9733,-1.9824,-0.9863,-1.0207,-1.0663,-1.0067,-0.9803,-0.9519,-0.8959,-0.8664,-0.8608,0.0,0.0,0.0,0.0,0.0,0.0,0.0,0.0,0.0,0.0,0.0,0.0,0.0,0.0,0.0,0.0,0.0,0.0,0.0,0.0,0.0,-0.5688,-0.5688,-0.5688,-0.5688,-0.5688,-0.5688,-0.5688,-0.5688,-0.5688,-0.5688,-0.5688,-0.5688,-0.5688,-0.5688,-0.5688,-0.5733,-0.5994,-0.6393,-0.6795,-0.6795,-0.6925,-0.7095,-0.7095,-0.7095,-0.7115,-0.7403,-0.7461,-0.7517,-0.7728,-0.8507,-0.9471,-0.9508,-1.0276,-1.1219,-1.1268,-1.1468,-1.1609,-1.1658,-1.1804,-1.1945,-1.229,-1.2382,-1.2484,-1.2775,-1.2829,-1.2775,-1.2829,-1.3655,-1.4394,-1.4394,-1.3559,-1.3505,-1.5445,-1.5016,-1.4682,-1.5642,-1.5784,-1.5784,-1.5784,-1.5784,-1.5784,-1.5784,-1.5832,-1.5927,-1.6177,-1.6224,-1.6312,-1.6588,-1.6588,-1.6636,-1.6629,-1.6629,-1.6636,-1.6629,-1.6878,-1.716,-1.7372,-1.7372,-1.7419,-1.7466,-1.8427,-1.888,-0.9231,-0.9226,-0.942,-0.9193,-0.9079,-0.898,-0.8755,-0.8658,-0.8636,0.0,0.0,0.0,0.0,0.0,0.0,0.0,0.0,0.0,0.0,0.0,0.0,0.0,0.0,0.0,0.0,0.0,0.0,0.0,0.0,0.0,-0.5688,-0.5688,-0.5688,-0.5688,-0.5688,-0.5688,-0.5688,-0.5688,-0.5688,-0.5688,-0.5688,-0.5688,-0.5688,-0.5688,-0.5688,-0.5688,-0.5819,-0.6041,-0.6393,-0.6662,-0.684,-0.6925,-0.7054,-0.7095,-0.7102,-0.7204,-0.7224,-0.7241,-0.7402,-0.7774,-0.8141,-0.8222,-0.8607,-0.9146,-0.9816,-0.971,-0.941,-1.0096,-0.985,-0.9608,-1.0583,-1.0828,-1.0925,-1.1365,-1.195,-1.2096,-1.0935,-1.2058,-1.327,-1.327,-1.2974,-1.292,-1.3698,-1.4094,-1.4442,-1.4777,-1.5397,-1.5784,-1.5784,-1.5784,-1.5784,-1.5784,-1.5784,-1.5832,-1.5933,-1.5927,-1.5974,-1.6069,-1.6109,-1.6163,-1.6359,-1.6359,-1.6407,-1.6588,-1.6683,-1.6878,-1.7113,-1.7239,-1.7279,-1.7333,-1.7645,-1.7831,-0.8513,-0.8513,-0.8627,-0.8356,-0.8284,-0.8246,-0.794,-0.7902,-0.7902,0.0,0.0,0.0,0.0,0.0,0.0,0.0,0.0,0.0,0.0,0.0,0.0,0.0,0.0,0.0,0.0,0.0,0.0,0.0,0.0,0.0,-0.5688,-0.5688,-0.5688,-0.5688,-0.5688,-0.5688,-0.5688,-0.5688,-0.5688,-0.5688,-0.5688,-0.5688,-0.5688,-0.5688,-0.5688,-0.5688,-0.5688,-0.5863,-0.6127,-0.6438,-0.6659,-0.6795,-0.6966,-0.7054,-0.7095,-0.7095,-0.7095,-0.7109,-0.7258,-0.7329,-0.7436,-0.7492,-0.7621,-0.789,-0.8653,-0.8411,-0.8072,-0.8856,-0.8528,-0.8233,-0.9217,-0.9509,-0.9706,-1.0047,-1.0632,-1.0779,-0.9571,-1.0832,-1.2193,-1.2193,-1.1907,-1.2004,-1.3076,-1.3511,-1.4004,-1.4675,-1.535,-1.5784,-1.5784,-1.5784,-1.5784,-1.5784,-1.5784,-1.5784,-1.5784,-1.5784,-1.5784,-1.5784,-1.5784,-1.5879,-1.6076,-1.6076,-1.6163,-1.6346,-1.64,-1.6548,-1.6744,-1.6965,-1.7052,-1.7052,-1.7145,-1.7239,0.0,0.0,0.0,-0.7672,-0.7484,-0.7253,-0.6493,0.0,-0.63,0.0,0.0,0.0,0.0,0.0,0.0,0.0,0.0,0.0,0.0,0.0,0.0,0.0,0.0,0.0,0.0,0.0,0.0,0.0,0.0,-0.5688,-0.5688,-0.5688,-0.5688,-0.5688,-0.5688,-0.5688,-0.5688,-0.5688,-0.5688,-0.5688,-0.5688,-0.5688,-0.5688,-0.5688,-0.5688,-0.5688,-0.5688,-0.5863,-0.6083,-0.6083,-0.6349,-0.6795,-0.6795,-0.6925,-0.7095,-0.7095,-0.7095,-0.7095,-0.7095,-0.7238,-0.7409,-0.7409,-0.7468,-0.7617,-0.7763,-0.7807,-0.7841,-0.7944,-0.7988,-0.8038,-0.8333,-0.8577,-0.8775,-0.8775,-0.8775,-0.8775,-0.8775,-1.0047,-1.1126,-1.1126,-1.0306,-1.0551,-1.3613,-1.3318,-1.3355,-1.5343,-1.5683,-1.573,-1.573,-1.573,-1.5778,-1.5778,-1.5784,-1.5784,-1.5784,-1.5784,-1.5784,-1.5784,-1.5784,-1.5784,-1.5784,-1.5784,-1.5784,-1.5784,-1.6076,-1.6177,-1.6177,-1.6447,-1.6588,-1.6636,-1.6878,-1.7113,-0.6834,0.0,0.0,0.0,0.0,0.0,0.0,0.0,0.0,0.0,0.0,0.0,0.0,0.0,0.0,0.0,0.0,0.0,0.0,0.0,0.0,0.0,0.0,0.0,0.0,0.0,0.0,0.0,0.0,-0.5688,-0.5688,-0.5688,-0.5688,-0.5688,-0.5688,-0.5688,-0.5688,-0.5688,-0.5688,-0.5688,-0.5688,-0.5688,-0.5688,-0.5688,-0.5688,-0.5688,-0.5688,-0.5733,-0.5822,-0.6041,-0.6171,-0.6305,-0.6662,-0.6836,-0.6881,-0.7054,-0.7095,-0.7095,-0.7095,-0.7125,-0.7204,-0.7204,-0.7309,-0.7461,-0.7611,-0.7729,-0.7841,-0.7944,-0.7988,-0.8041,-0.8088,-0.8187,-0.8283,-0.8482,-0.8528,-0.8577,-0.8775,-0.932,-0.9768,-0.9768,-0.9525,-0.9624,-1.0699,-1.1326,-1.1804,-1.2387,-1.3065,-1.3553,-1.3553,-1.4238,-1.4729,-1.4729,-1.535,-1.5784,-1.5784,-1.5784,-1.5784,-1.5784,-1.5784,-1.5784,-1.5784,-1.5784,-1.5784,-1.5784,-1.5879,-1.5927,-1.5927,-1.6353,-1.6588,-1.6588,-1.6683,-1.673,-0.6416,-0.63,-0.63,-0.63,0.0,0.0,-0.63,-0.63,0.0,0.0,0.0,0.0,0.0,0.0,0.0,0.0,0.0,0.0,0.0,0.0,0.0,0.0,0.0,0.0,0.0,0.0,0.0,0.0,-0.5545,-0.5637,-0.5686,-0.5688,-0.5688,-0.5688,-0.5688,-0.5688,-0.5688,-0.5688,-0.5688,-0.5688,-0.5688,-0.5688,-0.5688,-0.5688,-0.5688,-0.5688,-0.5688,-0.5688,-0.5733,-0.5863,-0.5997,-0.6127,-0.6393,-0.6615,-0.6795,-0.6925,-0.701,-0.7095,-0.7095,-0.7095,-0.7095,-0.7095,-0.72,-0.7302,-0.7458,-0.7563,-0.7672,-0.7885,-0.7941,-0.7988,-0.7988,-0.7988,-0.8038,-0.8187,-0.8233,-0.8283,-0.8432,-0.8584,-0.8786,-0.9137,-0.9286,-0.9575,-1.0158,-1.0788,-1.1317,-1.1755,-1.2339,-1.2678,-1.2678,-1.3264,-1.3613,-1.3613,-1.4136,-1.4519,-1.4519,-1.4914,-1.5159,-1.5159,-1.5588,-1.5784,-1.5784,-1.5784,-1.5784,-1.5784,-1.5784,-1.5784,-1.5784,-1.6109,-1.6305,-1.6447,-1.6447,-1.6494,-0.63,-0.6261,-0.6261,-0.63,-0.63,0.0,-0.63,-0.63,-0.63,0.0,0.0,0.0,0.0,0.0,0.0,0.0,0.0,0.0,0.0,0.0,0.0,0.0,0.0,0.0,0.0,0.0,-0.5391,-0.5391,-0.5461,-0.554,-0.5661,-0.5669,-0.5675,-0.5688,-0.5688,-0.5688,-0.5688,-0.5688,-0.5688,-0.5688,-0.5688,-0.5688,-0.5688,-0.5688,-0.5688,-0.5688,-0.5688,-0.5688,-0.5688,-0.5688,-0.5819,-0.6038,-0.6083,-0.6349,-0.6748,-0.6795,-0.6925,-0.7095,-0.7095,-0.7095,-0.7095,-0.7095,-0.7095,-0.7125,-0.7326,-0.7415,-0.7477,-0.7709,-0.7896,-0.7965,-0.7965,-0.7978,-0.7988,-0.7988,-0.7988,-0.7988,-0.7988,-0.8038,-0.8237,-0.8985,-0.9331,-0.9817,-1.0837,-1.1028,-1.1317,-1.2198,-1.2344,-1.2344,-1.2344,-1.2441,-1.2533,-1.2533,-1.263,-1.2678,-1.2678,-1.3559,-1.4148,-1.4298,-1.5159,-1.5683,-1.5784,-1.5784,-1.5784,-1.5784,-1.5784,-1.5784,-1.5784,-1.5784,-1.5927,-1.6177,-1.6177,-1.6265,-0.6183,-0.6141,-0.6022,-0.6261,0.0,0.0,-0.63,-0.63,-0.63,0.0,0.0,0.0,0.0,0.0,0.0,0.0,0.0,0.0,0.0,0.0,0.0,0.0,0.0,0.0,0.0,0.0,-0.5222,-0.5222,-0.5336,-0.5458,-0.5537,-0.5543,-0.5498,-0.546,-0.5463,-0.5463,-0.5463,-0.5463,-0.5552,-0.5688,-0.5688,-0.5688,-0.5688,-0.5688,-0.5688,-0.5688,-0.5688,-0.5688,-0.5688,-0.5688,-0.5733,-0.5777,-0.5994,-0.6257,-0.652,-0.6704,-0.6925,-0.7095,-0.7095,-0.7095,-0.7095,-0.7095,-0.7095,-0.7125,-0.7326,-0.7415,-0.7453,-0.759,-0.7743,-0.7855,-0.7855,-0.7897,-0.7988,-0.7988,-0.7988,-0.7988,-0.7988,-0.8187,-0.8382,-0.8535,-0.8779,-0.9171,-0.9817,-0.9916,-0.9965,-1.0162,-1.0207,-1.0207,-1.0207,-1.0984,-1.1512,-1.1512,-1.2242,-1.2678,-1.2678,-1.2877,-1.3366,-1.4244,-1.449,-1.4968,-1.5784,-1.5784,-1.5784,-1.5784,-1.5784,-1.5784,-1.5784,-1.5784,-1.5832,-1.5879,-1.5879,-1.5927,0.0,0.0,0.0,-0.606,0.0,0.0,0.0,-0.63,-0.63,0.0,0.0,0.0,0.0,0.0,0.0,0.0,0.0,0.0,0.0,0.0,0.0,0.0,0.0,0.0,0.0,0.0,-0.5127,-0.5181,-0.5243,-0.533,-0.5455,-0.5489,-0.5419,-0.5287,-0.5385,-0.5327,-0.5191,-0.5327,-0.5463,-0.5552,-0.5644,-0.5688,-0.5688,-0.5688,-0.5688,-0.5688,-0.5688,-0.5688,-0.5688,-0.5688,-0.5688,-0.5733,-0.5863,-0.6038,-0.6257,-0.6523,-0.6745,-0.6969,-0.7051,-0.7095,-0.7095,-0.7095,-0.7095,-0.7109,-0.7234,-0.7312,-0.7433,-0.7465,-0.7594,-0.7723,-0.7794,-0.7868,-0.7894,-0.7971,-0.7931,-0.7877,-0.7877,-0.8024,-0.8119,-0.8273,-0.8477,-0.873,-0.9126,-0.9225,-0.9229,-0.9381,-0.9381,-0.943,-0.9579,-1.006,-1.04,-1.04,-1.0841,-1.113,-1.113,-1.1663,-1.2193,-1.2732,-1.3221,-1.3752,-1.4232,-1.4771,-1.5302,-1.5778,-1.5784,-1.5784,-1.5784,-1.5784,-1.5784,-1.5784,-1.5784,-1.5784,0.0,0.0,0.0,0.0,0.0,-0.6219,0.0,0.0,0.0,0.0,0.0,0.0,0.0,0.0,0.0,0.0,0.0,0.0,0.0,0.0,0.0,0.0,0.0,0.0,0.0,0.0,-0.5056,-0.5146,-0.5154,-0.5205,-0.5369,-0.5392,-0.5298,-0.5117,-0.5202,-0.5127,-0.4921,-0.5191,-0.5371,-0.5416,-0.5599,-0.5688,-0.5688,-0.5688,-0.5688,-0.5688,-0.5688,-0.5688,-0.5688,-0.5688,-0.5688,-0.5688,-0.5688,-0.5863,-0.6127,-0.6299,-0.6523,-0.6836,-0.6966,-0.7051,-0.7095,-0.7095,-0.7095,-0.7095,-0.7095,-0.7227,-0.7326,-0.7326,-0.7438,-0.7584,-0.7695,-0.7746,-0.7801,-0.7877,-0.7862,-0.777,-0.777,-0.777,-0.7828,-0.8056,-0.8206,-0.8386,-0.8731,-0.8806,-0.8867,-0.9042,-0.9114,-0.9232,-0.948,-0.9529,-0.9529,-0.9579,-0.9579,-0.9579,-0.9579,-1.04,-1.0979,-1.117,-1.195,-1.2484,-1.2678,-1.3511,-1.4484,-1.5493,-1.5493,-1.5588,-1.5784,-1.5784,-1.5784,-1.5784,-1.5784,-1.5784,0.0,0.0,0.0,0.0,-0.5941,0.0,0.0,0.0,0.0,-0.63,0.0,0.0,0.0,0.0,0.0,0.0,0.0,0.0,0.0,0.0,0.0,0.0,0.0,0.0,0.0,0.0,0.0,-0.5034,-0.5037,-0.5086,-0.52,-0.5075,-0.4929,-0.4856,-0.4697,-0.4658,-0.4748,-0.4924,-0.5146,-0.5416,-0.5599,-0.5688,-0.5688,-0.5688,-0.5688,-0.5688,-0.5688,-0.5688,-0.5688,-0.5688,-0.5688,-0.5688,-0.5688,-0.5863,-0.6083,-0.6127,-0.6438,-0.6795,-0.6836,-0.6966,-0.7095,-0.7095,-0.7095,-0.7095,-0.7095,-0.7109,-0.7122,-0.7122,-0.7278,-0.7446,-0.7463,-0.7522,-0.7628,-0.7645,-0.7638,-0.7624,-0.7624,-0.7624,-0.7662,-0.7835,-0.7873,-0.8032,-0.8519,-0.8732,-0.8776,-0.8687,-0.8784,-0.8928,-0.9232,-0.9236,-0.9335,-0.9579,-0.9579,-0.9579,-0.9579,-0.9727,-1.0207,-1.1126,-1.1317,-1.1755,-1.2678,-1.2829,-1.336,-1.4442,-1.449,-1.4921,-1.5784,-1.5784,-1.5784,-1.5784,-1.5784,-1.5784,0.0,0.0,0.0,0.0,0.0,0.0,-0.6022,0.0,-0.606,0.0,0.0,0.0,0.0,0.0,0.0,0.0,0.0,0.0,0.0,0.0,0.0,0.0,0.0,0.0,0.0,0.0,0.0,0.0,0.0,-0.5037,-0.5086,-0.4956,-0.4834,-0.4633,-0.4524,-0.4432,-0.4401,-0.4618,-0.4863,-0.5191,-0.5416,-0.5597,-0.5688,-0.5688,-0.5688,-0.5688,-0.5688,-0.5688,-0.5688,-0.5688,-0.5688,-0.5688,-0.5688,-0.5777,-0.5908,-0.6038,-0.6216,-0.6393,-0.6523,-0.6745,-0.6966,-0.7051,-0.7095,-0.7095,-0.7095,-0.7095,-0.7095,-0.7095,-0.7142,-0.7258,-0.735,-0.7463,-0.7489,-0.758,-0.7533,-0.7468,-0.7468,-0.7468,-0.7485,-0.7543,-0.7628,-0.7709,-0.7854,-0.8085,-0.8243,-0.8233,-0.8313,-0.8438,-0.8829,-0.8841,-0.8977,-0.9324,-0.9381,-0.943,-0.9579,-0.9579,-0.9772,-1.0256,-1.0256,-1.0739,-1.1804,-1.1853,-1.2344,-1.3366,-1.3366,-1.3902,-1.4921,-1.4921,-1.5207,-1.5784,-1.5784,-1.5784,-0.5018,0.0,0.0,0.0,0.0,0.0,0.0,0.0,0.0,0.0,0.0,0.0,0.0,0.0,-0.5964,-0.6106,0.0,-0.6031,0.0,0.0,0.0,0.0,0.0,0.0,0.0,0.0,0.0,0.0,0.0,0.0,-0.5018,-0.4859,-0.4676,-0.4501,-0.4328,-0.4206,-0.4134,-0.437,-0.4633,-0.4879,-0.522,-0.5463,-0.5599,-0.5688,-0.5688,-0.5688,-0.5688,-0.5688,-0.5688,-0.5688,-0.5688,-0.5688,-0.5688,-0.5688,-0.5733,-0.5908,-0.6041,-0.6127,-0.6254,-0.6523,-0.6836,-0.6966,-0.7051,-0.7095,-0.7095,-0.7095,-0.7095,-0.7095,-0.7095,-0.7122,-0.7278,-0.7309,-0.7336,-0.7448,-0.7387,-0.7309,-0.7309,-0.7309,-0.7319,-0.7409,-0.7461,-0.7502,-0.7436,-0.7584,-0.775,-0.7837,-0.7851,-0.8012,-0.8365,-0.8475,-0.8664,-0.9028,-0.9043,-0.9157,-0.94,-0.9457,-0.9477,-0.9575,-0.9579,-0.9965,-1.0739,-1.0739,-1.1224,-1.229,-1.229,-1.2926,-1.4298,-1.422,-1.4706,-1.5712,-1.5792,-1.5784,0.0,0.0,0.0,-0.5243,0.0,0.0,0.0,0.0,-0.5598,0.0,0.0,0.0,0.0,-0.5786,-0.5841,-0.5733,-0.5822,0.0,0.0,0.0,0.0,0.0,0.0,0.0,0.0,0.0,0.0,0.0,0.0,0.0,-0.5018,-0.4626,-0.4437,-0.4499,-0.4104,-0.3948,-0.3996,-0.4338,-0.4513,-0.4517,-0.51,-0.5416,-0.5416,-0.5599,-0.5688,-0.5688,-0.5688,-0.5688,-0.5688,-0.5688,-0.5688,-0.5688,-0.5688,-0.5688,-0.5688,-0.5688,-0.5863,-0.6083,-0.6127,-0.6393,-0.6795,-0.6795,-0.6922,-0.7095,-0.7095,-0.7095,-0.7095,-0.7095,-0.7095,-0.7098,-0.7102,-0.7102,-0.7105,-0.7109,-0.7105,-0.7102,-0.7102,-0.7102,-0.7146,-0.7343,-0.7419,-0.7422,-0.7415,-0.7502,-0.7553,-0.7446,-0.7552,-0.7695,-0.7976,-0.8207,-0.8395,-0.8679,-0.8722,-0.8792,-0.9016,-0.9031,-0.9199,-0.9567,-0.9579,-0.9628,-0.9624,-0.9673,-1.0158,-1.1219,-1.1268,-1.2247,-1.4298,-1.3967,-1.4359,-1.5418,-1.5698,-1.5784,0.0,0.0,-0.4343,-0.4935,0.0,0.0,0.0,0.0,0.0,0.0,0.0,0.0,0.0,-0.5476,-0.5532,-0.5619,-0.5781,-0.5825,0.0,0.0,0.0,0.0,0.0,0.0,0.0,0.0,0.0,0.0,0.0,0.0,0.0,-0.4621,-0.4401,-0.4437,-0.4045,-0.3852,-0.3944,-0.4057,-0.4216,-0.4513,-0.472,-0.4902,-0.5144,-0.5371,-0.5508,-0.5508,-0.5644,-0.5688,-0.5688,-0.5688,-0.5688,-0.5688,-0.5688,-0.5688,-0.5688,-0.5688,-0.5777,-0.5863,-0.6041,-0.6216,-0.6393,-0.6704,-0.6836,-0.6925,-0.7051,-0.7095,-0.7095,-0.7095,-0.7095,-0.7095,-0.7095,-0.7095,-0.7095,-0.7095,-0.7095,-0.7095,-0.7095,-0.7095,-0.7112,-0.7207,-0.7217,-0.7217,-0.7217,-0.7261,-0.7233,-0.7224,-0.7261,-0.7333,-0.7572,-0.7675,-0.7852,-0.8189,-0.8247,-0.841,-0.8792,-0.8946,-0.9119,-0.9275,-0.9279,-0.9279,-0.9279,-0.9279,-0.9465,-0.9789,-0.9789,-1.0768,-1.2776,-1.2681,-1.3479,-1.5156,-1.5211,-1.5257,-0.4112,-0.3717,0.0,0.0,-0.3717,0.0,-0.4535,0.0,0.0,0.0,0.0,0.0,0.0,-0.4849,-0.524,-0.5079,-0.5431,-0.5628,0.0,-0.5395,0.0,0.0,0.0,0.0,0.0,0.0,0.0,0.0,-0.5018,-0.5018,0.0,0.0,-0.4462,-0.4384,-0.4075,-0.3911,-0.385,-0.3883,-0.3872,-0.3813,-0.3961,-0.3974,-0.3892,-0.4099,-0.4291,-0.4383,-0.4518,-0.4607,-0.4699,-0.4699,-0.4699,-0.4699,-0.4701,-0.4858,-0.5181,-0.5491,-0.5623,-0.5676,-0.5891,-0.6041,-0.6171,-0.6438,-0.6662,-0.6836,-0.6966,-0.7054,-0.7095,-0.7095,-0.7095,-0.7095,-0.7095,-0.7095,-0.7095,-0.7095,-0.7095,-0.7095,-0.7095,-0.7095,-0.7095,-0.7095,-0.7095,-0.7095,-0.7095,-0.7095,-0.7095,-0.7095,-0.7095,-0.7132,-0.7278,-0.7382,-0.7514,-0.7795,-0.7805,-0.7961,-0.8336,-0.8633,-0.8859,-0.8952,-0.9049,-0.9096,-0.9096,-0.9096,-0.9096,-0.9096,-0.9096,-0.9875,-1.1512,-1.143,-1.2214,-1.3849,-1.3749,-1.3844]}]]